<?xml version="1.0" encoding="UTF-8" standalone="no" ?>
<gpx xmlns="http://www.topografix.com/GPX/1/1" xmlns:xsi="http://www.w3.org/2001/XMLSchema-instance" xsi:schemaLocation="http://www.topografix.com/GPX/1/1 http://www.topografix.com/GPX/1/1/gpx.xsd" version="1.1" creator="VisuGPX - https://www.visugpx.com">
  <metadata>
    <name>Randonnée Les Authieux</name>
    <desc><![CDATA[Circuit au départ de l\'église des Authieux en passant par St Aubin Celloville et Gouy]]></desc>
  </metadata>
  <trk>
    <name><![CDATA[Randonnée Les Authieux_1]]></name>
    <trkseg>
      <trkpt lat="49.34119" lon="1.13378">
        <ele>73.2</ele>
        <time>2016-01-05T13:44:15Z</time>
      </trkpt>
      <trkpt lat="49.34122" lon="1.13388">
        <ele>73.2</ele>
        <time>2016-01-05T13:44:20Z</time>
      </trkpt>
      <trkpt lat="49.34127" lon="1.13386">
        <ele>76.24798</ele>
        <time>2016-01-05T13:44:30Z</time>
      </trkpt>
      <trkpt lat="49.34126" lon="1.13388">
        <ele>76.24798</ele>
        <time>2016-01-05T13:44:45Z</time>
      </trkpt>
      <trkpt lat="49.34126" lon="1.13389">
        <ele>76.24798</ele>
        <time>2016-01-05T13:44:50Z</time>
      </trkpt>
      <trkpt lat="49.34124" lon="1.13389">
        <ele>76.24798</ele>
        <time>2016-01-05T13:45:00Z</time>
      </trkpt>
      <trkpt lat="49.34125" lon="1.13388">
        <ele>76.24798</ele>
        <time>2016-01-05T13:45:05Z</time>
      </trkpt>
      <trkpt lat="49.34128" lon="1.13387">
        <ele>76.24798</ele>
        <time>2016-01-05T13:45:15Z</time>
      </trkpt>
      <trkpt lat="49.34128" lon="1.13387">
        <ele>76.24798</ele>
        <time>2016-01-05T13:45:20Z</time>
      </trkpt>
      <trkpt lat="49.34127" lon="1.13387">
        <ele>76.24798</ele>
        <time>2016-01-05T13:45:35Z</time>
      </trkpt>
      <trkpt lat="49.34127" lon="1.13387">
        <ele>76.24798</ele>
        <time>2016-01-05T13:45:40Z</time>
      </trkpt>
      <trkpt lat="49.34126" lon="1.13386">
        <ele>77.78855</ele>
        <time>2016-01-05T13:45:50Z</time>
      </trkpt>
      <trkpt lat="49.34126" lon="1.13387">
        <ele>77.78855</ele>
        <time>2016-01-05T13:45:55Z</time>
      </trkpt>
      <trkpt lat="49.34127" lon="1.13388">
        <ele>77.78855</ele>
        <time>2016-01-05T13:46:05Z</time>
      </trkpt>
      <trkpt lat="49.34122" lon="1.13387">
        <ele>77.78855</ele>
        <time>2016-01-05T13:46:10Z</time>
      </trkpt>
      <trkpt lat="49.34122" lon="1.13386">
        <ele>77.78855</ele>
        <time>2016-01-05T13:46:20Z</time>
      </trkpt>
      <trkpt lat="49.34122" lon="1.13385">
        <ele>77.78855</ele>
        <time>2016-01-05T13:46:25Z</time>
      </trkpt>
      <trkpt lat="49.34121" lon="1.13384">
        <ele>78.863815</ele>
        <time>2016-01-05T13:46:35Z</time>
      </trkpt>
      <trkpt lat="49.34119" lon="1.13385">
        <ele>78.863815</ele>
        <time>2016-01-05T13:46:40Z</time>
      </trkpt>
      <trkpt lat="49.34121" lon="1.13383">
        <ele>78.863815</ele>
        <time>2016-01-05T13:46:50Z</time>
      </trkpt>
      <trkpt lat="49.34122" lon="1.13386">
        <ele>78.863815</ele>
        <time>2016-01-05T13:46:55Z</time>
      </trkpt>
      <trkpt lat="49.34121" lon="1.13383">
        <ele>78.863815</ele>
        <time>2016-01-05T13:47:05Z</time>
      </trkpt>
      <trkpt lat="49.3412" lon="1.13383">
        <ele>79.647835</ele>
        <time>2016-01-05T13:47:10Z</time>
      </trkpt>
      <trkpt lat="49.3412" lon="1.13383">
        <ele>79.647835</ele>
        <time>2016-01-05T13:47:20Z</time>
      </trkpt>
      <trkpt lat="49.3412" lon="1.13383">
        <ele>79.647835</ele>
        <time>2016-01-05T13:47:25Z</time>
      </trkpt>
      <trkpt lat="49.34118" lon="1.13385">
        <ele>79.647835</ele>
        <time>2016-01-05T13:47:35Z</time>
      </trkpt>
      <trkpt lat="49.34117" lon="1.13385">
        <ele>79.647835</ele>
        <time>2016-01-05T13:47:40Z</time>
      </trkpt>
      <trkpt lat="49.34119" lon="1.13388">
        <ele>79.647835</ele>
        <time>2016-01-05T13:47:50Z</time>
      </trkpt>
      <trkpt lat="49.34122" lon="1.13387">
        <ele>80.589905</ele>
        <time>2016-01-05T13:47:55Z</time>
      </trkpt>
      <trkpt lat="49.34127" lon="1.13382">
        <ele>80.589905</ele>
        <time>2016-01-05T13:48:05Z</time>
      </trkpt>
      <trkpt lat="49.34126" lon="1.13387">
        <ele>81.247345</ele>
        <time>2016-01-05T13:48:10Z</time>
      </trkpt>
      <trkpt lat="49.34124" lon="1.13386">
        <ele>81.247345</ele>
        <time>2016-01-05T13:48:20Z</time>
      </trkpt>
      <trkpt lat="49.34126" lon="1.13386">
        <ele>81.247345</ele>
        <time>2016-01-05T13:48:25Z</time>
      </trkpt>
      <trkpt lat="49.34126" lon="1.13383">
        <ele>81.247345</ele>
        <time>2016-01-05T13:48:40Z</time>
      </trkpt>
      <trkpt lat="49.34126" lon="1.13384">
        <ele>81.247345</ele>
        <time>2016-01-05T13:48:45Z</time>
      </trkpt>
      <trkpt lat="49.34128" lon="1.13384">
        <ele>81.247345</ele>
        <time>2016-01-05T13:48:55Z</time>
      </trkpt>
      <trkpt lat="49.34129" lon="1.13384">
        <ele>81.247345</ele>
        <time>2016-01-05T13:49:00Z</time>
      </trkpt>
      <trkpt lat="49.34129" lon="1.13385">
        <ele>81.247345</ele>
        <time>2016-01-05T13:49:10Z</time>
      </trkpt>
      <trkpt lat="49.34129" lon="1.13382">
        <ele>81.74353</ele>
        <time>2016-01-05T13:49:15Z</time>
      </trkpt>
      <trkpt lat="49.34128" lon="1.1338">
        <ele>81.74353</ele>
        <time>2016-01-05T13:49:25Z</time>
      </trkpt>
      <trkpt lat="49.34129" lon="1.13383">
        <ele>81.74353</ele>
        <time>2016-01-05T13:49:30Z</time>
      </trkpt>
      <trkpt lat="49.34127" lon="1.13388">
        <ele>81.74353</ele>
        <time>2016-01-05T13:49:40Z</time>
      </trkpt>
      <trkpt lat="49.34126" lon="1.13387">
        <ele>81.74353</ele>
        <time>2016-01-05T13:49:45Z</time>
      </trkpt>
      <trkpt lat="49.34116" lon="1.13386">
        <ele>82.24217</ele>
        <time>2016-01-05T13:49:55Z</time>
      </trkpt>
      <trkpt lat="49.34112" lon="1.13389">
        <ele>82.24217</ele>
        <time>2016-01-05T13:50:00Z</time>
      </trkpt>
      <trkpt lat="49.34104" lon="1.13388">
        <ele>82.73474</ele>
        <time>2016-01-05T13:50:10Z</time>
      </trkpt>
      <trkpt lat="49.34104" lon="1.13389">
        <ele>82.73474</ele>
        <time>2016-01-05T13:50:15Z</time>
      </trkpt>
      <trkpt lat="49.34104" lon="1.13389">
        <ele>82.73474</ele>
        <time>2016-01-05T13:50:30Z</time>
      </trkpt>
      <trkpt lat="49.34101" lon="1.13391">
        <ele>82.73474</ele>
        <time>2016-01-05T13:50:35Z</time>
      </trkpt>
      <trkpt lat="49.34103" lon="1.13394">
        <ele>82.73474</ele>
        <time>2016-01-05T13:50:45Z</time>
      </trkpt>
      <trkpt lat="49.34102" lon="1.13394">
        <ele>82.73474</ele>
        <time>2016-01-05T13:50:50Z</time>
      </trkpt>
      <trkpt lat="49.34093" lon="1.13393">
        <ele>83.4505</ele>
        <time>2016-01-05T13:51:00Z</time>
      </trkpt>
      <trkpt lat="49.34087" lon="1.13393">
        <ele>83.4505</ele>
        <time>2016-01-05T13:51:05Z</time>
      </trkpt>
      <trkpt lat="49.34075" lon="1.13404">
        <ele>84.05091</ele>
        <time>2016-01-05T13:51:15Z</time>
      </trkpt>
      <trkpt lat="49.34071" lon="1.13411">
        <ele>84.05091</ele>
        <time>2016-01-05T13:51:20Z</time>
      </trkpt>
      <trkpt lat="49.34062" lon="1.13425">
        <ele>84.61219</ele>
        <time>2016-01-05T13:51:30Z</time>
      </trkpt>
      <trkpt lat="49.34056" lon="1.13429">
        <ele>84.61219</ele>
        <time>2016-01-05T13:51:35Z</time>
      </trkpt>
      <trkpt lat="49.34044" lon="1.13439">
        <ele>85.03817</ele>
        <time>2016-01-05T13:51:45Z</time>
      </trkpt>
      <trkpt lat="49.34039" lon="1.1344">
        <ele>85.03817</ele>
        <time>2016-01-05T13:51:50Z</time>
      </trkpt>
      <trkpt lat="49.34029" lon="1.13442">
        <ele>85.22592</ele>
        <time>2016-01-05T13:52:00Z</time>
      </trkpt>
      <trkpt lat="49.34022" lon="1.13441">
        <ele>85.22592</ele>
        <time>2016-01-05T13:52:05Z</time>
      </trkpt>
      <trkpt lat="49.34006" lon="1.13442">
        <ele>85.23488</ele>
        <time>2016-01-05T13:52:15Z</time>
      </trkpt>
      <trkpt lat="49.33999" lon="1.13443">
        <ele>85.23488</ele>
        <time>2016-01-05T13:52:20Z</time>
      </trkpt>
      <trkpt lat="49.33999" lon="1.13476">
        <ele>85.23692</ele>
        <time>2016-01-05T13:52:35Z</time>
      </trkpt>
      <trkpt lat="49.33999" lon="1.13484">
        <ele>85.23692</ele>
        <time>2016-01-05T13:52:40Z</time>
      </trkpt>
      <trkpt lat="49.34" lon="1.13506">
        <ele>85.287254</ele>
        <time>2016-01-05T13:52:50Z</time>
      </trkpt>
      <trkpt lat="49.34" lon="1.13518">
        <ele>85.287254</ele>
        <time>2016-01-05T13:52:55Z</time>
      </trkpt>
      <trkpt lat="49.33997" lon="1.13535">
        <ele>85.28796</ele>
        <time>2016-01-05T13:53:05Z</time>
      </trkpt>
      <trkpt lat="49.33994" lon="1.13544">
        <ele>85.28796</ele>
        <time>2016-01-05T13:53:10Z</time>
      </trkpt>
      <trkpt lat="49.33989" lon="1.13562">
        <ele>85.31175</ele>
        <time>2016-01-05T13:53:20Z</time>
      </trkpt>
      <trkpt lat="49.33986" lon="1.13569">
        <ele>85.31175</ele>
        <time>2016-01-05T13:53:25Z</time>
      </trkpt>
      <trkpt lat="49.33979" lon="1.13586">
        <ele>85.358604</ele>
        <time>2016-01-05T13:53:35Z</time>
      </trkpt>
      <trkpt lat="49.33976" lon="1.13595">
        <ele>85.358604</ele>
        <time>2016-01-05T13:53:40Z</time>
      </trkpt>
      <trkpt lat="49.33965" lon="1.1362">
        <ele>85.44315</ele>
        <time>2016-01-05T13:53:55Z</time>
      </trkpt>
      <trkpt lat="49.33963" lon="1.13625">
        <ele>85.44315</ele>
        <time>2016-01-05T13:54:00Z</time>
      </trkpt>
      <trkpt lat="49.33956" lon="1.13641">
        <ele>85.6231</ele>
        <time>2016-01-05T13:54:10Z</time>
      </trkpt>
      <trkpt lat="49.33951" lon="1.13649">
        <ele>85.6231</ele>
        <time>2016-01-05T13:54:15Z</time>
      </trkpt>
      <trkpt lat="49.33944" lon="1.13664">
        <ele>85.87318</ele>
        <time>2016-01-05T13:54:25Z</time>
      </trkpt>
      <trkpt lat="49.33938" lon="1.13673">
        <ele>85.87318</ele>
        <time>2016-01-05T13:54:30Z</time>
      </trkpt>
      <trkpt lat="49.33935" lon="1.13691">
        <ele>86.05282</ele>
        <time>2016-01-05T13:54:40Z</time>
      </trkpt>
      <trkpt lat="49.33932" lon="1.13701">
        <ele>86.05282</ele>
        <time>2016-01-05T13:54:45Z</time>
      </trkpt>
      <trkpt lat="49.33926" lon="1.13719">
        <ele>86.184425</ele>
        <time>2016-01-05T13:54:55Z</time>
      </trkpt>
      <trkpt lat="49.33923" lon="1.13728">
        <ele>86.184425</ele>
        <time>2016-01-05T13:55:00Z</time>
      </trkpt>
      <trkpt lat="49.33916" lon="1.13748">
        <ele>86.24434</ele>
        <time>2016-01-05T13:55:10Z</time>
      </trkpt>
      <trkpt lat="49.33914" lon="1.13756">
        <ele>86.24434</ele>
        <time>2016-01-05T13:55:15Z</time>
      </trkpt>
      <trkpt lat="49.33909" lon="1.13776">
        <ele>86.18285</ele>
        <time>2016-01-05T13:55:25Z</time>
      </trkpt>
      <trkpt lat="49.33905" lon="1.13784">
        <ele>86.18285</ele>
        <time>2016-01-05T13:55:30Z</time>
      </trkpt>
      <trkpt lat="49.33899" lon="1.13804">
        <ele>86.03984</ele>
        <time>2016-01-05T13:55:40Z</time>
      </trkpt>
      <trkpt lat="49.33899" lon="1.13805">
        <ele>86.03984</ele>
        <time>2016-01-05T13:55:45Z</time>
      </trkpt>
      <trkpt lat="49.33896" lon="1.13814">
        <ele>86.03984</ele>
        <time>2016-01-05T13:56:00Z</time>
      </trkpt>
      <trkpt lat="49.33896" lon="1.13816">
        <ele>86.03984</ele>
        <time>2016-01-05T13:56:05Z</time>
      </trkpt>
      <trkpt lat="49.33897" lon="1.13814">
        <ele>85.87873</ele>
        <time>2016-01-05T13:56:15Z</time>
      </trkpt>
      <trkpt lat="49.33896" lon="1.13812">
        <ele>85.87873</ele>
        <time>2016-01-05T13:56:20Z</time>
      </trkpt>
      <trkpt lat="49.33897" lon="1.13812">
        <ele>85.87873</ele>
        <time>2016-01-05T13:56:30Z</time>
      </trkpt>
      <trkpt lat="49.33898" lon="1.13812">
        <ele>85.87873</ele>
        <time>2016-01-05T13:56:35Z</time>
      </trkpt>
      <trkpt lat="49.33899" lon="1.13811">
        <ele>85.87873</ele>
        <time>2016-01-05T13:56:45Z</time>
      </trkpt>
      <trkpt lat="49.33898" lon="1.13812">
        <ele>85.87873</ele>
        <time>2016-01-05T13:56:50Z</time>
      </trkpt>
      <trkpt lat="49.33896" lon="1.13817">
        <ele>85.50572</ele>
        <time>2016-01-05T13:57:00Z</time>
      </trkpt>
      <trkpt lat="49.33893" lon="1.13823">
        <ele>85.50572</ele>
        <time>2016-01-05T13:57:05Z</time>
      </trkpt>
      <trkpt lat="49.3389" lon="1.13839">
        <ele>85.06317</ele>
        <time>2016-01-05T13:57:15Z</time>
      </trkpt>
      <trkpt lat="49.33889" lon="1.13848">
        <ele>85.06317</ele>
        <time>2016-01-05T13:57:20Z</time>
      </trkpt>
      <trkpt lat="49.33881" lon="1.13875">
        <ele>84.653625</ele>
        <time>2016-01-05T13:57:35Z</time>
      </trkpt>
      <trkpt lat="49.33881" lon="1.13883">
        <ele>84.653625</ele>
        <time>2016-01-05T13:57:40Z</time>
      </trkpt>
      <trkpt lat="49.33876" lon="1.139">
        <ele>84.26107</ele>
        <time>2016-01-05T13:57:50Z</time>
      </trkpt>
      <trkpt lat="49.33874" lon="1.13909">
        <ele>84.26107</ele>
        <time>2016-01-05T13:57:55Z</time>
      </trkpt>
      <trkpt lat="49.33873" lon="1.13927">
        <ele>83.81535</ele>
        <time>2016-01-05T13:58:05Z</time>
      </trkpt>
      <trkpt lat="49.33872" lon="1.13938">
        <ele>83.81535</ele>
        <time>2016-01-05T13:58:10Z</time>
      </trkpt>
      <trkpt lat="49.33869" lon="1.13955">
        <ele>83.34874</ele>
        <time>2016-01-05T13:58:20Z</time>
      </trkpt>
      <trkpt lat="49.33868" lon="1.13965">
        <ele>83.34874</ele>
        <time>2016-01-05T13:58:25Z</time>
      </trkpt>
      <trkpt lat="49.33865" lon="1.13983">
        <ele>82.919815</ele>
        <time>2016-01-05T13:58:35Z</time>
      </trkpt>
      <trkpt lat="49.33864" lon="1.13989">
        <ele>82.919815</ele>
        <time>2016-01-05T13:58:40Z</time>
      </trkpt>
      <trkpt lat="49.33862" lon="1.14005">
        <ele>82.54188</ele>
        <time>2016-01-05T13:58:50Z</time>
      </trkpt>
      <trkpt lat="49.3386" lon="1.14014">
        <ele>82.54188</ele>
        <time>2016-01-05T13:58:55Z</time>
      </trkpt>
      <trkpt lat="49.33857" lon="1.14035">
        <ele>82.36953</ele>
        <time>2016-01-05T13:59:05Z</time>
      </trkpt>
      <trkpt lat="49.33856" lon="1.14045">
        <ele>82.36953</ele>
        <time>2016-01-05T13:59:10Z</time>
      </trkpt>
      <trkpt lat="49.33854" lon="1.14064">
        <ele>82.24952</ele>
        <time>2016-01-05T13:59:20Z</time>
      </trkpt>
      <trkpt lat="49.33855" lon="1.1407">
        <ele>82.24952</ele>
        <time>2016-01-05T13:59:25Z</time>
      </trkpt>
      <trkpt lat="49.33853" lon="1.14091">
        <ele>82.23738</ele>
        <time>2016-01-05T13:59:35Z</time>
      </trkpt>
      <trkpt lat="49.33853" lon="1.14099">
        <ele>82.23738</ele>
        <time>2016-01-05T13:59:40Z</time>
      </trkpt>
      <trkpt lat="49.33847" lon="1.14127">
        <ele>82.41444</ele>
        <time>2016-01-05T13:59:55Z</time>
      </trkpt>
      <trkpt lat="49.33847" lon="1.14137">
        <ele>82.41444</ele>
        <time>2016-01-05T14:00:00Z</time>
      </trkpt>
      <trkpt lat="49.33845" lon="1.14154">
        <ele>82.63853</ele>
        <time>2016-01-05T14:00:10Z</time>
      </trkpt>
      <trkpt lat="49.33844" lon="1.14162">
        <ele>82.63853</ele>
        <time>2016-01-05T14:00:15Z</time>
      </trkpt>
      <trkpt lat="49.33842" lon="1.14182">
        <ele>82.818344</ele>
        <time>2016-01-05T14:00:25Z</time>
      </trkpt>
      <trkpt lat="49.33841" lon="1.14191">
        <ele>82.818344</ele>
        <time>2016-01-05T14:00:30Z</time>
      </trkpt>
      <trkpt lat="49.33837" lon="1.14208">
        <ele>82.86754</ele>
        <time>2016-01-05T14:00:40Z</time>
      </trkpt>
      <trkpt lat="49.33836" lon="1.14216">
        <ele>82.86754</ele>
        <time>2016-01-05T14:00:45Z</time>
      </trkpt>
      <trkpt lat="49.33833" lon="1.14234">
        <ele>82.957275</ele>
        <time>2016-01-05T14:00:55Z</time>
      </trkpt>
      <trkpt lat="49.33832" lon="1.14244">
        <ele>82.957275</ele>
        <time>2016-01-05T14:01:00Z</time>
      </trkpt>
      <trkpt lat="49.3383" lon="1.14261">
        <ele>82.96566</ele>
        <time>2016-01-05T14:01:10Z</time>
      </trkpt>
      <trkpt lat="49.33829" lon="1.1427">
        <ele>82.96566</ele>
        <time>2016-01-05T14:01:15Z</time>
      </trkpt>
      <trkpt lat="49.33826" lon="1.14289">
        <ele>83.00288</ele>
        <time>2016-01-05T14:01:25Z</time>
      </trkpt>
      <trkpt lat="49.33824" lon="1.14297">
        <ele>83.00288</ele>
        <time>2016-01-05T14:01:30Z</time>
      </trkpt>
      <trkpt lat="49.33823" lon="1.14316">
        <ele>83.067024</ele>
        <time>2016-01-05T14:01:40Z</time>
      </trkpt>
      <trkpt lat="49.33822" lon="1.14324">
        <ele>83.067024</ele>
        <time>2016-01-05T14:01:45Z</time>
      </trkpt>
      <trkpt lat="49.33819" lon="1.14341">
        <ele>83.2464</ele>
        <time>2016-01-05T14:01:55Z</time>
      </trkpt>
      <trkpt lat="49.33817" lon="1.14351">
        <ele>83.2464</ele>
        <time>2016-01-05T14:02:00Z</time>
      </trkpt>
      <trkpt lat="49.33816" lon="1.14371">
        <ele>83.4719</ele>
        <time>2016-01-05T14:02:10Z</time>
      </trkpt>
      <trkpt lat="49.33815" lon="1.14378">
        <ele>83.4719</ele>
        <time>2016-01-05T14:02:15Z</time>
      </trkpt>
      <trkpt lat="49.33813" lon="1.14396">
        <ele>83.69409</ele>
        <time>2016-01-05T14:02:25Z</time>
      </trkpt>
      <trkpt lat="49.3381" lon="1.14406">
        <ele>83.69409</ele>
        <time>2016-01-05T14:02:30Z</time>
      </trkpt>
      <trkpt lat="49.33805" lon="1.14422">
        <ele>83.867165</ele>
        <time>2016-01-05T14:02:40Z</time>
      </trkpt>
      <trkpt lat="49.33803" lon="1.14429">
        <ele>83.867165</ele>
        <time>2016-01-05T14:02:45Z</time>
      </trkpt>
      <trkpt lat="49.33798" lon="1.14453">
        <ele>84.08491</ele>
        <time>2016-01-05T14:03:00Z</time>
      </trkpt>
      <trkpt lat="49.33795" lon="1.14462">
        <ele>84.08491</ele>
        <time>2016-01-05T14:03:05Z</time>
      </trkpt>
      <trkpt lat="49.33797" lon="1.14464">
        <ele>84.08491</ele>
        <time>2016-01-05T14:03:15Z</time>
      </trkpt>
      <trkpt lat="49.33797" lon="1.14463">
        <ele>84.207405</ele>
        <time>2016-01-05T14:03:20Z</time>
      </trkpt>
      <trkpt lat="49.33798" lon="1.14465">
        <ele>84.207405</ele>
        <time>2016-01-05T14:03:30Z</time>
      </trkpt>
      <trkpt lat="49.33797" lon="1.14464">
        <ele>84.207405</ele>
        <time>2016-01-05T14:03:35Z</time>
      </trkpt>
      <trkpt lat="49.33797" lon="1.14465">
        <ele>84.207405</ele>
        <time>2016-01-05T14:03:45Z</time>
      </trkpt>
      <trkpt lat="49.33798" lon="1.14465">
        <ele>84.207405</ele>
        <time>2016-01-05T14:03:50Z</time>
      </trkpt>
      <trkpt lat="49.33798" lon="1.14465">
        <ele>84.207405</ele>
        <time>2016-01-05T14:04:00Z</time>
      </trkpt>
      <trkpt lat="49.33798" lon="1.14465">
        <ele>84.207405</ele>
        <time>2016-01-05T14:04:05Z</time>
      </trkpt>
      <trkpt lat="49.33798" lon="1.14468">
        <ele>84.207405</ele>
        <time>2016-01-05T14:04:15Z</time>
      </trkpt>
      <trkpt lat="49.33798" lon="1.14467">
        <ele>84.207405</ele>
        <time>2016-01-05T14:04:20Z</time>
      </trkpt>
      <trkpt lat="49.33798" lon="1.14466">
        <ele>84.207405</ele>
        <time>2016-01-05T14:04:30Z</time>
      </trkpt>
      <trkpt lat="49.33798" lon="1.14467">
        <ele>84.207405</ele>
        <time>2016-01-05T14:04:35Z</time>
      </trkpt>
      <trkpt lat="49.33799" lon="1.14464">
        <ele>84.121284</ele>
        <time>2016-01-05T14:04:45Z</time>
      </trkpt>
      <trkpt lat="49.33798" lon="1.14463">
        <ele>84.121284</ele>
        <time>2016-01-05T14:04:50Z</time>
      </trkpt>
      <trkpt lat="49.33797" lon="1.14464">
        <ele>84.121284</ele>
        <time>2016-01-05T14:05:00Z</time>
      </trkpt>
      <trkpt lat="49.33797" lon="1.14464">
        <ele>84.121284</ele>
        <time>2016-01-05T14:05:05Z</time>
      </trkpt>
      <trkpt lat="49.33798" lon="1.14467">
        <ele>84.121284</ele>
        <time>2016-01-05T14:05:20Z</time>
      </trkpt>
      <trkpt lat="49.33798" lon="1.14466">
        <ele>84.121284</ele>
        <time>2016-01-05T14:05:25Z</time>
      </trkpt>
      <trkpt lat="49.33796" lon="1.14465">
        <ele>84.121284</ele>
        <time>2016-01-05T14:05:35Z</time>
      </trkpt>
      <trkpt lat="49.33796" lon="1.14465">
        <ele>84.121284</ele>
        <time>2016-01-05T14:05:40Z</time>
      </trkpt>
      <trkpt lat="49.33795" lon="1.14465">
        <ele>84.121284</ele>
        <time>2016-01-05T14:05:50Z</time>
      </trkpt>
      <trkpt lat="49.33796" lon="1.14467">
        <ele>83.979095</ele>
        <time>2016-01-05T14:05:55Z</time>
      </trkpt>
      <trkpt lat="49.33794" lon="1.14469">
        <ele>83.979095</ele>
        <time>2016-01-05T14:06:05Z</time>
      </trkpt>
      <trkpt lat="49.33795" lon="1.14473">
        <ele>83.979095</ele>
        <time>2016-01-05T14:06:10Z</time>
      </trkpt>
      <trkpt lat="49.33792" lon="1.14482">
        <ele>83.83111</ele>
        <time>2016-01-05T14:06:20Z</time>
      </trkpt>
      <trkpt lat="49.33791" lon="1.14487">
        <ele>83.83111</ele>
        <time>2016-01-05T14:06:25Z</time>
      </trkpt>
      <trkpt lat="49.33789" lon="1.14496">
        <ele>83.69342</ele>
        <time>2016-01-05T14:06:35Z</time>
      </trkpt>
      <trkpt lat="49.33787" lon="1.145">
        <ele>83.69342</ele>
        <time>2016-01-05T14:06:40Z</time>
      </trkpt>
      <trkpt lat="49.33786" lon="1.14513">
        <ele>83.6855</ele>
        <time>2016-01-05T14:06:50Z</time>
      </trkpt>
      <trkpt lat="49.33785" lon="1.1452">
        <ele>83.6855</ele>
        <time>2016-01-05T14:06:55Z</time>
      </trkpt>
      <trkpt lat="49.33782" lon="1.14529">
        <ele>83.66253</ele>
        <time>2016-01-05T14:07:05Z</time>
      </trkpt>
      <trkpt lat="49.33781" lon="1.14535">
        <ele>83.66253</ele>
        <time>2016-01-05T14:07:10Z</time>
      </trkpt>
      <trkpt lat="49.3378" lon="1.14545">
        <ele>83.61102</ele>
        <time>2016-01-05T14:07:20Z</time>
      </trkpt>
      <trkpt lat="49.33779" lon="1.1455">
        <ele>83.61102</ele>
        <time>2016-01-05T14:07:25Z</time>
      </trkpt>
      <trkpt lat="49.33776" lon="1.14562">
        <ele>83.59301</ele>
        <time>2016-01-05T14:07:35Z</time>
      </trkpt>
      <trkpt lat="49.33776" lon="1.14568">
        <ele>83.59301</ele>
        <time>2016-01-05T14:07:40Z</time>
      </trkpt>
      <trkpt lat="49.33773" lon="1.14586">
        <ele>83.50216</ele>
        <time>2016-01-05T14:07:55Z</time>
      </trkpt>
      <trkpt lat="49.33772" lon="1.1459">
        <ele>83.50216</ele>
        <time>2016-01-05T14:08:00Z</time>
      </trkpt>
      <trkpt lat="49.33771" lon="1.14602">
        <ele>83.433464</ele>
        <time>2016-01-05T14:08:10Z</time>
      </trkpt>
      <trkpt lat="49.3377" lon="1.14609">
        <ele>83.433464</ele>
        <time>2016-01-05T14:08:15Z</time>
      </trkpt>
      <trkpt lat="49.33769" lon="1.14623">
        <ele>83.34115</ele>
        <time>2016-01-05T14:08:25Z</time>
      </trkpt>
      <trkpt lat="49.33767" lon="1.14628">
        <ele>83.34115</ele>
        <time>2016-01-05T14:08:30Z</time>
      </trkpt>
      <trkpt lat="49.33765" lon="1.14642">
        <ele>83.22746</ele>
        <time>2016-01-05T14:08:40Z</time>
      </trkpt>
      <trkpt lat="49.33765" lon="1.1465">
        <ele>83.22746</ele>
        <time>2016-01-05T14:08:45Z</time>
      </trkpt>
      <trkpt lat="49.33763" lon="1.14664">
        <ele>83.07981</ele>
        <time>2016-01-05T14:08:55Z</time>
      </trkpt>
      <trkpt lat="49.33762" lon="1.14672">
        <ele>83.07981</ele>
        <time>2016-01-05T14:09:00Z</time>
      </trkpt>
      <trkpt lat="49.33761" lon="1.14688">
        <ele>82.85742</ele>
        <time>2016-01-05T14:09:10Z</time>
      </trkpt>
      <trkpt lat="49.3376" lon="1.14695">
        <ele>82.85742</ele>
        <time>2016-01-05T14:09:15Z</time>
      </trkpt>
      <trkpt lat="49.3376" lon="1.14711">
        <ele>82.56689</ele>
        <time>2016-01-05T14:09:25Z</time>
      </trkpt>
      <trkpt lat="49.33759" lon="1.1472">
        <ele>82.56689</ele>
        <time>2016-01-05T14:09:30Z</time>
      </trkpt>
      <trkpt lat="49.33758" lon="1.14736">
        <ele>82.22898</ele>
        <time>2016-01-05T14:09:40Z</time>
      </trkpt>
      <trkpt lat="49.33758" lon="1.14742">
        <ele>82.22898</ele>
        <time>2016-01-05T14:09:45Z</time>
      </trkpt>
      <trkpt lat="49.33759" lon="1.14771">
        <ele>81.83375</ele>
        <time>2016-01-05T14:10:00Z</time>
      </trkpt>
      <trkpt lat="49.33758" lon="1.14778">
        <ele>81.83375</ele>
        <time>2016-01-05T14:10:05Z</time>
      </trkpt>
      <trkpt lat="49.33759" lon="1.14797">
        <ele>81.40125</ele>
        <time>2016-01-05T14:10:15Z</time>
      </trkpt>
      <trkpt lat="49.3376" lon="1.14805">
        <ele>81.40125</ele>
        <time>2016-01-05T14:10:20Z</time>
      </trkpt>
      <trkpt lat="49.33759" lon="1.14823">
        <ele>80.87739</ele>
        <time>2016-01-05T14:10:30Z</time>
      </trkpt>
      <trkpt lat="49.33759" lon="1.14832">
        <ele>80.87739</ele>
        <time>2016-01-05T14:10:35Z</time>
      </trkpt>
      <trkpt lat="49.3376" lon="1.1485">
        <ele>80.37208</ele>
        <time>2016-01-05T14:10:45Z</time>
      </trkpt>
      <trkpt lat="49.3376" lon="1.14857">
        <ele>80.37208</ele>
        <time>2016-01-05T14:10:50Z</time>
      </trkpt>
      <trkpt lat="49.33761" lon="1.14875">
        <ele>79.812706</ele>
        <time>2016-01-05T14:11:00Z</time>
      </trkpt>
      <trkpt lat="49.33761" lon="1.1488">
        <ele>79.812706</ele>
        <time>2016-01-05T14:11:05Z</time>
      </trkpt>
      <trkpt lat="49.33761" lon="1.14902">
        <ele>79.30611</ele>
        <time>2016-01-05T14:11:15Z</time>
      </trkpt>
      <trkpt lat="49.33762" lon="1.14912">
        <ele>79.30611</ele>
        <time>2016-01-05T14:11:20Z</time>
      </trkpt>
      <trkpt lat="49.33763" lon="1.14927">
        <ele>78.71936</ele>
        <time>2016-01-05T14:11:30Z</time>
      </trkpt>
      <trkpt lat="49.33764" lon="1.14936">
        <ele>78.71936</ele>
        <time>2016-01-05T14:11:35Z</time>
      </trkpt>
      <trkpt lat="49.33765" lon="1.14962">
        <ele>77.944336</ele>
        <time>2016-01-05T14:11:50Z</time>
      </trkpt>
      <trkpt lat="49.33764" lon="1.14971">
        <ele>77.944336</ele>
        <time>2016-01-05T14:11:55Z</time>
      </trkpt>
      <trkpt lat="49.33765" lon="1.14987">
        <ele>77.12709</ele>
        <time>2016-01-05T14:12:05Z</time>
      </trkpt>
      <trkpt lat="49.33765" lon="1.14996">
        <ele>77.12709</ele>
        <time>2016-01-05T14:12:10Z</time>
      </trkpt>
      <trkpt lat="49.33766" lon="1.15013">
        <ele>76.316086</ele>
        <time>2016-01-05T14:12:20Z</time>
      </trkpt>
      <trkpt lat="49.33767" lon="1.15023">
        <ele>76.316086</ele>
        <time>2016-01-05T14:12:25Z</time>
      </trkpt>
      <trkpt lat="49.33768" lon="1.15041">
        <ele>75.48394</ele>
        <time>2016-01-05T14:12:35Z</time>
      </trkpt>
      <trkpt lat="49.33768" lon="1.1505">
        <ele>75.48394</ele>
        <time>2016-01-05T14:12:40Z</time>
      </trkpt>
      <trkpt lat="49.33769" lon="1.15068">
        <ele>74.54766</ele>
        <time>2016-01-05T14:12:50Z</time>
      </trkpt>
      <trkpt lat="49.33769" lon="1.15077">
        <ele>74.54766</ele>
        <time>2016-01-05T14:12:55Z</time>
      </trkpt>
      <trkpt lat="49.33771" lon="1.15104">
        <ele>73.488365</ele>
        <time>2016-01-05T14:13:10Z</time>
      </trkpt>
      <trkpt lat="49.33771" lon="1.15111">
        <ele>73.488365</ele>
        <time>2016-01-05T14:13:15Z</time>
      </trkpt>
      <trkpt lat="49.33772" lon="1.1513">
        <ele>72.41862</ele>
        <time>2016-01-05T14:13:25Z</time>
      </trkpt>
      <trkpt lat="49.33773" lon="1.15139">
        <ele>72.41862</ele>
        <time>2016-01-05T14:13:30Z</time>
      </trkpt>
      <trkpt lat="49.33772" lon="1.15157">
        <ele>71.298454</ele>
        <time>2016-01-05T14:13:40Z</time>
      </trkpt>
      <trkpt lat="49.33772" lon="1.15166">
        <ele>71.298454</ele>
        <time>2016-01-05T14:13:45Z</time>
      </trkpt>
      <trkpt lat="49.3377" lon="1.15181">
        <ele>70.292816</ele>
        <time>2016-01-05T14:13:55Z</time>
      </trkpt>
      <trkpt lat="49.33771" lon="1.15191">
        <ele>70.292816</ele>
        <time>2016-01-05T14:14:00Z</time>
      </trkpt>
      <trkpt lat="49.33771" lon="1.15205">
        <ele>69.29459</ele>
        <time>2016-01-05T14:14:10Z</time>
      </trkpt>
      <trkpt lat="49.33772" lon="1.15205">
        <ele>69.29459</ele>
        <time>2016-01-05T14:14:15Z</time>
      </trkpt>
      <trkpt lat="49.33773" lon="1.15206">
        <ele>69.29459</ele>
        <time>2016-01-05T14:14:25Z</time>
      </trkpt>
      <trkpt lat="49.33772" lon="1.15205">
        <ele>69.29459</ele>
        <time>2016-01-05T14:14:30Z</time>
      </trkpt>
      <trkpt lat="49.33775" lon="1.15219">
        <ele>68.305435</ele>
        <time>2016-01-05T14:14:40Z</time>
      </trkpt>
      <trkpt lat="49.33778" lon="1.15224">
        <ele>68.305435</ele>
        <time>2016-01-05T14:14:45Z</time>
      </trkpt>
      <trkpt lat="49.33778" lon="1.15237">
        <ele>67.31234</ele>
        <time>2016-01-05T14:14:55Z</time>
      </trkpt>
      <trkpt lat="49.33778" lon="1.15242">
        <ele>67.31234</ele>
        <time>2016-01-05T14:15:00Z</time>
      </trkpt>
      <trkpt lat="49.3378" lon="1.15259">
        <ele>66.28881</ele>
        <time>2016-01-05T14:15:10Z</time>
      </trkpt>
      <trkpt lat="49.33781" lon="1.15265">
        <ele>66.28881</ele>
        <time>2016-01-05T14:15:15Z</time>
      </trkpt>
      <trkpt lat="49.33783" lon="1.15289">
        <ele>65.23915</ele>
        <time>2016-01-05T14:15:30Z</time>
      </trkpt>
      <trkpt lat="49.33785" lon="1.15295">
        <ele>65.23915</ele>
        <time>2016-01-05T14:15:35Z</time>
      </trkpt>
      <trkpt lat="49.33784" lon="1.15313">
        <ele>64.25387</ele>
        <time>2016-01-05T14:15:45Z</time>
      </trkpt>
      <trkpt lat="49.33785" lon="1.15322">
        <ele>64.25387</ele>
        <time>2016-01-05T14:15:50Z</time>
      </trkpt>
      <trkpt lat="49.33787" lon="1.15338">
        <ele>63.31565</ele>
        <time>2016-01-05T14:16:00Z</time>
      </trkpt>
      <trkpt lat="49.33788" lon="1.15346">
        <ele>63.31565</ele>
        <time>2016-01-05T14:16:05Z</time>
      </trkpt>
      <trkpt lat="49.33787" lon="1.15361">
        <ele>62.4515</ele>
        <time>2016-01-05T14:16:15Z</time>
      </trkpt>
      <trkpt lat="49.33788" lon="1.1537">
        <ele>62.4515</ele>
        <time>2016-01-05T14:16:20Z</time>
      </trkpt>
      <trkpt lat="49.33788" lon="1.15387">
        <ele>61.642914</ele>
        <time>2016-01-05T14:16:30Z</time>
      </trkpt>
      <trkpt lat="49.33789" lon="1.15395">
        <ele>61.642914</ele>
        <time>2016-01-05T14:16:35Z</time>
      </trkpt>
      <trkpt lat="49.33789" lon="1.15413">
        <ele>60.88692</ele>
        <time>2016-01-05T14:16:45Z</time>
      </trkpt>
      <trkpt lat="49.3379" lon="1.1542">
        <ele>60.88692</ele>
        <time>2016-01-05T14:16:50Z</time>
      </trkpt>
      <trkpt lat="49.3379" lon="1.15437">
        <ele>60.151726</ele>
        <time>2016-01-05T14:17:00Z</time>
      </trkpt>
      <trkpt lat="49.33791" lon="1.15445">
        <ele>60.151726</ele>
        <time>2016-01-05T14:17:05Z</time>
      </trkpt>
      <trkpt lat="49.33792" lon="1.15463">
        <ele>59.321182</ele>
        <time>2016-01-05T14:17:15Z</time>
      </trkpt>
      <trkpt lat="49.33792" lon="1.15473">
        <ele>59.321182</ele>
        <time>2016-01-05T14:17:20Z</time>
      </trkpt>
      <trkpt lat="49.33793" lon="1.15487">
        <ele>58.547527</ele>
        <time>2016-01-05T14:17:30Z</time>
      </trkpt>
      <trkpt lat="49.33793" lon="1.15496">
        <ele>58.547527</ele>
        <time>2016-01-05T14:17:35Z</time>
      </trkpt>
      <trkpt lat="49.33792" lon="1.15523">
        <ele>57.798496</ele>
        <time>2016-01-05T14:17:50Z</time>
      </trkpt>
      <trkpt lat="49.33793" lon="1.15529">
        <ele>57.798496</ele>
        <time>2016-01-05T14:17:55Z</time>
      </trkpt>
      <trkpt lat="49.33793" lon="1.15546">
        <ele>57.044067</ele>
        <time>2016-01-05T14:18:05Z</time>
      </trkpt>
      <trkpt lat="49.33793" lon="1.15556">
        <ele>57.044067</ele>
        <time>2016-01-05T14:18:10Z</time>
      </trkpt>
      <trkpt lat="49.33793" lon="1.15574">
        <ele>56.31409</ele>
        <time>2016-01-05T14:18:20Z</time>
      </trkpt>
      <trkpt lat="49.33793" lon="1.15579">
        <ele>56.31409</ele>
        <time>2016-01-05T14:18:25Z</time>
      </trkpt>
      <trkpt lat="49.33792" lon="1.15595">
        <ele>55.621666</ele>
        <time>2016-01-05T14:18:35Z</time>
      </trkpt>
      <trkpt lat="49.33791" lon="1.15603">
        <ele>55.621666</ele>
        <time>2016-01-05T14:18:40Z</time>
      </trkpt>
      <trkpt lat="49.3379" lon="1.15623">
        <ele>55.00762</ele>
        <time>2016-01-05T14:18:50Z</time>
      </trkpt>
      <trkpt lat="49.3379" lon="1.15632">
        <ele>55.00762</ele>
        <time>2016-01-05T14:18:55Z</time>
      </trkpt>
      <trkpt lat="49.33789" lon="1.15647">
        <ele>54.46625</ele>
        <time>2016-01-05T14:19:05Z</time>
      </trkpt>
      <trkpt lat="49.33788" lon="1.15655">
        <ele>54.46625</ele>
        <time>2016-01-05T14:19:10Z</time>
      </trkpt>
      <trkpt lat="49.33786" lon="1.15673">
        <ele>54.165077</ele>
        <time>2016-01-05T14:19:20Z</time>
      </trkpt>
      <trkpt lat="49.33787" lon="1.15683">
        <ele>54.165077</ele>
        <time>2016-01-05T14:19:25Z</time>
      </trkpt>
      <trkpt lat="49.33789" lon="1.15697">
        <ele>53.840343</ele>
        <time>2016-01-05T14:19:35Z</time>
      </trkpt>
      <trkpt lat="49.3379" lon="1.15706">
        <ele>53.840343</ele>
        <time>2016-01-05T14:19:40Z</time>
      </trkpt>
      <trkpt lat="49.33792" lon="1.15724">
        <ele>53.507336</ele>
        <time>2016-01-05T14:19:50Z</time>
      </trkpt>
      <trkpt lat="49.33796" lon="1.1573">
        <ele>53.507336</ele>
        <time>2016-01-05T14:19:55Z</time>
      </trkpt>
      <trkpt lat="49.33805" lon="1.15737">
        <ele>53.266735</ele>
        <time>2016-01-05T14:20:10Z</time>
      </trkpt>
      <trkpt lat="49.33811" lon="1.15742">
        <ele>53.266735</ele>
        <time>2016-01-05T14:20:15Z</time>
      </trkpt>
      <trkpt lat="49.33819" lon="1.1575">
        <ele>53.35571</ele>
        <time>2016-01-05T14:20:25Z</time>
      </trkpt>
      <trkpt lat="49.33822" lon="1.15752">
        <ele>53.35571</ele>
        <time>2016-01-05T14:20:30Z</time>
      </trkpt>
      <trkpt lat="49.33831" lon="1.15758">
        <ele>53.733482</ele>
        <time>2016-01-05T14:20:40Z</time>
      </trkpt>
      <trkpt lat="49.33835" lon="1.15762">
        <ele>53.733482</ele>
        <time>2016-01-05T14:20:45Z</time>
      </trkpt>
      <trkpt lat="49.33843" lon="1.15771">
        <ele>54.303783</ele>
        <time>2016-01-05T14:20:55Z</time>
      </trkpt>
      <trkpt lat="49.33846" lon="1.15775">
        <ele>54.303783</ele>
        <time>2016-01-05T14:21:00Z</time>
      </trkpt>
      <trkpt lat="49.33849" lon="1.15791">
        <ele>54.688557</ele>
        <time>2016-01-05T14:21:10Z</time>
      </trkpt>
      <trkpt lat="49.33852" lon="1.15796">
        <ele>54.688557</ele>
        <time>2016-01-05T14:21:15Z</time>
      </trkpt>
      <trkpt lat="49.33861" lon="1.15807">
        <ele>54.941788</ele>
        <time>2016-01-05T14:21:25Z</time>
      </trkpt>
      <trkpt lat="49.33865" lon="1.15813">
        <ele>54.941788</ele>
        <time>2016-01-05T14:21:30Z</time>
      </trkpt>
      <trkpt lat="49.33866" lon="1.15828">
        <ele>55.37336</ele>
        <time>2016-01-05T14:21:40Z</time>
      </trkpt>
      <trkpt lat="49.33865" lon="1.15837">
        <ele>55.37336</ele>
        <time>2016-01-05T14:21:45Z</time>
      </trkpt>
      <trkpt lat="49.33865" lon="1.15853">
        <ele>56.06804</ele>
        <time>2016-01-05T14:21:55Z</time>
      </trkpt>
      <trkpt lat="49.33866" lon="1.1586">
        <ele>56.06804</ele>
        <time>2016-01-05T14:22:00Z</time>
      </trkpt>
      <trkpt lat="49.33869" lon="1.15882">
        <ele>56.815357</ele>
        <time>2016-01-05T14:22:15Z</time>
      </trkpt>
      <trkpt lat="49.33871" lon="1.15889">
        <ele>56.815357</ele>
        <time>2016-01-05T14:22:20Z</time>
      </trkpt>
      <trkpt lat="49.33876" lon="1.15901">
        <ele>57.2761</ele>
        <time>2016-01-05T14:22:30Z</time>
      </trkpt>
      <trkpt lat="49.3388" lon="1.15908">
        <ele>57.2761</ele>
        <time>2016-01-05T14:22:35Z</time>
      </trkpt>
      <trkpt lat="49.33887" lon="1.15923">
        <ele>57.48278</ele>
        <time>2016-01-05T14:22:45Z</time>
      </trkpt>
      <trkpt lat="49.33891" lon="1.15927">
        <ele>57.48278</ele>
        <time>2016-01-05T14:22:50Z</time>
      </trkpt>
      <trkpt lat="49.339" lon="1.15939">
        <ele>57.75456</ele>
        <time>2016-01-05T14:23:00Z</time>
      </trkpt>
      <trkpt lat="49.33905" lon="1.15942">
        <ele>57.75456</ele>
        <time>2016-01-05T14:23:05Z</time>
      </trkpt>
      <trkpt lat="49.33916" lon="1.15949">
        <ele>58.11313</ele>
        <time>2016-01-05T14:23:15Z</time>
      </trkpt>
      <trkpt lat="49.33922" lon="1.15952">
        <ele>58.11313</ele>
        <time>2016-01-05T14:23:20Z</time>
      </trkpt>
      <trkpt lat="49.33929" lon="1.15958">
        <ele>58.448704</ele>
        <time>2016-01-05T14:23:30Z</time>
      </trkpt>
      <trkpt lat="49.33935" lon="1.15961">
        <ele>58.448704</ele>
        <time>2016-01-05T14:23:35Z</time>
      </trkpt>
      <trkpt lat="49.33947" lon="1.15968">
        <ele>58.84705</ele>
        <time>2016-01-05T14:23:45Z</time>
      </trkpt>
      <trkpt lat="49.33952" lon="1.15971">
        <ele>58.84705</ele>
        <time>2016-01-05T14:23:50Z</time>
      </trkpt>
      <trkpt lat="49.3396" lon="1.15978">
        <ele>59.329872</ele>
        <time>2016-01-05T14:24:00Z</time>
      </trkpt>
      <trkpt lat="49.33964" lon="1.15982">
        <ele>59.329872</ele>
        <time>2016-01-05T14:24:05Z</time>
      </trkpt>
      <trkpt lat="49.33976" lon="1.15992">
        <ele>59.83063</ele>
        <time>2016-01-05T14:24:15Z</time>
      </trkpt>
      <trkpt lat="49.33981" lon="1.15996">
        <ele>59.83063</ele>
        <time>2016-01-05T14:24:20Z</time>
      </trkpt>
      <trkpt lat="49.33995" lon="1.16005">
        <ele>60.44624</ele>
        <time>2016-01-05T14:24:35Z</time>
      </trkpt>
      <trkpt lat="49.34" lon="1.16009">
        <ele>60.44624</ele>
        <time>2016-01-05T14:24:40Z</time>
      </trkpt>
      <trkpt lat="49.34007" lon="1.16014">
        <ele>61.006824</ele>
        <time>2016-01-05T14:24:50Z</time>
      </trkpt>
      <trkpt lat="49.34013" lon="1.16016">
        <ele>61.006824</ele>
        <time>2016-01-05T14:24:55Z</time>
      </trkpt>
      <trkpt lat="49.34021" lon="1.16023">
        <ele>61.816395</ele>
        <time>2016-01-05T14:25:05Z</time>
      </trkpt>
      <trkpt lat="49.34026" lon="1.16027">
        <ele>61.816395</ele>
        <time>2016-01-05T14:25:10Z</time>
      </trkpt>
      <trkpt lat="49.34034" lon="1.16035">
        <ele>62.824535</ele>
        <time>2016-01-05T14:25:20Z</time>
      </trkpt>
      <trkpt lat="49.34041" lon="1.1604">
        <ele>62.824535</ele>
        <time>2016-01-05T14:25:25Z</time>
      </trkpt>
      <trkpt lat="49.34051" lon="1.16054">
        <ele>63.88319</ele>
        <time>2016-01-05T14:25:35Z</time>
      </trkpt>
      <trkpt lat="49.34055" lon="1.16057">
        <ele>63.88319</ele>
        <time>2016-01-05T14:25:40Z</time>
      </trkpt>
      <trkpt lat="49.34063" lon="1.16066">
        <ele>64.984825</ele>
        <time>2016-01-05T14:25:50Z</time>
      </trkpt>
      <trkpt lat="49.34067" lon="1.16069">
        <ele>64.984825</ele>
        <time>2016-01-05T14:25:55Z</time>
      </trkpt>
      <trkpt lat="49.34077" lon="1.16078">
        <ele>66.07921</ele>
        <time>2016-01-05T14:26:05Z</time>
      </trkpt>
      <trkpt lat="49.34082" lon="1.16083">
        <ele>66.07921</ele>
        <time>2016-01-05T14:26:10Z</time>
      </trkpt>
      <trkpt lat="49.34091" lon="1.16092">
        <ele>67.03343</ele>
        <time>2016-01-05T14:26:20Z</time>
      </trkpt>
      <trkpt lat="49.34097" lon="1.16099">
        <ele>67.03343</ele>
        <time>2016-01-05T14:26:25Z</time>
      </trkpt>
      <trkpt lat="49.34109" lon="1.16107">
        <ele>67.82572</ele>
        <time>2016-01-05T14:26:35Z</time>
      </trkpt>
      <trkpt lat="49.34113" lon="1.1611">
        <ele>67.82572</ele>
        <time>2016-01-05T14:26:40Z</time>
      </trkpt>
      <trkpt lat="49.34126" lon="1.1612">
        <ele>68.37884</ele>
        <time>2016-01-05T14:26:50Z</time>
      </trkpt>
      <trkpt lat="49.34131" lon="1.16124">
        <ele>68.37884</ele>
        <time>2016-01-05T14:26:55Z</time>
      </trkpt>
      <trkpt lat="49.34145" lon="1.16135">
        <ele>68.881355</ele>
        <time>2016-01-05T14:27:10Z</time>
      </trkpt>
      <trkpt lat="49.34149" lon="1.1614">
        <ele>68.881355</ele>
        <time>2016-01-05T14:27:15Z</time>
      </trkpt>
      <trkpt lat="49.34158" lon="1.1615">
        <ele>69.4218</ele>
        <time>2016-01-05T14:27:25Z</time>
      </trkpt>
      <trkpt lat="49.34162" lon="1.16155">
        <ele>69.4218</ele>
        <time>2016-01-05T14:27:30Z</time>
      </trkpt>
      <trkpt lat="49.34172" lon="1.16165">
        <ele>69.866</ele>
        <time>2016-01-05T14:27:40Z</time>
      </trkpt>
      <trkpt lat="49.34176" lon="1.16171">
        <ele>69.866</ele>
        <time>2016-01-05T14:27:45Z</time>
      </trkpt>
      <trkpt lat="49.34185" lon="1.16181">
        <ele>70.320595</ele>
        <time>2016-01-05T14:27:55Z</time>
      </trkpt>
      <trkpt lat="49.3419" lon="1.16187">
        <ele>70.320595</ele>
        <time>2016-01-05T14:28:00Z</time>
      </trkpt>
      <trkpt lat="49.34198" lon="1.16199">
        <ele>70.79799</ele>
        <time>2016-01-05T14:28:10Z</time>
      </trkpt>
      <trkpt lat="49.34201" lon="1.16205">
        <ele>70.79799</ele>
        <time>2016-01-05T14:28:15Z</time>
      </trkpt>
      <trkpt lat="49.34209" lon="1.16217">
        <ele>71.30969</ele>
        <time>2016-01-05T14:28:25Z</time>
      </trkpt>
      <trkpt lat="49.34213" lon="1.16223">
        <ele>71.30969</ele>
        <time>2016-01-05T14:28:30Z</time>
      </trkpt>
      <trkpt lat="49.34221" lon="1.16235">
        <ele>71.79431</ele>
        <time>2016-01-05T14:28:40Z</time>
      </trkpt>
      <trkpt lat="49.34224" lon="1.16242">
        <ele>71.79431</ele>
        <time>2016-01-05T14:28:45Z</time>
      </trkpt>
      <trkpt lat="49.34232" lon="1.16254">
        <ele>72.33923</ele>
        <time>2016-01-05T14:28:55Z</time>
      </trkpt>
      <trkpt lat="49.34237" lon="1.16261">
        <ele>72.33923</ele>
        <time>2016-01-05T14:29:00Z</time>
      </trkpt>
      <trkpt lat="49.34249" lon="1.16279">
        <ele>72.98209</ele>
        <time>2016-01-05T14:29:15Z</time>
      </trkpt>
      <trkpt lat="49.34252" lon="1.16287">
        <ele>72.98209</ele>
        <time>2016-01-05T14:29:20Z</time>
      </trkpt>
      <trkpt lat="49.34261" lon="1.16298">
        <ele>73.58465</ele>
        <time>2016-01-05T14:29:30Z</time>
      </trkpt>
      <trkpt lat="49.34266" lon="1.16305">
        <ele>73.58465</ele>
        <time>2016-01-05T14:29:35Z</time>
      </trkpt>
      <trkpt lat="49.34273" lon="1.16317">
        <ele>74.20633</ele>
        <time>2016-01-05T14:29:45Z</time>
      </trkpt>
      <trkpt lat="49.34278" lon="1.16323">
        <ele>74.20633</ele>
        <time>2016-01-05T14:29:50Z</time>
      </trkpt>
      <trkpt lat="49.34285" lon="1.16334">
        <ele>74.85899</ele>
        <time>2016-01-05T14:30:00Z</time>
      </trkpt>
      <trkpt lat="49.3429" lon="1.16342">
        <ele>74.85899</ele>
        <time>2016-01-05T14:30:05Z</time>
      </trkpt>
      <trkpt lat="49.34298" lon="1.16354">
        <ele>75.62568</ele>
        <time>2016-01-05T14:30:15Z</time>
      </trkpt>
      <trkpt lat="49.34302" lon="1.16362">
        <ele>75.62568</ele>
        <time>2016-01-05T14:30:20Z</time>
      </trkpt>
      <trkpt lat="49.34311" lon="1.16371">
        <ele>76.323654</ele>
        <time>2016-01-05T14:30:30Z</time>
      </trkpt>
      <trkpt lat="49.34316" lon="1.16378">
        <ele>76.323654</ele>
        <time>2016-01-05T14:30:35Z</time>
      </trkpt>
      <trkpt lat="49.34324" lon="1.16391">
        <ele>76.91359</ele>
        <time>2016-01-05T14:30:45Z</time>
      </trkpt>
      <trkpt lat="49.34327" lon="1.16397">
        <ele>76.91359</ele>
        <time>2016-01-05T14:30:50Z</time>
      </trkpt>
      <trkpt lat="49.34335" lon="1.1641">
        <ele>77.63321</ele>
        <time>2016-01-05T14:31:00Z</time>
      </trkpt>
      <trkpt lat="49.3434" lon="1.16415">
        <ele>77.63321</ele>
        <time>2016-01-05T14:31:05Z</time>
      </trkpt>
      <trkpt lat="49.34349" lon="1.16428">
        <ele>78.313385</ele>
        <time>2016-01-05T14:31:15Z</time>
      </trkpt>
      <trkpt lat="49.34352" lon="1.16432">
        <ele>78.313385</ele>
        <time>2016-01-05T14:31:20Z</time>
      </trkpt>
      <trkpt lat="49.34351" lon="1.16441">
        <ele>78.941696</ele>
        <time>2016-01-05T14:31:30Z</time>
      </trkpt>
      <trkpt lat="49.34348" lon="1.16442">
        <ele>78.941696</ele>
        <time>2016-01-05T14:31:35Z</time>
      </trkpt>
      <trkpt lat="49.3435" lon="1.16461">
        <ele>79.66536</ele>
        <time>2016-01-05T14:31:50Z</time>
      </trkpt>
      <trkpt lat="49.34351" lon="1.16469">
        <ele>79.66536</ele>
        <time>2016-01-05T14:31:55Z</time>
      </trkpt>
      <trkpt lat="49.34357" lon="1.16484">
        <ele>80.50529</ele>
        <time>2016-01-05T14:32:05Z</time>
      </trkpt>
      <trkpt lat="49.34359" lon="1.1649">
        <ele>80.50529</ele>
        <time>2016-01-05T14:32:10Z</time>
      </trkpt>
      <trkpt lat="49.34365" lon="1.16502">
        <ele>81.264404</ele>
        <time>2016-01-05T14:32:20Z</time>
      </trkpt>
      <trkpt lat="49.34369" lon="1.16509">
        <ele>81.264404</ele>
        <time>2016-01-05T14:32:25Z</time>
      </trkpt>
      <trkpt lat="49.34376" lon="1.16522">
        <ele>82.2504</ele>
        <time>2016-01-05T14:32:35Z</time>
      </trkpt>
      <trkpt lat="49.34378" lon="1.16529">
        <ele>82.2504</ele>
        <time>2016-01-05T14:32:40Z</time>
      </trkpt>
      <trkpt lat="49.34383" lon="1.16543">
        <ele>83.3154</ele>
        <time>2016-01-05T14:32:50Z</time>
      </trkpt>
      <trkpt lat="49.34384" lon="1.16549">
        <ele>83.3154</ele>
        <time>2016-01-05T14:32:55Z</time>
      </trkpt>
      <trkpt lat="49.34391" lon="1.16563">
        <ele>84.55286</ele>
        <time>2016-01-05T14:33:05Z</time>
      </trkpt>
      <trkpt lat="49.34392" lon="1.1657">
        <ele>84.55286</ele>
        <time>2016-01-05T14:33:10Z</time>
      </trkpt>
      <trkpt lat="49.34395" lon="1.16582">
        <ele>85.65978</ele>
        <time>2016-01-05T14:33:20Z</time>
      </trkpt>
      <trkpt lat="49.34398" lon="1.16588">
        <ele>85.65978</ele>
        <time>2016-01-05T14:33:25Z</time>
      </trkpt>
      <trkpt lat="49.34405" lon="1.16595">
        <ele>86.917946</ele>
        <time>2016-01-05T14:33:35Z</time>
      </trkpt>
      <trkpt lat="49.34407" lon="1.16603">
        <ele>86.917946</ele>
        <time>2016-01-05T14:33:40Z</time>
      </trkpt>
      <trkpt lat="49.34411" lon="1.166">
        <ele>88.357445</ele>
        <time>2016-01-05T14:33:55Z</time>
      </trkpt>
      <trkpt lat="49.34412" lon="1.16597">
        <ele>88.357445</ele>
        <time>2016-01-05T14:34:00Z</time>
      </trkpt>
      <trkpt lat="49.34411" lon="1.16598">
        <ele>88.357445</ele>
        <time>2016-01-05T14:34:10Z</time>
      </trkpt>
      <trkpt lat="49.34411" lon="1.16599">
        <ele>88.357445</ele>
        <time>2016-01-05T14:34:15Z</time>
      </trkpt>
      <trkpt lat="49.34416" lon="1.16602">
        <ele>88.357445</ele>
        <time>2016-01-05T14:34:25Z</time>
      </trkpt>
      <trkpt lat="49.34416" lon="1.16604">
        <ele>89.77515</ele>
        <time>2016-01-05T14:34:30Z</time>
      </trkpt>
      <trkpt lat="49.34414" lon="1.16601">
        <ele>89.77515</ele>
        <time>2016-01-05T14:34:40Z</time>
      </trkpt>
      <trkpt lat="49.34415" lon="1.16603">
        <ele>89.77515</ele>
        <time>2016-01-05T14:34:45Z</time>
      </trkpt>
      <trkpt lat="49.34415" lon="1.166">
        <ele>89.77515</ele>
        <time>2016-01-05T14:34:55Z</time>
      </trkpt>
      <trkpt lat="49.34413" lon="1.16598">
        <ele>89.77515</ele>
        <time>2016-01-05T14:35:00Z</time>
      </trkpt>
      <trkpt lat="49.34409" lon="1.16593">
        <ele>91.602646</ele>
        <time>2016-01-05T14:35:10Z</time>
      </trkpt>
      <trkpt lat="49.34408" lon="1.1659">
        <ele>91.602646</ele>
        <time>2016-01-05T14:35:15Z</time>
      </trkpt>
      <trkpt lat="49.34405" lon="1.16597">
        <ele>91.602646</ele>
        <time>2016-01-05T14:35:25Z</time>
      </trkpt>
      <trkpt lat="49.34407" lon="1.16597">
        <ele>93.15792</ele>
        <time>2016-01-05T14:35:30Z</time>
      </trkpt>
      <trkpt lat="49.34407" lon="1.16596">
        <ele>93.15792</ele>
        <time>2016-01-05T14:35:40Z</time>
      </trkpt>
      <trkpt lat="49.34409" lon="1.16601">
        <ele>93.15792</ele>
        <time>2016-01-05T14:35:45Z</time>
      </trkpt>
      <trkpt lat="49.34416" lon="1.16604">
        <ele>94.38631</ele>
        <time>2016-01-05T14:35:55Z</time>
      </trkpt>
      <trkpt lat="49.3442" lon="1.16604">
        <ele>94.38631</ele>
        <time>2016-01-05T14:36:00Z</time>
      </trkpt>
      <trkpt lat="49.34423" lon="1.16601">
        <ele>94.38631</ele>
        <time>2016-01-05T14:36:10Z</time>
      </trkpt>
      <trkpt lat="49.34421" lon="1.16601">
        <ele>95.5408</ele>
        <time>2016-01-05T14:36:15Z</time>
      </trkpt>
      <trkpt lat="49.34418" lon="1.16601">
        <ele>95.5408</ele>
        <time>2016-01-05T14:36:25Z</time>
      </trkpt>
      <trkpt lat="49.34415" lon="1.16605">
        <ele>95.5408</ele>
        <time>2016-01-05T14:36:30Z</time>
      </trkpt>
      <trkpt lat="49.34414" lon="1.16606">
        <ele>95.5408</ele>
        <time>2016-01-05T14:36:45Z</time>
      </trkpt>
      <trkpt lat="49.34414" lon="1.16605">
        <ele>95.5408</ele>
        <time>2016-01-05T14:36:50Z</time>
      </trkpt>
      <trkpt lat="49.3441" lon="1.16605">
        <ele>96.55345</ele>
        <time>2016-01-05T14:37:00Z</time>
      </trkpt>
      <trkpt lat="49.34409" lon="1.16604">
        <ele>96.55345</ele>
        <time>2016-01-05T14:37:05Z</time>
      </trkpt>
      <trkpt lat="49.3441" lon="1.16605">
        <ele>96.55345</ele>
        <time>2016-01-05T14:37:15Z</time>
      </trkpt>
      <trkpt lat="49.34412" lon="1.16605">
        <ele>96.55345</ele>
        <time>2016-01-05T14:37:20Z</time>
      </trkpt>
      <trkpt lat="49.34413" lon="1.16606">
        <ele>96.55345</ele>
        <time>2016-01-05T14:37:30Z</time>
      </trkpt>
      <trkpt lat="49.34414" lon="1.16605">
        <ele>96.55345</ele>
        <time>2016-01-05T14:37:35Z</time>
      </trkpt>
      <trkpt lat="49.34414" lon="1.16613">
        <ele>97.34734</ele>
        <time>2016-01-05T14:37:45Z</time>
      </trkpt>
      <trkpt lat="49.34413" lon="1.1662">
        <ele>97.34734</ele>
        <time>2016-01-05T14:37:50Z</time>
      </trkpt>
      <trkpt lat="49.34412" lon="1.16637">
        <ele>97.851906</ele>
        <time>2016-01-05T14:38:00Z</time>
      </trkpt>
      <trkpt lat="49.34413" lon="1.16647">
        <ele>97.851906</ele>
        <time>2016-01-05T14:38:05Z</time>
      </trkpt>
      <trkpt lat="49.34412" lon="1.16658">
        <ele>98.175545</ele>
        <time>2016-01-05T14:38:15Z</time>
      </trkpt>
      <trkpt lat="49.34413" lon="1.16668">
        <ele>98.175545</ele>
        <time>2016-01-05T14:38:20Z</time>
      </trkpt>
      <trkpt lat="49.34415" lon="1.16694">
        <ele>98.23195</ele>
        <time>2016-01-05T14:38:35Z</time>
      </trkpt>
      <trkpt lat="49.34417" lon="1.16704">
        <ele>98.23195</ele>
        <time>2016-01-05T14:38:40Z</time>
      </trkpt>
      <trkpt lat="49.3442" lon="1.16716">
        <ele>98.30218</ele>
        <time>2016-01-05T14:38:50Z</time>
      </trkpt>
      <trkpt lat="49.34421" lon="1.16725">
        <ele>98.30218</ele>
        <time>2016-01-05T14:38:55Z</time>
      </trkpt>
      <trkpt lat="49.34426" lon="1.16739">
        <ele>98.329636</ele>
        <time>2016-01-05T14:39:05Z</time>
      </trkpt>
      <trkpt lat="49.34429" lon="1.16745">
        <ele>98.329636</ele>
        <time>2016-01-05T14:39:10Z</time>
      </trkpt>
      <trkpt lat="49.34432" lon="1.16763">
        <ele>98.406136</ele>
        <time>2016-01-05T14:39:20Z</time>
      </trkpt>
      <trkpt lat="49.34433" lon="1.16773">
        <ele>98.406136</ele>
        <time>2016-01-05T14:39:25Z</time>
      </trkpt>
      <trkpt lat="49.34438" lon="1.16786">
        <ele>98.51575</ele>
        <time>2016-01-05T14:39:35Z</time>
      </trkpt>
      <trkpt lat="49.3444" lon="1.16793">
        <ele>98.51575</ele>
        <time>2016-01-05T14:39:40Z</time>
      </trkpt>
      <trkpt lat="49.34444" lon="1.16811">
        <ele>98.64362</ele>
        <time>2016-01-05T14:39:50Z</time>
      </trkpt>
      <trkpt lat="49.34446" lon="1.16823">
        <ele>98.64362</ele>
        <time>2016-01-05T14:39:55Z</time>
      </trkpt>
      <trkpt lat="49.34451" lon="1.16836">
        <ele>98.99214</ele>
        <time>2016-01-05T14:40:05Z</time>
      </trkpt>
      <trkpt lat="49.34452" lon="1.16841">
        <ele>98.99214</ele>
        <time>2016-01-05T14:40:10Z</time>
      </trkpt>
      <trkpt lat="49.34454" lon="1.16857">
        <ele>99.47438</ele>
        <time>2016-01-05T14:40:20Z</time>
      </trkpt>
      <trkpt lat="49.34459" lon="1.16866">
        <ele>99.47438</ele>
        <time>2016-01-05T14:40:25Z</time>
      </trkpt>
      <trkpt lat="49.34471" lon="1.16876">
        <ele>100.15354</ele>
        <time>2016-01-05T14:40:40Z</time>
      </trkpt>
      <trkpt lat="49.34475" lon="1.16879">
        <ele>100.15354</ele>
        <time>2016-01-05T14:40:45Z</time>
      </trkpt>
      <trkpt lat="49.34485" lon="1.16885">
        <ele>100.90026</ele>
        <time>2016-01-05T14:40:55Z</time>
      </trkpt>
      <trkpt lat="49.34492" lon="1.16887">
        <ele>100.90026</ele>
        <time>2016-01-05T14:41:00Z</time>
      </trkpt>
      <trkpt lat="49.34499" lon="1.16889">
        <ele>101.95479</ele>
        <time>2016-01-05T14:41:10Z</time>
      </trkpt>
      <trkpt lat="49.34503" lon="1.16888">
        <ele>101.95479</ele>
        <time>2016-01-05T14:41:15Z</time>
      </trkpt>
      <trkpt lat="49.34513" lon="1.16884">
        <ele>103.17855</ele>
        <time>2016-01-05T14:41:25Z</time>
      </trkpt>
      <trkpt lat="49.34517" lon="1.16881">
        <ele>103.17855</ele>
        <time>2016-01-05T14:41:30Z</time>
      </trkpt>
      <trkpt lat="49.34526" lon="1.16875">
        <ele>104.428276</ele>
        <time>2016-01-05T14:41:40Z</time>
      </trkpt>
      <trkpt lat="49.3453" lon="1.16864">
        <ele>104.428276</ele>
        <time>2016-01-05T14:41:45Z</time>
      </trkpt>
      <trkpt lat="49.34542" lon="1.16853">
        <ele>105.80172</ele>
        <time>2016-01-05T14:41:55Z</time>
      </trkpt>
      <trkpt lat="49.34544" lon="1.16851">
        <ele>105.80172</ele>
        <time>2016-01-05T14:42:00Z</time>
      </trkpt>
      <trkpt lat="49.3455" lon="1.1685">
        <ele>105.80172</ele>
        <time>2016-01-05T14:42:10Z</time>
      </trkpt>
      <trkpt lat="49.34555" lon="1.1685">
        <ele>107.389114</ele>
        <time>2016-01-05T14:42:15Z</time>
      </trkpt>
      <trkpt lat="49.34569" lon="1.16853">
        <ele>109.01407</ele>
        <time>2016-01-05T14:42:30Z</time>
      </trkpt>
      <trkpt lat="49.34573" lon="1.16852">
        <ele>109.01407</ele>
        <time>2016-01-05T14:42:35Z</time>
      </trkpt>
      <trkpt lat="49.34588" lon="1.16858">
        <ele>110.642746</ele>
        <time>2016-01-05T14:42:45Z</time>
      </trkpt>
      <trkpt lat="49.34592" lon="1.16859">
        <ele>110.642746</ele>
        <time>2016-01-05T14:42:50Z</time>
      </trkpt>
      <trkpt lat="49.34601" lon="1.16861">
        <ele>112.027664</ele>
        <time>2016-01-05T14:43:00Z</time>
      </trkpt>
      <trkpt lat="49.34606" lon="1.16859">
        <ele>112.027664</ele>
        <time>2016-01-05T14:43:05Z</time>
      </trkpt>
      <trkpt lat="49.34617" lon="1.16852">
        <ele>113.38694</ele>
        <time>2016-01-05T14:43:15Z</time>
      </trkpt>
      <trkpt lat="49.34622" lon="1.16844">
        <ele>113.38694</ele>
        <time>2016-01-05T14:43:20Z</time>
      </trkpt>
      <trkpt lat="49.34629" lon="1.16838">
        <ele>114.620155</ele>
        <time>2016-01-05T14:43:30Z</time>
      </trkpt>
      <trkpt lat="49.34633" lon="1.16836">
        <ele>114.620155</ele>
        <time>2016-01-05T14:43:35Z</time>
      </trkpt>
      <trkpt lat="49.34636" lon="1.1683">
        <ele>114.620155</ele>
        <time>2016-01-05T14:43:45Z</time>
      </trkpt>
      <trkpt lat="49.34637" lon="1.16831">
        <ele>115.74992</ele>
        <time>2016-01-05T14:43:50Z</time>
      </trkpt>
      <trkpt lat="49.34637" lon="1.16829">
        <ele>115.74992</ele>
        <time>2016-01-05T14:44:00Z</time>
      </trkpt>
      <trkpt lat="49.34638" lon="1.16829">
        <ele>115.74992</ele>
        <time>2016-01-05T14:44:05Z</time>
      </trkpt>
      <trkpt lat="49.34636" lon="1.16809">
        <ele>116.639</ele>
        <time>2016-01-05T14:44:20Z</time>
      </trkpt>
      <trkpt lat="49.34635" lon="1.16807">
        <ele>116.639</ele>
        <time>2016-01-05T14:44:25Z</time>
      </trkpt>
      <trkpt lat="49.34638" lon="1.16805">
        <ele>116.639</ele>
        <time>2016-01-05T14:44:35Z</time>
      </trkpt>
      <trkpt lat="49.3464" lon="1.16802">
        <ele>116.639</ele>
        <time>2016-01-05T14:44:40Z</time>
      </trkpt>
      <trkpt lat="49.34642" lon="1.16797">
        <ele>117.405914</ele>
        <time>2016-01-05T14:44:50Z</time>
      </trkpt>
      <trkpt lat="49.34643" lon="1.16792">
        <ele>117.405914</ele>
        <time>2016-01-05T14:44:55Z</time>
      </trkpt>
      <trkpt lat="49.34645" lon="1.16785">
        <ele>117.405914</ele>
        <time>2016-01-05T14:45:05Z</time>
      </trkpt>
      <trkpt lat="49.34648" lon="1.16781">
        <ele>117.685295</ele>
        <time>2016-01-05T14:45:10Z</time>
      </trkpt>
      <trkpt lat="49.34653" lon="1.16778">
        <ele>117.685295</ele>
        <time>2016-01-05T14:45:20Z</time>
      </trkpt>
      <trkpt lat="49.34655" lon="1.16777">
        <ele>117.685295</ele>
        <time>2016-01-05T14:45:25Z</time>
      </trkpt>
      <trkpt lat="49.34661" lon="1.16775">
        <ele>117.51468</ele>
        <time>2016-01-05T14:45:35Z</time>
      </trkpt>
      <trkpt lat="49.34663" lon="1.16775">
        <ele>117.51468</ele>
        <time>2016-01-05T14:45:40Z</time>
      </trkpt>
      <trkpt lat="49.34662" lon="1.16781">
        <ele>117.51468</ele>
        <time>2016-01-05T14:45:55Z</time>
      </trkpt>
      <trkpt lat="49.3466" lon="1.16763">
        <ele>117.05983</ele>
        <time>2016-01-05T14:46:00Z</time>
      </trkpt>
      <trkpt lat="49.34664" lon="1.16745">
        <ele>116.345436</ele>
        <time>2016-01-05T14:46:10Z</time>
      </trkpt>
      <trkpt lat="49.34664" lon="1.16738">
        <ele>116.345436</ele>
        <time>2016-01-05T14:46:15Z</time>
      </trkpt>
      <trkpt lat="49.34666" lon="1.16726">
        <ele>115.58244</ele>
        <time>2016-01-05T14:46:25Z</time>
      </trkpt>
      <trkpt lat="49.34667" lon="1.16719">
        <ele>115.58244</ele>
        <time>2016-01-05T14:46:30Z</time>
      </trkpt>
      <trkpt lat="49.3467" lon="1.16701">
        <ele>114.620544</ele>
        <time>2016-01-05T14:46:40Z</time>
      </trkpt>
      <trkpt lat="49.34671" lon="1.16693">
        <ele>114.620544</ele>
        <time>2016-01-05T14:46:45Z</time>
      </trkpt>
      <trkpt lat="49.34674" lon="1.1668">
        <ele>113.63804</ele>
        <time>2016-01-05T14:46:55Z</time>
      </trkpt>
      <trkpt lat="49.34677" lon="1.16668">
        <ele>113.63804</ele>
        <time>2016-01-05T14:47:00Z</time>
      </trkpt>
      <trkpt lat="49.34679" lon="1.16655">
        <ele>112.82899</ele>
        <time>2016-01-05T14:47:10Z</time>
      </trkpt>
      <trkpt lat="49.34679" lon="1.1665">
        <ele>112.82899</ele>
        <time>2016-01-05T14:47:15Z</time>
      </trkpt>
      <trkpt lat="49.34684" lon="1.16633">
        <ele>111.767365</ele>
        <time>2016-01-05T14:47:25Z</time>
      </trkpt>
      <trkpt lat="49.34686" lon="1.16633">
        <ele>111.767365</ele>
        <time>2016-01-05T14:47:30Z</time>
      </trkpt>
      <trkpt lat="49.34693" lon="1.16635">
        <ele>111.767365</ele>
        <time>2016-01-05T14:47:40Z</time>
      </trkpt>
      <trkpt lat="49.34692" lon="1.1664">
        <ele>110.159966</ele>
        <time>2016-01-05T14:47:45Z</time>
      </trkpt>
      <trkpt lat="49.34701" lon="1.16654">
        <ele>108.21214</ele>
        <time>2016-01-05T14:48:00Z</time>
      </trkpt>
      <trkpt lat="49.34706" lon="1.16657">
        <ele>108.21214</ele>
        <time>2016-01-05T14:48:05Z</time>
      </trkpt>
      <trkpt lat="49.34706" lon="1.16664">
        <ele>106.24473</ele>
        <time>2016-01-05T14:48:15Z</time>
      </trkpt>
      <trkpt lat="49.34708" lon="1.16674">
        <ele>106.24473</ele>
        <time>2016-01-05T14:48:20Z</time>
      </trkpt>
      <trkpt lat="49.34718" lon="1.16684">
        <ele>104.309944</ele>
        <time>2016-01-05T14:48:30Z</time>
      </trkpt>
      <trkpt lat="49.34722" lon="1.16682">
        <ele>104.309944</ele>
        <time>2016-01-05T14:48:35Z</time>
      </trkpt>
      <trkpt lat="49.34724" lon="1.16664">
        <ele>102.51361</ele>
        <time>2016-01-05T14:48:45Z</time>
      </trkpt>
      <trkpt lat="49.34726" lon="1.16654">
        <ele>102.51361</ele>
        <time>2016-01-05T14:48:50Z</time>
      </trkpt>
      <trkpt lat="49.34726" lon="1.16639">
        <ele>100.7803</ele>
        <time>2016-01-05T14:49:00Z</time>
      </trkpt>
      <trkpt lat="49.34726" lon="1.1663">
        <ele>100.7803</ele>
        <time>2016-01-05T14:49:05Z</time>
      </trkpt>
      <trkpt lat="49.34728" lon="1.16613">
        <ele>99.09747</ele>
        <time>2016-01-05T14:49:15Z</time>
      </trkpt>
      <trkpt lat="49.34728" lon="1.16606">
        <ele>99.09747</ele>
        <time>2016-01-05T14:49:20Z</time>
      </trkpt>
      <trkpt lat="49.3473" lon="1.1659">
        <ele>97.36674</ele>
        <time>2016-01-05T14:49:30Z</time>
      </trkpt>
      <trkpt lat="49.3473" lon="1.16582">
        <ele>97.36674</ele>
        <time>2016-01-05T14:49:35Z</time>
      </trkpt>
      <trkpt lat="49.34731" lon="1.16564">
        <ele>95.6266</ele>
        <time>2016-01-05T14:49:45Z</time>
      </trkpt>
      <trkpt lat="49.34734" lon="1.16555">
        <ele>95.6266</ele>
        <time>2016-01-05T14:49:50Z</time>
      </trkpt>
      <trkpt lat="49.34743" lon="1.1653">
        <ele>93.84056</ele>
        <time>2016-01-05T14:50:05Z</time>
      </trkpt>
      <trkpt lat="49.34746" lon="1.16523">
        <ele>93.84056</ele>
        <time>2016-01-05T14:50:10Z</time>
      </trkpt>
      <trkpt lat="49.34754" lon="1.16512">
        <ele>92.061195</ele>
        <time>2016-01-05T14:50:20Z</time>
      </trkpt>
      <trkpt lat="49.34756" lon="1.16505">
        <ele>92.061195</ele>
        <time>2016-01-05T14:50:25Z</time>
      </trkpt>
      <trkpt lat="49.34763" lon="1.16496">
        <ele>90.04883</ele>
        <time>2016-01-05T14:50:35Z</time>
      </trkpt>
      <trkpt lat="49.34765" lon="1.16491">
        <ele>90.04883</ele>
        <time>2016-01-05T14:50:40Z</time>
      </trkpt>
      <trkpt lat="49.34775" lon="1.1648">
        <ele>88.0574</ele>
        <time>2016-01-05T14:50:50Z</time>
      </trkpt>
      <trkpt lat="49.34779" lon="1.16472">
        <ele>88.0574</ele>
        <time>2016-01-05T14:50:55Z</time>
      </trkpt>
      <trkpt lat="49.34787" lon="1.16461">
        <ele>86.235504</ele>
        <time>2016-01-05T14:51:05Z</time>
      </trkpt>
      <trkpt lat="49.34793" lon="1.16457">
        <ele>86.235504</ele>
        <time>2016-01-05T14:51:10Z</time>
      </trkpt>
      <trkpt lat="49.34804" lon="1.16448">
        <ele>84.67692</ele>
        <time>2016-01-05T14:51:20Z</time>
      </trkpt>
      <trkpt lat="49.3481" lon="1.16443">
        <ele>84.67692</ele>
        <time>2016-01-05T14:51:25Z</time>
      </trkpt>
      <trkpt lat="49.34818" lon="1.16436">
        <ele>83.61171</ele>
        <time>2016-01-05T14:51:35Z</time>
      </trkpt>
      <trkpt lat="49.34824" lon="1.16431">
        <ele>83.61171</ele>
        <time>2016-01-05T14:51:40Z</time>
      </trkpt>
      <trkpt lat="49.34835" lon="1.16429">
        <ele>82.94883</ele>
        <time>2016-01-05T14:51:50Z</time>
      </trkpt>
      <trkpt lat="49.3484" lon="1.16428">
        <ele>82.94883</ele>
        <time>2016-01-05T14:51:55Z</time>
      </trkpt>
      <trkpt lat="49.34859" lon="1.16426">
        <ele>82.61704</ele>
        <time>2016-01-05T14:52:10Z</time>
      </trkpt>
      <trkpt lat="49.34864" lon="1.16425">
        <ele>82.61704</ele>
        <time>2016-01-05T14:52:15Z</time>
      </trkpt>
      <trkpt lat="49.34875" lon="1.16421">
        <ele>82.419525</ele>
        <time>2016-01-05T14:52:25Z</time>
      </trkpt>
      <trkpt lat="49.34881" lon="1.16419">
        <ele>82.419525</ele>
        <time>2016-01-05T14:52:30Z</time>
      </trkpt>
      <trkpt lat="49.34891" lon="1.16411">
        <ele>82.360725</ele>
        <time>2016-01-05T14:52:40Z</time>
      </trkpt>
      <trkpt lat="49.34895" lon="1.16408">
        <ele>82.360725</ele>
        <time>2016-01-05T14:52:45Z</time>
      </trkpt>
      <trkpt lat="49.34904" lon="1.164">
        <ele>82.22805</ele>
        <time>2016-01-05T14:52:55Z</time>
      </trkpt>
      <trkpt lat="49.34906" lon="1.164">
        <ele>82.22805</ele>
        <time>2016-01-05T14:53:00Z</time>
      </trkpt>
      <trkpt lat="49.34913" lon="1.16409">
        <ele>81.93989</ele>
        <time>2016-01-05T14:53:10Z</time>
      </trkpt>
      <trkpt lat="49.34917" lon="1.16411">
        <ele>81.93989</ele>
        <time>2016-01-05T14:53:15Z</time>
      </trkpt>
      <trkpt lat="49.34927" lon="1.16419">
        <ele>81.56504</ele>
        <time>2016-01-05T14:53:25Z</time>
      </trkpt>
      <trkpt lat="49.34932" lon="1.16422">
        <ele>81.56504</ele>
        <time>2016-01-05T14:53:30Z</time>
      </trkpt>
      <trkpt lat="49.34942" lon="1.1643">
        <ele>81.13856</ele>
        <time>2016-01-05T14:53:40Z</time>
      </trkpt>
      <trkpt lat="49.34946" lon="1.16436">
        <ele>81.13856</ele>
        <time>2016-01-05T14:53:45Z</time>
      </trkpt>
      <trkpt lat="49.34954" lon="1.16446">
        <ele>80.779434</ele>
        <time>2016-01-05T14:53:55Z</time>
      </trkpt>
      <trkpt lat="49.34958" lon="1.16452">
        <ele>80.779434</ele>
        <time>2016-01-05T14:54:00Z</time>
      </trkpt>
      <trkpt lat="49.34965" lon="1.16466">
        <ele>80.35263</ele>
        <time>2016-01-05T14:54:10Z</time>
      </trkpt>
      <trkpt lat="49.3497" lon="1.16471">
        <ele>80.35263</ele>
        <time>2016-01-05T14:54:15Z</time>
      </trkpt>
      <trkpt lat="49.34978" lon="1.16481">
        <ele>80.13664</ele>
        <time>2016-01-05T14:54:25Z</time>
      </trkpt>
      <trkpt lat="49.34981" lon="1.16486">
        <ele>80.13664</ele>
        <time>2016-01-05T14:54:30Z</time>
      </trkpt>
      <trkpt lat="49.34987" lon="1.16498">
        <ele>80.04298</ele>
        <time>2016-01-05T14:54:40Z</time>
      </trkpt>
      <trkpt lat="49.34991" lon="1.16504">
        <ele>80.04298</ele>
        <time>2016-01-05T14:54:45Z</time>
      </trkpt>
      <trkpt lat="49.34999" lon="1.16514">
        <ele>79.94599</ele>
        <time>2016-01-05T14:54:55Z</time>
      </trkpt>
      <trkpt lat="49.35001" lon="1.16511">
        <ele>79.94599</ele>
        <time>2016-01-05T14:55:00Z</time>
      </trkpt>
      <trkpt lat="49.35012" lon="1.16508">
        <ele>80.20478</ele>
        <time>2016-01-05T14:55:15Z</time>
      </trkpt>
      <trkpt lat="49.35013" lon="1.16508">
        <ele>80.20478</ele>
        <time>2016-01-05T14:55:20Z</time>
      </trkpt>
      <trkpt lat="49.35024" lon="1.16501">
        <ele>80.71869</ele>
        <time>2016-01-05T14:55:30Z</time>
      </trkpt>
      <trkpt lat="49.35025" lon="1.16502">
        <ele>80.71869</ele>
        <time>2016-01-05T14:55:35Z</time>
      </trkpt>
      <trkpt lat="49.35024" lon="1.16504">
        <ele>80.71869</ele>
        <time>2016-01-05T14:55:45Z</time>
      </trkpt>
      <trkpt lat="49.35024" lon="1.16504">
        <ele>80.71869</ele>
        <time>2016-01-05T14:55:50Z</time>
      </trkpt>
      <trkpt lat="49.35025" lon="1.16503">
        <ele>80.71869</ele>
        <time>2016-01-05T14:56:00Z</time>
      </trkpt>
      <trkpt lat="49.35025" lon="1.16503">
        <ele>80.71869</ele>
        <time>2016-01-05T14:56:05Z</time>
      </trkpt>
      <trkpt lat="49.35033" lon="1.16502">
        <ele>80.96135</ele>
        <time>2016-01-05T14:56:15Z</time>
      </trkpt>
      <trkpt lat="49.35037" lon="1.16503">
        <ele>80.96135</ele>
        <time>2016-01-05T14:56:20Z</time>
      </trkpt>
      <trkpt lat="49.35045" lon="1.16505">
        <ele>81.41135</ele>
        <time>2016-01-05T14:56:30Z</time>
      </trkpt>
      <trkpt lat="49.35051" lon="1.16507">
        <ele>81.41135</ele>
        <time>2016-01-05T14:56:35Z</time>
      </trkpt>
      <trkpt lat="49.35057" lon="1.16512">
        <ele>82.05036</ele>
        <time>2016-01-05T14:56:45Z</time>
      </trkpt>
      <trkpt lat="49.35061" lon="1.16512">
        <ele>82.05036</ele>
        <time>2016-01-05T14:56:50Z</time>
      </trkpt>
      <trkpt lat="49.35072" lon="1.16514">
        <ele>82.83204</ele>
        <time>2016-01-05T14:57:00Z</time>
      </trkpt>
      <trkpt lat="49.35077" lon="1.16513">
        <ele>82.83204</ele>
        <time>2016-01-05T14:57:05Z</time>
      </trkpt>
      <trkpt lat="49.3509" lon="1.16506">
        <ele>83.885994</ele>
        <time>2016-01-05T14:57:15Z</time>
      </trkpt>
      <trkpt lat="49.35093" lon="1.16502">
        <ele>83.885994</ele>
        <time>2016-01-05T14:57:20Z</time>
      </trkpt>
      <trkpt lat="49.35108" lon="1.16491">
        <ele>85.57653</ele>
        <time>2016-01-05T14:57:35Z</time>
      </trkpt>
      <trkpt lat="49.35112" lon="1.16486">
        <ele>85.57653</ele>
        <time>2016-01-05T14:57:40Z</time>
      </trkpt>
      <trkpt lat="49.35121" lon="1.16477">
        <ele>87.64861</ele>
        <time>2016-01-05T14:57:50Z</time>
      </trkpt>
      <trkpt lat="49.35124" lon="1.16476">
        <ele>87.64861</ele>
        <time>2016-01-05T14:57:55Z</time>
      </trkpt>
      <trkpt lat="49.35135" lon="1.16477">
        <ele>89.93695</ele>
        <time>2016-01-05T14:58:05Z</time>
      </trkpt>
      <trkpt lat="49.3514" lon="1.16477">
        <ele>89.93695</ele>
        <time>2016-01-05T14:58:10Z</time>
      </trkpt>
      <trkpt lat="49.3515" lon="1.16478">
        <ele>92.12935</ele>
        <time>2016-01-05T14:58:20Z</time>
      </trkpt>
      <trkpt lat="49.35156" lon="1.16478">
        <ele>92.12935</ele>
        <time>2016-01-05T14:58:25Z</time>
      </trkpt>
      <trkpt lat="49.35168" lon="1.16478">
        <ele>94.21069</ele>
        <time>2016-01-05T14:58:35Z</time>
      </trkpt>
      <trkpt lat="49.35173" lon="1.16479">
        <ele>94.21069</ele>
        <time>2016-01-05T14:58:40Z</time>
      </trkpt>
      <trkpt lat="49.35182" lon="1.1648">
        <ele>96.16741</ele>
        <time>2016-01-05T14:58:50Z</time>
      </trkpt>
      <trkpt lat="49.35189" lon="1.16479">
        <ele>96.16741</ele>
        <time>2016-01-05T14:58:55Z</time>
      </trkpt>
      <trkpt lat="49.352" lon="1.16478">
        <ele>98.03061</ele>
        <time>2016-01-05T14:59:05Z</time>
      </trkpt>
      <trkpt lat="49.35206" lon="1.16477">
        <ele>98.03061</ele>
        <time>2016-01-05T14:59:10Z</time>
      </trkpt>
      <trkpt lat="49.35218" lon="1.16479">
        <ele>99.77186</ele>
        <time>2016-01-05T14:59:20Z</time>
      </trkpt>
      <trkpt lat="49.35224" lon="1.16479">
        <ele>99.77186</ele>
        <time>2016-01-05T14:59:25Z</time>
      </trkpt>
      <trkpt lat="49.3524" lon="1.16479">
        <ele>101.65353</ele>
        <time>2016-01-05T14:59:40Z</time>
      </trkpt>
      <trkpt lat="49.35246" lon="1.1648">
        <ele>101.65353</ele>
        <time>2016-01-05T14:59:45Z</time>
      </trkpt>
      <trkpt lat="49.35259" lon="1.1648">
        <ele>103.543755</ele>
        <time>2016-01-05T14:59:55Z</time>
      </trkpt>
      <trkpt lat="49.35263" lon="1.16479">
        <ele>103.543755</ele>
        <time>2016-01-05T15:00:00Z</time>
      </trkpt>
      <trkpt lat="49.35275" lon="1.16469">
        <ele>105.507866</ele>
        <time>2016-01-05T15:00:10Z</time>
      </trkpt>
      <trkpt lat="49.35281" lon="1.16466">
        <ele>105.507866</ele>
        <time>2016-01-05T15:00:15Z</time>
      </trkpt>
      <trkpt lat="49.35292" lon="1.1646">
        <ele>107.663956</ele>
        <time>2016-01-05T15:00:25Z</time>
      </trkpt>
      <trkpt lat="49.35299" lon="1.16456">
        <ele>107.663956</ele>
        <time>2016-01-05T15:00:30Z</time>
      </trkpt>
      <trkpt lat="49.3531" lon="1.1645">
        <ele>109.71758</ele>
        <time>2016-01-05T15:00:40Z</time>
      </trkpt>
      <trkpt lat="49.35317" lon="1.16446">
        <ele>109.71758</ele>
        <time>2016-01-05T15:00:45Z</time>
      </trkpt>
      <trkpt lat="49.35325" lon="1.1644">
        <ele>111.69903</ele>
        <time>2016-01-05T15:00:55Z</time>
      </trkpt>
      <trkpt lat="49.3533" lon="1.16436">
        <ele>111.69903</ele>
        <time>2016-01-05T15:01:00Z</time>
      </trkpt>
      <trkpt lat="49.35341" lon="1.16429">
        <ele>113.65113</ele>
        <time>2016-01-05T15:01:10Z</time>
      </trkpt>
      <trkpt lat="49.35345" lon="1.16424">
        <ele>113.65113</ele>
        <time>2016-01-05T15:01:15Z</time>
      </trkpt>
      <trkpt lat="49.35349" lon="1.16416">
        <ele>115.340034</ele>
        <time>2016-01-05T15:01:25Z</time>
      </trkpt>
      <trkpt lat="49.35351" lon="1.16407">
        <ele>115.340034</ele>
        <time>2016-01-05T15:01:30Z</time>
      </trkpt>
      <trkpt lat="49.35361" lon="1.16384">
        <ele>116.59323</ele>
        <time>2016-01-05T15:01:45Z</time>
      </trkpt>
      <trkpt lat="49.35365" lon="1.1638">
        <ele>116.59323</ele>
        <time>2016-01-05T15:01:50Z</time>
      </trkpt>
      <trkpt lat="49.35374" lon="1.16366">
        <ele>117.5549</ele>
        <time>2016-01-05T15:02:00Z</time>
      </trkpt>
      <trkpt lat="49.35379" lon="1.16359">
        <ele>117.5549</ele>
        <time>2016-01-05T15:02:05Z</time>
      </trkpt>
      <trkpt lat="49.35385" lon="1.16354">
        <ele>118.12907</ele>
        <time>2016-01-05T15:02:15Z</time>
      </trkpt>
      <trkpt lat="49.35389" lon="1.16351">
        <ele>118.12907</ele>
        <time>2016-01-05T15:02:20Z</time>
      </trkpt>
      <trkpt lat="49.35398" lon="1.16347">
        <ele>118.314514</ele>
        <time>2016-01-05T15:02:30Z</time>
      </trkpt>
      <trkpt lat="49.35408" lon="1.16342">
        <ele>118.41401</ele>
        <time>2016-01-05T15:02:35Z</time>
      </trkpt>
      <trkpt lat="49.35418" lon="1.16339">
        <ele>118.506714</ele>
        <time>2016-01-05T15:02:45Z</time>
      </trkpt>
      <trkpt lat="49.35421" lon="1.16337">
        <ele>118.506714</ele>
        <time>2016-01-05T15:02:50Z</time>
      </trkpt>
      <trkpt lat="49.35431" lon="1.1634">
        <ele>118.70935</ele>
        <time>2016-01-05T15:03:00Z</time>
      </trkpt>
      <trkpt lat="49.35433" lon="1.1634">
        <ele>118.70935</ele>
        <time>2016-01-05T15:03:05Z</time>
      </trkpt>
      <trkpt lat="49.35445" lon="1.16337">
        <ele>118.85608</ele>
        <time>2016-01-05T15:03:15Z</time>
      </trkpt>
      <trkpt lat="49.35453" lon="1.16333">
        <ele>118.85608</ele>
        <time>2016-01-05T15:03:20Z</time>
      </trkpt>
      <trkpt lat="49.35466" lon="1.16324">
        <ele>118.85115</ele>
        <time>2016-01-05T15:03:30Z</time>
      </trkpt>
      <trkpt lat="49.35472" lon="1.1632">
        <ele>118.85115</ele>
        <time>2016-01-05T15:03:35Z</time>
      </trkpt>
      <trkpt lat="49.35484" lon="1.16317">
        <ele>118.99547</ele>
        <time>2016-01-05T15:03:45Z</time>
      </trkpt>
      <trkpt lat="49.35488" lon="1.16314">
        <ele>118.99547</ele>
        <time>2016-01-05T15:03:50Z</time>
      </trkpt>
      <trkpt lat="49.35498" lon="1.16305">
        <ele>119.2937</ele>
        <time>2016-01-05T15:04:00Z</time>
      </trkpt>
      <trkpt lat="49.35503" lon="1.16301">
        <ele>119.2937</ele>
        <time>2016-01-05T15:04:05Z</time>
      </trkpt>
      <trkpt lat="49.35512" lon="1.16292">
        <ele>119.66335</ele>
        <time>2016-01-05T15:04:15Z</time>
      </trkpt>
      <trkpt lat="49.35517" lon="1.16288">
        <ele>119.66335</ele>
        <time>2016-01-05T15:04:20Z</time>
      </trkpt>
      <trkpt lat="49.35525" lon="1.16282">
        <ele>120.14313</ele>
        <time>2016-01-05T15:04:30Z</time>
      </trkpt>
      <trkpt lat="49.35532" lon="1.16277">
        <ele>120.14313</ele>
        <time>2016-01-05T15:04:35Z</time>
      </trkpt>
      <trkpt lat="49.35542" lon="1.16266">
        <ele>120.840706</ele>
        <time>2016-01-05T15:04:45Z</time>
      </trkpt>
      <trkpt lat="49.35545" lon="1.16262">
        <ele>120.840706</ele>
        <time>2016-01-05T15:04:50Z</time>
      </trkpt>
      <trkpt lat="49.35559" lon="1.16253">
        <ele>121.55268</ele>
        <time>2016-01-05T15:05:05Z</time>
      </trkpt>
      <trkpt lat="49.35565" lon="1.16249">
        <ele>121.55268</ele>
        <time>2016-01-05T15:05:10Z</time>
      </trkpt>
      <trkpt lat="49.35575" lon="1.16242">
        <ele>121.98969</ele>
        <time>2016-01-05T15:05:20Z</time>
      </trkpt>
      <trkpt lat="49.35579" lon="1.1624">
        <ele>121.98969</ele>
        <time>2016-01-05T15:05:25Z</time>
      </trkpt>
      <trkpt lat="49.35588" lon="1.16237">
        <ele>122.33123</ele>
        <time>2016-01-05T15:05:35Z</time>
      </trkpt>
      <trkpt lat="49.35592" lon="1.16237">
        <ele>122.33123</ele>
        <time>2016-01-05T15:05:40Z</time>
      </trkpt>
      <trkpt lat="49.35602" lon="1.16232">
        <ele>122.67183</ele>
        <time>2016-01-05T15:05:50Z</time>
      </trkpt>
      <trkpt lat="49.35609" lon="1.16228">
        <ele>122.67183</ele>
        <time>2016-01-05T15:05:55Z</time>
      </trkpt>
      <trkpt lat="49.35619" lon="1.16223">
        <ele>123.127945</ele>
        <time>2016-01-05T15:06:05Z</time>
      </trkpt>
      <trkpt lat="49.35622" lon="1.1622">
        <ele>123.127945</ele>
        <time>2016-01-05T15:06:10Z</time>
      </trkpt>
      <trkpt lat="49.35622" lon="1.16222">
        <ele>123.127945</ele>
        <time>2016-01-05T15:06:20Z</time>
      </trkpt>
      <trkpt lat="49.3562" lon="1.1622">
        <ele>123.127945</ele>
        <time>2016-01-05T15:06:25Z</time>
      </trkpt>
      <trkpt lat="49.35618" lon="1.16223">
        <ele>123.7063</ele>
        <time>2016-01-05T15:06:35Z</time>
      </trkpt>
      <trkpt lat="49.35618" lon="1.16222">
        <ele>123.7063</ele>
        <time>2016-01-05T15:06:40Z</time>
      </trkpt>
      <trkpt lat="49.35616" lon="1.16223">
        <ele>123.7063</ele>
        <time>2016-01-05T15:06:50Z</time>
      </trkpt>
      <trkpt lat="49.35616" lon="1.16223">
        <ele>123.7063</ele>
        <time>2016-01-05T15:06:55Z</time>
      </trkpt>
      <trkpt lat="49.35619" lon="1.16223">
        <ele>123.7063</ele>
        <time>2016-01-05T15:07:05Z</time>
      </trkpt>
      <trkpt lat="49.35624" lon="1.16221">
        <ele>123.980484</ele>
        <time>2016-01-05T15:07:10Z</time>
      </trkpt>
      <trkpt lat="49.35631" lon="1.16219">
        <ele>123.980484</ele>
        <time>2016-01-05T15:07:20Z</time>
      </trkpt>
      <trkpt lat="49.35638" lon="1.16217">
        <ele>124.44976</ele>
        <time>2016-01-05T15:07:25Z</time>
      </trkpt>
      <trkpt lat="49.35646" lon="1.1622">
        <ele>124.44976</ele>
        <time>2016-01-05T15:07:40Z</time>
      </trkpt>
      <trkpt lat="49.35645" lon="1.16219">
        <ele>124.9277</ele>
        <time>2016-01-05T15:07:45Z</time>
      </trkpt>
      <trkpt lat="49.35643" lon="1.16218">
        <ele>124.9277</ele>
        <time>2016-01-05T15:07:55Z</time>
      </trkpt>
      <trkpt lat="49.35639" lon="1.16217">
        <ele>124.9277</ele>
        <time>2016-01-05T15:08:00Z</time>
      </trkpt>
      <trkpt lat="49.35629" lon="1.16215">
        <ele>125.03978</ele>
        <time>2016-01-05T15:08:10Z</time>
      </trkpt>
      <trkpt lat="49.35625" lon="1.16215">
        <ele>125.03978</ele>
        <time>2016-01-05T15:08:15Z</time>
      </trkpt>
      <trkpt lat="49.35623" lon="1.16214">
        <ele>125.03978</ele>
        <time>2016-01-05T15:08:25Z</time>
      </trkpt>
      <trkpt lat="49.35623" lon="1.16212">
        <ele>125.03978</ele>
        <time>2016-01-05T15:08:30Z</time>
      </trkpt>
      <trkpt lat="49.35625" lon="1.16206">
        <ele>125.13177</ele>
        <time>2016-01-05T15:08:40Z</time>
      </trkpt>
      <trkpt lat="49.35628" lon="1.16205">
        <ele>125.13177</ele>
        <time>2016-01-05T15:08:45Z</time>
      </trkpt>
      <trkpt lat="49.35636" lon="1.162">
        <ele>125.17822</ele>
        <time>2016-01-05T15:08:55Z</time>
      </trkpt>
      <trkpt lat="49.3564" lon="1.16197">
        <ele>125.17822</ele>
        <time>2016-01-05T15:09:00Z</time>
      </trkpt>
      <trkpt lat="49.35651" lon="1.16183">
        <ele>125.40069</ele>
        <time>2016-01-05T15:09:15Z</time>
      </trkpt>
      <trkpt lat="49.35657" lon="1.1618">
        <ele>125.40069</ele>
        <time>2016-01-05T15:09:20Z</time>
      </trkpt>
      <trkpt lat="49.35667" lon="1.16175">
        <ele>125.8454</ele>
        <time>2016-01-05T15:09:30Z</time>
      </trkpt>
      <trkpt lat="49.35671" lon="1.16172">
        <ele>125.8454</ele>
        <time>2016-01-05T15:09:35Z</time>
      </trkpt>
      <trkpt lat="49.35678" lon="1.16166">
        <ele>126.29516</ele>
        <time>2016-01-05T15:09:45Z</time>
      </trkpt>
      <trkpt lat="49.35681" lon="1.16161">
        <ele>126.29516</ele>
        <time>2016-01-05T15:09:50Z</time>
      </trkpt>
      <trkpt lat="49.3569" lon="1.16151">
        <ele>126.880165</ele>
        <time>2016-01-05T15:10:00Z</time>
      </trkpt>
      <trkpt lat="49.35694" lon="1.16148">
        <ele>126.880165</ele>
        <time>2016-01-05T15:10:05Z</time>
      </trkpt>
      <trkpt lat="49.35704" lon="1.16144">
        <ele>127.345955</ele>
        <time>2016-01-05T15:10:15Z</time>
      </trkpt>
      <trkpt lat="49.35707" lon="1.16142">
        <ele>127.345955</ele>
        <time>2016-01-05T15:10:20Z</time>
      </trkpt>
      <trkpt lat="49.35715" lon="1.16134">
        <ele>127.80294</ele>
        <time>2016-01-05T15:10:30Z</time>
      </trkpt>
      <trkpt lat="49.3572" lon="1.16131">
        <ele>127.80294</ele>
        <time>2016-01-05T15:10:35Z</time>
      </trkpt>
      <trkpt lat="49.3573" lon="1.16126">
        <ele>128.20934</ele>
        <time>2016-01-05T15:10:45Z</time>
      </trkpt>
      <trkpt lat="49.35736" lon="1.16121">
        <ele>128.20934</ele>
        <time>2016-01-05T15:10:50Z</time>
      </trkpt>
      <trkpt lat="49.35744" lon="1.16114">
        <ele>128.80032</ele>
        <time>2016-01-05T15:11:00Z</time>
      </trkpt>
      <trkpt lat="49.35747" lon="1.16112">
        <ele>128.80032</ele>
        <time>2016-01-05T15:11:05Z</time>
      </trkpt>
      <trkpt lat="49.35759" lon="1.16101">
        <ele>129.44745</ele>
        <time>2016-01-05T15:11:20Z</time>
      </trkpt>
      <trkpt lat="49.35763" lon="1.16099">
        <ele>129.44745</ele>
        <time>2016-01-05T15:11:25Z</time>
      </trkpt>
      <trkpt lat="49.35772" lon="1.16089">
        <ele>130.06032</ele>
        <time>2016-01-05T15:11:35Z</time>
      </trkpt>
      <trkpt lat="49.35777" lon="1.16085">
        <ele>130.06032</ele>
        <time>2016-01-05T15:11:40Z</time>
      </trkpt>
      <trkpt lat="49.35786" lon="1.16084">
        <ele>130.58406</ele>
        <time>2016-01-05T15:11:50Z</time>
      </trkpt>
      <trkpt lat="49.3579" lon="1.16082">
        <ele>130.58406</ele>
        <time>2016-01-05T15:11:55Z</time>
      </trkpt>
      <trkpt lat="49.35801" lon="1.16074">
        <ele>131.1266</ele>
        <time>2016-01-05T15:12:05Z</time>
      </trkpt>
      <trkpt lat="49.35804" lon="1.16069">
        <ele>131.1266</ele>
        <time>2016-01-05T15:12:10Z</time>
      </trkpt>
      <trkpt lat="49.35812" lon="1.16057">
        <ele>131.5141</ele>
        <time>2016-01-05T15:12:20Z</time>
      </trkpt>
      <trkpt lat="49.35813" lon="1.1605">
        <ele>131.5141</ele>
        <time>2016-01-05T15:12:25Z</time>
      </trkpt>
      <trkpt lat="49.35817" lon="1.1604">
        <ele>132.00374</ele>
        <time>2016-01-05T15:12:35Z</time>
      </trkpt>
      <trkpt lat="49.35818" lon="1.16031">
        <ele>132.00374</ele>
        <time>2016-01-05T15:12:40Z</time>
      </trkpt>
      <trkpt lat="49.35821" lon="1.16017">
        <ele>132.30035</ele>
        <time>2016-01-05T15:12:50Z</time>
      </trkpt>
      <trkpt lat="49.35825" lon="1.16013">
        <ele>132.30035</ele>
        <time>2016-01-05T15:12:55Z</time>
      </trkpt>
      <trkpt lat="49.35828" lon="1.16008">
        <ele>132.49124</ele>
        <time>2016-01-05T15:13:05Z</time>
      </trkpt>
      <trkpt lat="49.3583" lon="1.16006">
        <ele>132.49124</ele>
        <time>2016-01-05T15:13:10Z</time>
      </trkpt>
      <trkpt lat="49.35832" lon="1.16005">
        <ele>132.49124</ele>
        <time>2016-01-05T15:13:20Z</time>
      </trkpt>
      <trkpt lat="49.35831" lon="1.16003">
        <ele>132.49124</ele>
        <time>2016-01-05T15:13:25Z</time>
      </trkpt>
      <trkpt lat="49.35827" lon="1.16002">
        <ele>132.26845</ele>
        <time>2016-01-05T15:13:35Z</time>
      </trkpt>
      <trkpt lat="49.35824" lon="1.16">
        <ele>132.26845</ele>
        <time>2016-01-05T15:13:40Z</time>
      </trkpt>
      <trkpt lat="49.35816" lon="1.16013">
        <ele>132.12602</ele>
        <time>2016-01-05T15:13:55Z</time>
      </trkpt>
      <trkpt lat="49.35816" lon="1.1602">
        <ele>132.12602</ele>
        <time>2016-01-05T15:14:00Z</time>
      </trkpt>
      <trkpt lat="49.35812" lon="1.16035">
        <ele>132.10349</ele>
        <time>2016-01-05T15:14:10Z</time>
      </trkpt>
      <trkpt lat="49.3581" lon="1.16038">
        <ele>132.10349</ele>
        <time>2016-01-05T15:14:15Z</time>
      </trkpt>
      <trkpt lat="49.35807" lon="1.16046">
        <ele>132.10349</ele>
        <time>2016-01-05T15:14:25Z</time>
      </trkpt>
      <trkpt lat="49.35801" lon="1.16051">
        <ele>132.30917</ele>
        <time>2016-01-05T15:14:30Z</time>
      </trkpt>
      <trkpt lat="49.35798" lon="1.1606">
        <ele>132.30917</ele>
        <time>2016-01-05T15:14:40Z</time>
      </trkpt>
      <trkpt lat="49.35794" lon="1.16066">
        <ele>132.69867</ele>
        <time>2016-01-05T15:14:45Z</time>
      </trkpt>
      <trkpt lat="49.35789" lon="1.16073">
        <ele>132.69867</ele>
        <time>2016-01-05T15:14:55Z</time>
      </trkpt>
      <trkpt lat="49.35791" lon="1.16075">
        <ele>132.69867</ele>
        <time>2016-01-05T15:15:00Z</time>
      </trkpt>
      <trkpt lat="49.35794" lon="1.16079">
        <ele>132.94206</ele>
        <time>2016-01-05T15:15:10Z</time>
      </trkpt>
      <trkpt lat="49.35793" lon="1.16079">
        <ele>132.94206</ele>
        <time>2016-01-05T15:15:15Z</time>
      </trkpt>
      <trkpt lat="49.35795" lon="1.16087">
        <ele>132.94206</ele>
        <time>2016-01-05T15:15:25Z</time>
      </trkpt>
      <trkpt lat="49.35794" lon="1.16091">
        <ele>132.94206</ele>
        <time>2016-01-05T15:15:30Z</time>
      </trkpt>
      <trkpt lat="49.35794" lon="1.16093">
        <ele>132.80608</ele>
        <time>2016-01-05T15:15:40Z</time>
      </trkpt>
      <trkpt lat="49.35794" lon="1.16094">
        <ele>132.80608</ele>
        <time>2016-01-05T15:15:45Z</time>
      </trkpt>
      <trkpt lat="49.35792" lon="1.16098">
        <ele>132.80608</ele>
        <time>2016-01-05T15:15:55Z</time>
      </trkpt>
      <trkpt lat="49.35792" lon="1.16098">
        <ele>132.80608</ele>
        <time>2016-01-05T15:16:00Z</time>
      </trkpt>
      <trkpt lat="49.35788" lon="1.161">
        <ele>132.80608</ele>
        <time>2016-01-05T15:16:10Z</time>
      </trkpt>
      <trkpt lat="49.35788" lon="1.16098">
        <ele>132.94028</ele>
        <time>2016-01-05T15:16:15Z</time>
      </trkpt>
      <trkpt lat="49.35793" lon="1.1608">
        <ele>132.95134</ele>
        <time>2016-01-05T15:16:30Z</time>
      </trkpt>
      <trkpt lat="49.35795" lon="1.16074">
        <ele>132.95134</ele>
        <time>2016-01-05T15:16:35Z</time>
      </trkpt>
      <trkpt lat="49.35802" lon="1.16069">
        <ele>132.95074</ele>
        <time>2016-01-05T15:16:45Z</time>
      </trkpt>
      <trkpt lat="49.35807" lon="1.16061">
        <ele>132.95074</ele>
        <time>2016-01-05T15:16:50Z</time>
      </trkpt>
      <trkpt lat="49.35816" lon="1.16056">
        <ele>133.08495</ele>
        <time>2016-01-05T15:17:00Z</time>
      </trkpt>
      <trkpt lat="49.3582" lon="1.16055">
        <ele>133.08495</ele>
        <time>2016-01-05T15:17:05Z</time>
      </trkpt>
      <trkpt lat="49.35828" lon="1.16048">
        <ele>133.28749</ele>
        <time>2016-01-05T15:17:15Z</time>
      </trkpt>
      <trkpt lat="49.35833" lon="1.16046">
        <ele>133.28749</ele>
        <time>2016-01-05T15:17:20Z</time>
      </trkpt>
      <trkpt lat="49.3584" lon="1.16036">
        <ele>133.2516</ele>
        <time>2016-01-05T15:17:30Z</time>
      </trkpt>
      <trkpt lat="49.35845" lon="1.1603">
        <ele>133.2516</ele>
        <time>2016-01-05T15:17:35Z</time>
      </trkpt>
      <trkpt lat="49.35854" lon="1.16016">
        <ele>133.06834</ele>
        <time>2016-01-05T15:17:45Z</time>
      </trkpt>
      <trkpt lat="49.35859" lon="1.16012">
        <ele>133.06834</ele>
        <time>2016-01-05T15:17:50Z</time>
      </trkpt>
      <trkpt lat="49.35869" lon="1.16005">
        <ele>132.98094</ele>
        <time>2016-01-05T15:18:00Z</time>
      </trkpt>
      <trkpt lat="49.35875" lon="1.16002">
        <ele>132.98094</ele>
        <time>2016-01-05T15:18:05Z</time>
      </trkpt>
      <trkpt lat="49.35886" lon="1.15987">
        <ele>132.88304</ele>
        <time>2016-01-05T15:18:15Z</time>
      </trkpt>
      <trkpt lat="49.35888" lon="1.1598">
        <ele>132.88304</ele>
        <time>2016-01-05T15:18:20Z</time>
      </trkpt>
      <trkpt lat="49.35898" lon="1.1597">
        <ele>132.76251</ele>
        <time>2016-01-05T15:18:30Z</time>
      </trkpt>
      <trkpt lat="49.35902" lon="1.15966">
        <ele>132.76251</ele>
        <time>2016-01-05T15:18:35Z</time>
      </trkpt>
      <trkpt lat="49.35912" lon="1.15953">
        <ele>132.65137</ele>
        <time>2016-01-05T15:18:45Z</time>
      </trkpt>
      <trkpt lat="49.35916" lon="1.15951">
        <ele>132.65137</ele>
        <time>2016-01-05T15:18:50Z</time>
      </trkpt>
      <trkpt lat="49.3592" lon="1.15937">
        <ele>132.40628</ele>
        <time>2016-01-05T15:19:00Z</time>
      </trkpt>
      <trkpt lat="49.35917" lon="1.15928">
        <ele>132.40628</ele>
        <time>2016-01-05T15:19:05Z</time>
      </trkpt>
      <trkpt lat="49.35922" lon="1.15918">
        <ele>131.76506</ele>
        <time>2016-01-05T15:19:15Z</time>
      </trkpt>
      <trkpt lat="49.35926" lon="1.15913">
        <ele>131.76506</ele>
        <time>2016-01-05T15:19:20Z</time>
      </trkpt>
      <trkpt lat="49.35935" lon="1.15905">
        <ele>131.06227</ele>
        <time>2016-01-05T15:19:30Z</time>
      </trkpt>
      <trkpt lat="49.3594" lon="1.15898">
        <ele>131.06227</ele>
        <time>2016-01-05T15:19:35Z</time>
      </trkpt>
      <trkpt lat="49.35948" lon="1.15885">
        <ele>130.31981</ele>
        <time>2016-01-05T15:19:45Z</time>
      </trkpt>
      <trkpt lat="49.35949" lon="1.15875">
        <ele>130.31981</ele>
        <time>2016-01-05T15:19:50Z</time>
      </trkpt>
      <trkpt lat="49.35948" lon="1.15853">
        <ele>129.14009</ele>
        <time>2016-01-05T15:20:05Z</time>
      </trkpt>
      <trkpt lat="49.35947" lon="1.15846">
        <ele>129.14009</ele>
        <time>2016-01-05T15:20:10Z</time>
      </trkpt>
      <trkpt lat="49.35945" lon="1.15829">
        <ele>127.97733</ele>
        <time>2016-01-05T15:20:20Z</time>
      </trkpt>
      <trkpt lat="49.35943" lon="1.1582">
        <ele>127.97733</ele>
        <time>2016-01-05T15:20:25Z</time>
      </trkpt>
      <trkpt lat="49.3594" lon="1.15798">
        <ele>126.60373</ele>
        <time>2016-01-05T15:20:35Z</time>
      </trkpt>
      <trkpt lat="49.35939" lon="1.15789">
        <ele>126.60373</ele>
        <time>2016-01-05T15:20:40Z</time>
      </trkpt>
      <trkpt lat="49.35938" lon="1.15781">
        <ele>125.03935</ele>
        <time>2016-01-05T15:20:50Z</time>
      </trkpt>
      <trkpt lat="49.35941" lon="1.15779">
        <ele>125.03935</ele>
        <time>2016-01-05T15:20:55Z</time>
      </trkpt>
      <trkpt lat="49.35954" lon="1.1577">
        <ele>123.14468</ele>
        <time>2016-01-05T15:21:05Z</time>
      </trkpt>
      <trkpt lat="49.35957" lon="1.15771">
        <ele>123.14468</ele>
        <time>2016-01-05T15:21:10Z</time>
      </trkpt>
      <trkpt lat="49.35949" lon="1.15763">
        <ele>121.38215</ele>
        <time>2016-01-05T15:21:20Z</time>
      </trkpt>
      <trkpt lat="49.35947" lon="1.15764">
        <ele>121.38215</ele>
        <time>2016-01-05T15:21:25Z</time>
      </trkpt>
      <trkpt lat="49.35943" lon="1.15756">
        <ele>121.38215</ele>
        <time>2016-01-05T15:21:35Z</time>
      </trkpt>
      <trkpt lat="49.35942" lon="1.15754">
        <ele>120.10769</ele>
        <time>2016-01-05T15:21:40Z</time>
      </trkpt>
      <trkpt lat="49.35944" lon="1.15759">
        <ele>120.10769</ele>
        <time>2016-01-05T15:21:50Z</time>
      </trkpt>
      <trkpt lat="49.35946" lon="1.15758">
        <ele>120.10769</ele>
        <time>2016-01-05T15:21:55Z</time>
      </trkpt>
      <trkpt lat="49.35948" lon="1.15757">
        <ele>120.10769</ele>
        <time>2016-01-05T15:22:05Z</time>
      </trkpt>
      <trkpt lat="49.35947" lon="1.15757">
        <ele>120.10769</ele>
        <time>2016-01-05T15:22:10Z</time>
      </trkpt>
      <trkpt lat="49.35946" lon="1.15757">
        <ele>119.419014</ele>
        <time>2016-01-05T15:22:20Z</time>
      </trkpt>
      <trkpt lat="49.35946" lon="1.15757">
        <ele>119.419014</ele>
        <time>2016-01-05T15:22:25Z</time>
      </trkpt>
      <trkpt lat="49.35946" lon="1.15758">
        <ele>119.419014</ele>
        <time>2016-01-05T15:23:55Z</time>
      </trkpt>
      <trkpt lat="49.35946" lon="1.15758">
        <ele>119.419014</ele>
        <time>2016-01-05T15:24:00Z</time>
      </trkpt>
      <trkpt lat="49.35952" lon="1.15768">
        <ele>119.41934</ele>
        <time>2016-01-05T15:24:10Z</time>
      </trkpt>
      <trkpt lat="49.35956" lon="1.15779">
        <ele>119.41934</ele>
        <time>2016-01-05T15:24:15Z</time>
      </trkpt>
      <trkpt lat="49.35964" lon="1.158">
        <ele>119.034935</ele>
        <time>2016-01-05T15:24:25Z</time>
      </trkpt>
      <trkpt lat="49.35965" lon="1.15806">
        <ele>119.034935</ele>
        <time>2016-01-05T15:24:30Z</time>
      </trkpt>
      <trkpt lat="49.35966" lon="1.15807">
        <ele>119.034935</ele>
        <time>2016-01-05T15:24:40Z</time>
      </trkpt>
      <trkpt lat="49.35966" lon="1.1581">
        <ele>119.034935</ele>
        <time>2016-01-05T15:25:00Z</time>
      </trkpt>
      <trkpt lat="49.35976" lon="1.15825">
        <ele>118.19423</ele>
        <time>2016-01-05T15:25:15Z</time>
      </trkpt>
      <trkpt lat="49.3598" lon="1.15825">
        <ele>118.19423</ele>
        <time>2016-01-05T15:25:20Z</time>
      </trkpt>
      <trkpt lat="49.35988" lon="1.1583">
        <ele>117.63912</ele>
        <time>2016-01-05T15:25:30Z</time>
      </trkpt>
      <trkpt lat="49.3599" lon="1.15833">
        <ele>117.63912</ele>
        <time>2016-01-05T15:25:35Z</time>
      </trkpt>
      <trkpt lat="49.35992" lon="1.15834">
        <ele>117.63912</ele>
        <time>2016-01-05T15:25:45Z</time>
      </trkpt>
      <trkpt lat="49.36004" lon="1.15848">
        <ele>117.73905</ele>
        <time>2016-01-05T15:26:00Z</time>
      </trkpt>
      <trkpt lat="49.36006" lon="1.15852">
        <ele>117.73905</ele>
        <time>2016-01-05T15:26:05Z</time>
      </trkpt>
      <trkpt lat="49.36021" lon="1.15869">
        <ele>117.8112</ele>
        <time>2016-01-05T15:26:15Z</time>
      </trkpt>
      <trkpt lat="49.3603" lon="1.15876">
        <ele>117.957886</ele>
        <time>2016-01-05T15:26:20Z</time>
      </trkpt>
      <trkpt lat="49.36045" lon="1.15884">
        <ele>118.02861</ele>
        <time>2016-01-05T15:26:30Z</time>
      </trkpt>
      <trkpt lat="49.36051" lon="1.15886">
        <ele>118.02861</ele>
        <time>2016-01-05T15:26:35Z</time>
      </trkpt>
      <trkpt lat="49.36058" lon="1.15895">
        <ele>118.04261</ele>
        <time>2016-01-05T15:26:45Z</time>
      </trkpt>
      <trkpt lat="49.36062" lon="1.15898">
        <ele>118.04261</ele>
        <time>2016-01-05T15:26:50Z</time>
      </trkpt>
      <trkpt lat="49.3607" lon="1.15907">
        <ele>118.11867</ele>
        <time>2016-01-05T15:27:00Z</time>
      </trkpt>
      <trkpt lat="49.36073" lon="1.15909">
        <ele>118.11867</ele>
        <time>2016-01-05T15:27:05Z</time>
      </trkpt>
      <trkpt lat="49.36086" lon="1.15924">
        <ele>118.193695</ele>
        <time>2016-01-05T15:27:20Z</time>
      </trkpt>
      <trkpt lat="49.3609" lon="1.15926">
        <ele>118.193695</ele>
        <time>2016-01-05T15:27:25Z</time>
      </trkpt>
      <trkpt lat="49.36098" lon="1.1593">
        <ele>118.32446</ele>
        <time>2016-01-05T15:27:35Z</time>
      </trkpt>
      <trkpt lat="49.36105" lon="1.15932">
        <ele>118.32446</ele>
        <time>2016-01-05T15:27:40Z</time>
      </trkpt>
      <trkpt lat="49.36116" lon="1.15938">
        <ele>118.64986</ele>
        <time>2016-01-05T15:27:50Z</time>
      </trkpt>
      <trkpt lat="49.36121" lon="1.15941">
        <ele>118.64986</ele>
        <time>2016-01-05T15:27:55Z</time>
      </trkpt>
      <trkpt lat="49.36129" lon="1.15951">
        <ele>119.18268</ele>
        <time>2016-01-05T15:28:05Z</time>
      </trkpt>
      <trkpt lat="49.36133" lon="1.15956">
        <ele>119.18268</ele>
        <time>2016-01-05T15:28:10Z</time>
      </trkpt>
      <trkpt lat="49.36143" lon="1.15964">
        <ele>119.90537</ele>
        <time>2016-01-05T15:28:20Z</time>
      </trkpt>
      <trkpt lat="49.36149" lon="1.15965">
        <ele>119.90537</ele>
        <time>2016-01-05T15:28:25Z</time>
      </trkpt>
      <trkpt lat="49.36161" lon="1.15964">
        <ele>120.887566</ele>
        <time>2016-01-05T15:28:35Z</time>
      </trkpt>
      <trkpt lat="49.36165" lon="1.15964">
        <ele>120.887566</ele>
        <time>2016-01-05T15:28:40Z</time>
      </trkpt>
      <trkpt lat="49.36177" lon="1.15967">
        <ele>121.93366</ele>
        <time>2016-01-05T15:28:50Z</time>
      </trkpt>
      <trkpt lat="49.36178" lon="1.15967">
        <ele>121.93366</ele>
        <time>2016-01-05T15:28:55Z</time>
      </trkpt>
      <trkpt lat="49.36188" lon="1.1597">
        <ele>123.063995</ele>
        <time>2016-01-05T15:29:10Z</time>
      </trkpt>
      <trkpt lat="49.36193" lon="1.1597">
        <ele>123.063995</ele>
        <time>2016-01-05T15:29:15Z</time>
      </trkpt>
      <trkpt lat="49.36204" lon="1.15975">
        <ele>124.268364</ele>
        <time>2016-01-05T15:29:25Z</time>
      </trkpt>
      <trkpt lat="49.3621" lon="1.15977">
        <ele>124.268364</ele>
        <time>2016-01-05T15:29:30Z</time>
      </trkpt>
      <trkpt lat="49.3622" lon="1.15976">
        <ele>125.50832</ele>
        <time>2016-01-05T15:29:40Z</time>
      </trkpt>
      <trkpt lat="49.36223" lon="1.15977">
        <ele>125.50832</ele>
        <time>2016-01-05T15:29:45Z</time>
      </trkpt>
      <trkpt lat="49.36233" lon="1.15978">
        <ele>126.61848</ele>
        <time>2016-01-05T15:29:55Z</time>
      </trkpt>
      <trkpt lat="49.36237" lon="1.15978">
        <ele>126.61848</ele>
        <time>2016-01-05T15:30:00Z</time>
      </trkpt>
      <trkpt lat="49.36244" lon="1.15972">
        <ele>127.60451</ele>
        <time>2016-01-05T15:30:10Z</time>
      </trkpt>
      <trkpt lat="49.36247" lon="1.15965">
        <ele>127.60451</ele>
        <time>2016-01-05T15:30:15Z</time>
      </trkpt>
      <trkpt lat="49.36255" lon="1.15951">
        <ele>128.52974</ele>
        <time>2016-01-05T15:30:25Z</time>
      </trkpt>
      <trkpt lat="49.3626" lon="1.15942">
        <ele>128.52974</ele>
        <time>2016-01-05T15:30:30Z</time>
      </trkpt>
      <trkpt lat="49.36264" lon="1.15926">
        <ele>129.49629</ele>
        <time>2016-01-05T15:30:40Z</time>
      </trkpt>
      <trkpt lat="49.36268" lon="1.15921">
        <ele>129.49629</ele>
        <time>2016-01-05T15:30:45Z</time>
      </trkpt>
      <trkpt lat="49.36269" lon="1.15918">
        <ele>129.49629</ele>
        <time>2016-01-05T15:30:55Z</time>
      </trkpt>
      <trkpt lat="49.36273" lon="1.15915">
        <ele>130.31053</ele>
        <time>2016-01-05T15:31:00Z</time>
      </trkpt>
      <trkpt lat="49.36286" lon="1.15904">
        <ele>130.92323</ele>
        <time>2016-01-05T15:31:10Z</time>
      </trkpt>
      <trkpt lat="49.36291" lon="1.15901">
        <ele>130.92323</ele>
        <time>2016-01-05T15:31:15Z</time>
      </trkpt>
      <trkpt lat="49.36301" lon="1.15892">
        <ele>131.31824</ele>
        <time>2016-01-05T15:31:25Z</time>
      </trkpt>
      <trkpt lat="49.36305" lon="1.15889">
        <ele>131.31824</ele>
        <time>2016-01-05T15:31:30Z</time>
      </trkpt>
      <trkpt lat="49.36315" lon="1.15881">
        <ele>131.62537</ele>
        <time>2016-01-05T15:31:40Z</time>
      </trkpt>
      <trkpt lat="49.36318" lon="1.15878">
        <ele>131.62537</ele>
        <time>2016-01-05T15:31:45Z</time>
      </trkpt>
      <trkpt lat="49.3633" lon="1.1586">
        <ele>131.77791</ele>
        <time>2016-01-05T15:32:00Z</time>
      </trkpt>
      <trkpt lat="49.36335" lon="1.1585">
        <ele>131.77791</ele>
        <time>2016-01-05T15:32:05Z</time>
      </trkpt>
      <trkpt lat="49.36341" lon="1.1584">
        <ele>131.84424</ele>
        <time>2016-01-05T15:32:15Z</time>
      </trkpt>
      <trkpt lat="49.36345" lon="1.15832">
        <ele>131.84424</ele>
        <time>2016-01-05T15:32:20Z</time>
      </trkpt>
      <trkpt lat="49.36351" lon="1.15815">
        <ele>131.74391</ele>
        <time>2016-01-05T15:32:30Z</time>
      </trkpt>
      <trkpt lat="49.36353" lon="1.15807">
        <ele>131.74391</ele>
        <time>2016-01-05T15:32:35Z</time>
      </trkpt>
      <trkpt lat="49.36359" lon="1.1579">
        <ele>131.44612</ele>
        <time>2016-01-05T15:32:45Z</time>
      </trkpt>
      <trkpt lat="49.36361" lon="1.15782">
        <ele>131.44612</ele>
        <time>2016-01-05T15:32:50Z</time>
      </trkpt>
      <trkpt lat="49.36367" lon="1.15766">
        <ele>131.02386</ele>
        <time>2016-01-05T15:33:00Z</time>
      </trkpt>
      <trkpt lat="49.3637" lon="1.15757">
        <ele>131.02386</ele>
        <time>2016-01-05T15:33:05Z</time>
      </trkpt>
      <trkpt lat="49.36376" lon="1.15741">
        <ele>130.55956</ele>
        <time>2016-01-05T15:33:15Z</time>
      </trkpt>
      <trkpt lat="49.3638" lon="1.15734">
        <ele>130.55956</ele>
        <time>2016-01-05T15:33:20Z</time>
      </trkpt>
      <trkpt lat="49.36384" lon="1.15718">
        <ele>130.15855</ele>
        <time>2016-01-05T15:33:30Z</time>
      </trkpt>
      <trkpt lat="49.36387" lon="1.15708">
        <ele>130.15855</ele>
        <time>2016-01-05T15:33:35Z</time>
      </trkpt>
      <trkpt lat="49.36396" lon="1.15683">
        <ele>129.74538</ele>
        <time>2016-01-05T15:33:50Z</time>
      </trkpt>
      <trkpt lat="49.364" lon="1.15674">
        <ele>129.74538</ele>
        <time>2016-01-05T15:33:55Z</time>
      </trkpt>
      <trkpt lat="49.36406" lon="1.15659">
        <ele>129.4087</ele>
        <time>2016-01-05T15:34:05Z</time>
      </trkpt>
      <trkpt lat="49.36411" lon="1.1565">
        <ele>129.4087</ele>
        <time>2016-01-05T15:34:10Z</time>
      </trkpt>
      <trkpt lat="49.36416" lon="1.15633">
        <ele>129.17287</ele>
        <time>2016-01-05T15:34:20Z</time>
      </trkpt>
      <trkpt lat="49.36419" lon="1.15626">
        <ele>129.17287</ele>
        <time>2016-01-05T15:34:25Z</time>
      </trkpt>
      <trkpt lat="49.3643" lon="1.15611">
        <ele>129.01688</ele>
        <time>2016-01-05T15:34:35Z</time>
      </trkpt>
      <trkpt lat="49.36435" lon="1.15605">
        <ele>129.01688</ele>
        <time>2016-01-05T15:34:40Z</time>
      </trkpt>
      <trkpt lat="49.36444" lon="1.15593">
        <ele>128.87788</ele>
        <time>2016-01-05T15:34:50Z</time>
      </trkpt>
      <trkpt lat="49.36448" lon="1.15585">
        <ele>128.87788</ele>
        <time>2016-01-05T15:34:55Z</time>
      </trkpt>
      <trkpt lat="49.36456" lon="1.15572">
        <ele>128.8273</ele>
        <time>2016-01-05T15:35:05Z</time>
      </trkpt>
      <trkpt lat="49.36457" lon="1.15559">
        <ele>128.8273</ele>
        <time>2016-01-05T15:35:10Z</time>
      </trkpt>
      <trkpt lat="49.36445" lon="1.15541">
        <ele>128.93105</ele>
        <time>2016-01-05T15:35:20Z</time>
      </trkpt>
      <trkpt lat="49.3644" lon="1.15531">
        <ele>128.93105</ele>
        <time>2016-01-05T15:35:25Z</time>
      </trkpt>
      <trkpt lat="49.36431" lon="1.15515">
        <ele>129.22096</ele>
        <time>2016-01-05T15:35:35Z</time>
      </trkpt>
      <trkpt lat="49.36428" lon="1.15509">
        <ele>129.22096</ele>
        <time>2016-01-05T15:35:40Z</time>
      </trkpt>
      <trkpt lat="49.36423" lon="1.15497">
        <ele>129.62515</ele>
        <time>2016-01-05T15:35:50Z</time>
      </trkpt>
      <trkpt lat="49.36423" lon="1.15491">
        <ele>129.62515</ele>
        <time>2016-01-05T15:35:55Z</time>
      </trkpt>
      <trkpt lat="49.36427" lon="1.15486">
        <ele>129.62515</ele>
        <time>2016-01-05T15:36:05Z</time>
      </trkpt>
      <trkpt lat="49.3643" lon="1.15484">
        <ele>129.77408</ele>
        <time>2016-01-05T15:36:10Z</time>
      </trkpt>
      <trkpt lat="49.36429" lon="1.15476">
        <ele>129.77408</ele>
        <time>2016-01-05T15:36:25Z</time>
      </trkpt>
      <trkpt lat="49.36427" lon="1.15477">
        <ele>129.77408</ele>
        <time>2016-01-05T15:36:30Z</time>
      </trkpt>
      <trkpt lat="49.36424" lon="1.15481">
        <ele>129.94572</ele>
        <time>2016-01-05T15:36:40Z</time>
      </trkpt>
      <trkpt lat="49.36423" lon="1.1548">
        <ele>129.94572</ele>
        <time>2016-01-05T15:36:45Z</time>
      </trkpt>
      <trkpt lat="49.36423" lon="1.15478">
        <ele>129.94572</ele>
        <time>2016-01-05T15:36:55Z</time>
      </trkpt>
      <trkpt lat="49.36426" lon="1.15477">
        <ele>129.94572</ele>
        <time>2016-01-05T15:37:00Z</time>
      </trkpt>
      <trkpt lat="49.36429" lon="1.15481">
        <ele>130.1382</ele>
        <time>2016-01-05T15:37:10Z</time>
      </trkpt>
      <trkpt lat="49.36429" lon="1.15481">
        <ele>130.1382</ele>
        <time>2016-01-05T15:37:15Z</time>
      </trkpt>
      <trkpt lat="49.36424" lon="1.15486">
        <ele>130.1382</ele>
        <time>2016-01-05T15:37:25Z</time>
      </trkpt>
      <trkpt lat="49.36421" lon="1.15487">
        <ele>130.1382</ele>
        <time>2016-01-05T15:37:30Z</time>
      </trkpt>
      <trkpt lat="49.36421" lon="1.15485">
        <ele>130.42177</ele>
        <time>2016-01-05T15:37:40Z</time>
      </trkpt>
      <trkpt lat="49.36427" lon="1.15474">
        <ele>130.73158</ele>
        <time>2016-01-05T15:37:45Z</time>
      </trkpt>
      <trkpt lat="49.36439" lon="1.15457">
        <ele>130.92104</ele>
        <time>2016-01-05T15:37:55Z</time>
      </trkpt>
      <trkpt lat="49.36446" lon="1.15453">
        <ele>130.92104</ele>
        <time>2016-01-05T15:38:00Z</time>
      </trkpt>
      <trkpt lat="49.36458" lon="1.15444">
        <ele>130.88347</ele>
        <time>2016-01-05T15:38:10Z</time>
      </trkpt>
      <trkpt lat="49.36464" lon="1.15436">
        <ele>130.88347</ele>
        <time>2016-01-05T15:38:15Z</time>
      </trkpt>
      <trkpt lat="49.36472" lon="1.15426">
        <ele>130.79448</ele>
        <time>2016-01-05T15:38:25Z</time>
      </trkpt>
      <trkpt lat="49.36477" lon="1.15422">
        <ele>130.79448</ele>
        <time>2016-01-05T15:38:30Z</time>
      </trkpt>
      <trkpt lat="49.36487" lon="1.15414">
        <ele>130.71608</ele>
        <time>2016-01-05T15:38:45Z</time>
      </trkpt>
      <trkpt lat="49.36493" lon="1.15412">
        <ele>130.71608</ele>
        <time>2016-01-05T15:38:50Z</time>
      </trkpt>
      <trkpt lat="49.36504" lon="1.15412">
        <ele>130.7201</ele>
        <time>2016-01-05T15:39:00Z</time>
      </trkpt>
      <trkpt lat="49.36507" lon="1.1541">
        <ele>130.7201</ele>
        <time>2016-01-05T15:39:05Z</time>
      </trkpt>
      <trkpt lat="49.3651" lon="1.1541">
        <ele>130.7201</ele>
        <time>2016-01-05T15:39:15Z</time>
      </trkpt>
      <trkpt lat="49.36514" lon="1.15411">
        <ele>130.80078</ele>
        <time>2016-01-05T15:39:20Z</time>
      </trkpt>
      <trkpt lat="49.36523" lon="1.15406">
        <ele>130.95265</ele>
        <time>2016-01-05T15:39:30Z</time>
      </trkpt>
      <trkpt lat="49.36526" lon="1.15401">
        <ele>130.95265</ele>
        <time>2016-01-05T15:39:35Z</time>
      </trkpt>
      <trkpt lat="49.36536" lon="1.15388">
        <ele>131.06949</ele>
        <time>2016-01-05T15:39:45Z</time>
      </trkpt>
      <trkpt lat="49.3654" lon="1.15379">
        <ele>131.06949</ele>
        <time>2016-01-05T15:39:50Z</time>
      </trkpt>
      <trkpt lat="49.36544" lon="1.15358">
        <ele>131.31242</ele>
        <time>2016-01-05T15:40:00Z</time>
      </trkpt>
      <trkpt lat="49.36545" lon="1.1535">
        <ele>131.31242</ele>
        <time>2016-01-05T15:40:05Z</time>
      </trkpt>
      <trkpt lat="49.36546" lon="1.15328">
        <ele>131.70067</ele>
        <time>2016-01-05T15:40:20Z</time>
      </trkpt>
      <trkpt lat="49.3655" lon="1.15317">
        <ele>131.70067</ele>
        <time>2016-01-05T15:40:25Z</time>
      </trkpt>
      <trkpt lat="49.36555" lon="1.15303">
        <ele>132.33812</ele>
        <time>2016-01-05T15:40:35Z</time>
      </trkpt>
      <trkpt lat="49.36557" lon="1.15298">
        <ele>132.33812</ele>
        <time>2016-01-05T15:40:40Z</time>
      </trkpt>
      <trkpt lat="49.36564" lon="1.1528">
        <ele>133.00327</ele>
        <time>2016-01-05T15:40:50Z</time>
      </trkpt>
      <trkpt lat="49.36568" lon="1.15276">
        <ele>133.00327</ele>
        <time>2016-01-05T15:40:55Z</time>
      </trkpt>
      <trkpt lat="49.36574" lon="1.15272">
        <ele>133.64935</ele>
        <time>2016-01-05T15:41:05Z</time>
      </trkpt>
      <trkpt lat="49.36576" lon="1.1527">
        <ele>133.64935</ele>
        <time>2016-01-05T15:41:10Z</time>
      </trkpt>
      <trkpt lat="49.3658" lon="1.15261">
        <ele>133.91606</ele>
        <time>2016-01-05T15:41:20Z</time>
      </trkpt>
      <trkpt lat="49.36583" lon="1.15256">
        <ele>133.91606</ele>
        <time>2016-01-05T15:41:25Z</time>
      </trkpt>
      <trkpt lat="49.36595" lon="1.15244">
        <ele>134.10474</ele>
        <time>2016-01-05T15:41:35Z</time>
      </trkpt>
      <trkpt lat="49.36598" lon="1.15236">
        <ele>134.10474</ele>
        <time>2016-01-05T15:41:40Z</time>
      </trkpt>
      <trkpt lat="49.36602" lon="1.15229">
        <ele>133.88953</ele>
        <time>2016-01-05T15:41:50Z</time>
      </trkpt>
      <trkpt lat="49.36605" lon="1.15226">
        <ele>133.88953</ele>
        <time>2016-01-05T15:41:55Z</time>
      </trkpt>
      <trkpt lat="49.3661" lon="1.15215">
        <ele>133.24347</ele>
        <time>2016-01-05T15:42:05Z</time>
      </trkpt>
      <trkpt lat="49.36614" lon="1.15204">
        <ele>133.24347</ele>
        <time>2016-01-05T15:42:10Z</time>
      </trkpt>
      <trkpt lat="49.36615" lon="1.15194">
        <ele>132.2437</ele>
        <time>2016-01-05T15:42:20Z</time>
      </trkpt>
      <trkpt lat="49.36615" lon="1.15185">
        <ele>132.2437</ele>
        <time>2016-01-05T15:42:25Z</time>
      </trkpt>
      <trkpt lat="49.36617" lon="1.15172">
        <ele>131.1212</ele>
        <time>2016-01-05T15:42:35Z</time>
      </trkpt>
      <trkpt lat="49.36619" lon="1.15169">
        <ele>131.1212</ele>
        <time>2016-01-05T15:42:40Z</time>
      </trkpt>
      <trkpt lat="49.36624" lon="1.15167">
        <ele>131.1212</ele>
        <time>2016-01-05T15:42:55Z</time>
      </trkpt>
      <trkpt lat="49.36626" lon="1.15166">
        <ele>130.17676</ele>
        <time>2016-01-05T15:43:00Z</time>
      </trkpt>
      <trkpt lat="49.36632" lon="1.15168">
        <ele>130.17676</ele>
        <time>2016-01-05T15:43:10Z</time>
      </trkpt>
      <trkpt lat="49.36634" lon="1.1517">
        <ele>130.17676</ele>
        <time>2016-01-05T15:43:15Z</time>
      </trkpt>
      <trkpt lat="49.3664" lon="1.15168">
        <ele>129.4148</ele>
        <time>2016-01-05T15:43:25Z</time>
      </trkpt>
      <trkpt lat="49.36645" lon="1.15165">
        <ele>129.4148</ele>
        <time>2016-01-05T15:43:30Z</time>
      </trkpt>
      <trkpt lat="49.36643" lon="1.1516">
        <ele>129.4148</ele>
        <time>2016-01-05T15:43:40Z</time>
      </trkpt>
      <trkpt lat="49.36643" lon="1.1516">
        <ele>129.4148</ele>
        <time>2016-01-05T15:44:30Z</time>
      </trkpt>
      <trkpt lat="49.36643" lon="1.15161">
        <ele>129.44408</ele>
        <time>2016-01-05T15:45:30Z</time>
      </trkpt>
      <trkpt lat="49.36644" lon="1.15162">
        <ele>129.44408</ele>
        <time>2016-01-05T15:45:35Z</time>
      </trkpt>
      <trkpt lat="49.36644" lon="1.15162">
        <ele>129.44408</ele>
        <time>2016-01-05T15:45:45Z</time>
      </trkpt>
      <trkpt lat="49.36646" lon="1.15157">
        <ele>129.44408</ele>
        <time>2016-01-05T15:46:35Z</time>
      </trkpt>
      <trkpt lat="49.36652" lon="1.15141">
        <ele>128.89536</ele>
        <time>2016-01-05T15:46:45Z</time>
      </trkpt>
      <trkpt lat="49.36654" lon="1.15136">
        <ele>128.89536</ele>
        <time>2016-01-05T15:46:50Z</time>
      </trkpt>
      <trkpt lat="49.36658" lon="1.15127">
        <ele>128.36058</ele>
        <time>2016-01-05T15:47:00Z</time>
      </trkpt>
      <trkpt lat="49.3666" lon="1.15118">
        <ele>128.36058</ele>
        <time>2016-01-05T15:47:05Z</time>
      </trkpt>
      <trkpt lat="49.36669" lon="1.15097">
        <ele>127.854935</ele>
        <time>2016-01-05T15:47:15Z</time>
      </trkpt>
      <trkpt lat="49.36671" lon="1.15092">
        <ele>127.854935</ele>
        <time>2016-01-05T15:47:20Z</time>
      </trkpt>
      <trkpt lat="49.36675" lon="1.1508">
        <ele>127.334724</ele>
        <time>2016-01-05T15:47:30Z</time>
      </trkpt>
      <trkpt lat="49.36684" lon="1.15064">
        <ele>126.860344</ele>
        <time>2016-01-05T15:47:35Z</time>
      </trkpt>
      <trkpt lat="49.3669" lon="1.15042">
        <ele>126.42994</ele>
        <time>2016-01-05T15:47:50Z</time>
      </trkpt>
      <trkpt lat="49.36692" lon="1.15037">
        <ele>126.42994</ele>
        <time>2016-01-05T15:47:55Z</time>
      </trkpt>
      <trkpt lat="49.36698" lon="1.15029">
        <ele>126.041626</ele>
        <time>2016-01-05T15:48:05Z</time>
      </trkpt>
      <trkpt lat="49.36702" lon="1.15023">
        <ele>126.041626</ele>
        <time>2016-01-05T15:48:10Z</time>
      </trkpt>
      <trkpt lat="49.36708" lon="1.15014">
        <ele>126.082596</ele>
        <time>2016-01-05T15:48:20Z</time>
      </trkpt>
      <trkpt lat="49.36713" lon="1.15008">
        <ele>126.082596</ele>
        <time>2016-01-05T15:48:25Z</time>
      </trkpt>
      <trkpt lat="49.36723" lon="1.14988">
        <ele>126.62215</ele>
        <time>2016-01-05T15:48:35Z</time>
      </trkpt>
      <trkpt lat="49.36728" lon="1.14979">
        <ele>126.62215</ele>
        <time>2016-01-05T15:48:40Z</time>
      </trkpt>
      <trkpt lat="49.36739" lon="1.14963">
        <ele>127.2907</ele>
        <time>2016-01-05T15:48:50Z</time>
      </trkpt>
      <trkpt lat="49.36741" lon="1.14956">
        <ele>127.2907</ele>
        <time>2016-01-05T15:48:55Z</time>
      </trkpt>
      <trkpt lat="49.36747" lon="1.14944">
        <ele>128.04808</ele>
        <time>2016-01-05T15:49:05Z</time>
      </trkpt>
      <trkpt lat="49.36752" lon="1.14937">
        <ele>128.04808</ele>
        <time>2016-01-05T15:49:10Z</time>
      </trkpt>
      <trkpt lat="49.36759" lon="1.14926">
        <ele>128.65501</ele>
        <time>2016-01-05T15:49:20Z</time>
      </trkpt>
      <trkpt lat="49.36764" lon="1.14916">
        <ele>128.65501</ele>
        <time>2016-01-05T15:49:25Z</time>
      </trkpt>
      <trkpt lat="49.36768" lon="1.14905">
        <ele>128.8326</ele>
        <time>2016-01-05T15:49:40Z</time>
      </trkpt>
      <trkpt lat="49.36769" lon="1.14904">
        <ele>128.8326</ele>
        <time>2016-01-05T15:49:45Z</time>
      </trkpt>
      <trkpt lat="49.3677" lon="1.14901">
        <ele>128.8326</ele>
        <time>2016-01-05T15:49:55Z</time>
      </trkpt>
      <trkpt lat="49.36769" lon="1.14901">
        <ele>128.8326</ele>
        <time>2016-01-05T15:50:00Z</time>
      </trkpt>
      <trkpt lat="49.3677" lon="1.14901">
        <ele>128.8326</ele>
        <time>2016-01-05T15:50:10Z</time>
      </trkpt>
      <trkpt lat="49.3677" lon="1.14902">
        <ele>128.8326</ele>
        <time>2016-01-05T15:50:15Z</time>
      </trkpt>
      <trkpt lat="49.3677" lon="1.14902">
        <ele>128.8326</ele>
        <time>2016-01-05T15:50:25Z</time>
      </trkpt>
      <trkpt lat="49.36771" lon="1.14899">
        <ele>128.8326</ele>
        <time>2016-01-05T15:50:30Z</time>
      </trkpt>
      <trkpt lat="49.36781" lon="1.1489">
        <ele>128.88562</ele>
        <time>2016-01-05T15:50:40Z</time>
      </trkpt>
      <trkpt lat="49.36787" lon="1.14884">
        <ele>128.88562</ele>
        <time>2016-01-05T15:50:45Z</time>
      </trkpt>
      <trkpt lat="49.36793" lon="1.14874">
        <ele>128.99593</ele>
        <time>2016-01-05T15:50:55Z</time>
      </trkpt>
      <trkpt lat="49.36797" lon="1.14869">
        <ele>128.99593</ele>
        <time>2016-01-05T15:51:00Z</time>
      </trkpt>
      <trkpt lat="49.36808" lon="1.14856">
        <ele>129.07248</ele>
        <time>2016-01-05T15:51:10Z</time>
      </trkpt>
      <trkpt lat="49.36814" lon="1.14851">
        <ele>129.07248</ele>
        <time>2016-01-05T15:51:15Z</time>
      </trkpt>
      <trkpt lat="49.36826" lon="1.14841">
        <ele>129.24716</ele>
        <time>2016-01-05T15:51:25Z</time>
      </trkpt>
      <trkpt lat="49.3683" lon="1.14836">
        <ele>129.24716</ele>
        <time>2016-01-05T15:51:30Z</time>
      </trkpt>
      <trkpt lat="49.36839" lon="1.14824">
        <ele>129.38249</ele>
        <time>2016-01-05T15:51:40Z</time>
      </trkpt>
      <trkpt lat="49.36844" lon="1.14819">
        <ele>129.38249</ele>
        <time>2016-01-05T15:51:45Z</time>
      </trkpt>
      <trkpt lat="49.36855" lon="1.14804">
        <ele>129.38002</ele>
        <time>2016-01-05T15:51:55Z</time>
      </trkpt>
      <trkpt lat="49.36859" lon="1.14797">
        <ele>129.38002</ele>
        <time>2016-01-05T15:52:00Z</time>
      </trkpt>
      <trkpt lat="49.36869" lon="1.14786">
        <ele>129.30743</ele>
        <time>2016-01-05T15:52:10Z</time>
      </trkpt>
      <trkpt lat="49.36874" lon="1.14778">
        <ele>129.30743</ele>
        <time>2016-01-05T15:52:15Z</time>
      </trkpt>
      <trkpt lat="49.36884" lon="1.1477">
        <ele>129.18443</ele>
        <time>2016-01-05T15:52:25Z</time>
      </trkpt>
      <trkpt lat="49.36891" lon="1.14772">
        <ele>129.18443</ele>
        <time>2016-01-05T15:52:30Z</time>
      </trkpt>
      <trkpt lat="49.36903" lon="1.1478">
        <ele>129.05821</ele>
        <time>2016-01-05T15:52:40Z</time>
      </trkpt>
      <trkpt lat="49.36907" lon="1.14785">
        <ele>129.05821</ele>
        <time>2016-01-05T15:52:45Z</time>
      </trkpt>
      <trkpt lat="49.36919" lon="1.14793">
        <ele>128.9725</ele>
        <time>2016-01-05T15:52:55Z</time>
      </trkpt>
      <trkpt lat="49.36924" lon="1.14796">
        <ele>128.9725</ele>
        <time>2016-01-05T15:53:00Z</time>
      </trkpt>
      <trkpt lat="49.36944" lon="1.14803">
        <ele>128.83803</ele>
        <time>2016-01-05T15:53:15Z</time>
      </trkpt>
      <trkpt lat="49.3695" lon="1.14803">
        <ele>128.83803</ele>
        <time>2016-01-05T15:53:20Z</time>
      </trkpt>
      <trkpt lat="49.36963" lon="1.14803">
        <ele>128.75955</ele>
        <time>2016-01-05T15:53:30Z</time>
      </trkpt>
      <trkpt lat="49.3697" lon="1.14802">
        <ele>128.75955</ele>
        <time>2016-01-05T15:53:35Z</time>
      </trkpt>
      <trkpt lat="49.36981" lon="1.14803">
        <ele>128.81953</ele>
        <time>2016-01-05T15:53:45Z</time>
      </trkpt>
      <trkpt lat="49.36987" lon="1.14804">
        <ele>128.81953</ele>
        <time>2016-01-05T15:53:50Z</time>
      </trkpt>
      <trkpt lat="49.36998" lon="1.14808">
        <ele>128.97876</ele>
        <time>2016-01-05T15:54:00Z</time>
      </trkpt>
      <trkpt lat="49.37007" lon="1.14812">
        <ele>128.97876</ele>
        <time>2016-01-05T15:54:05Z</time>
      </trkpt>
      <trkpt lat="49.37018" lon="1.14817">
        <ele>129.11409</ele>
        <time>2016-01-05T15:54:15Z</time>
      </trkpt>
      <trkpt lat="49.37024" lon="1.1482">
        <ele>129.11409</ele>
        <time>2016-01-05T15:54:20Z</time>
      </trkpt>
      <trkpt lat="49.37034" lon="1.14826">
        <ele>129.24123</ele>
        <time>2016-01-05T15:54:30Z</time>
      </trkpt>
      <trkpt lat="49.37039" lon="1.14827">
        <ele>129.24123</ele>
        <time>2016-01-05T15:54:35Z</time>
      </trkpt>
      <trkpt lat="49.37047" lon="1.14816">
        <ele>129.54767</ele>
        <time>2016-01-05T15:54:45Z</time>
      </trkpt>
      <trkpt lat="49.37053" lon="1.14811">
        <ele>129.54767</ele>
        <time>2016-01-05T15:54:50Z</time>
      </trkpt>
      <trkpt lat="49.37065" lon="1.14791">
        <ele>130.1202</ele>
        <time>2016-01-05T15:55:05Z</time>
      </trkpt>
      <trkpt lat="49.37068" lon="1.14783">
        <ele>130.1202</ele>
        <time>2016-01-05T15:55:10Z</time>
      </trkpt>
      <trkpt lat="49.37075" lon="1.14769">
        <ele>130.77905</ele>
        <time>2016-01-05T15:55:20Z</time>
      </trkpt>
      <trkpt lat="49.37078" lon="1.14764">
        <ele>130.77905</ele>
        <time>2016-01-05T15:55:25Z</time>
      </trkpt>
      <trkpt lat="49.37087" lon="1.14747">
        <ele>131.50156</ele>
        <time>2016-01-05T15:55:35Z</time>
      </trkpt>
      <trkpt lat="49.3709" lon="1.1474">
        <ele>131.50156</ele>
        <time>2016-01-05T15:55:40Z</time>
      </trkpt>
      <trkpt lat="49.37096" lon="1.14723">
        <ele>132.20892</ele>
        <time>2016-01-05T15:55:50Z</time>
      </trkpt>
      <trkpt lat="49.37101" lon="1.14715">
        <ele>132.20892</ele>
        <time>2016-01-05T15:55:55Z</time>
      </trkpt>
      <trkpt lat="49.37108" lon="1.14699">
        <ele>132.82817</ele>
        <time>2016-01-05T15:56:05Z</time>
      </trkpt>
      <trkpt lat="49.3711" lon="1.1469">
        <ele>132.82817</ele>
        <time>2016-01-05T15:56:10Z</time>
      </trkpt>
      <trkpt lat="49.37118" lon="1.14674">
        <ele>133.27757</ele>
        <time>2016-01-05T15:56:20Z</time>
      </trkpt>
      <trkpt lat="49.3712" lon="1.14664">
        <ele>133.27757</ele>
        <time>2016-01-05T15:56:25Z</time>
      </trkpt>
      <trkpt lat="49.37122" lon="1.14641">
        <ele>133.62602</ele>
        <time>2016-01-05T15:56:35Z</time>
      </trkpt>
      <trkpt lat="49.37119" lon="1.14634">
        <ele>133.62602</ele>
        <time>2016-01-05T15:56:40Z</time>
      </trkpt>
      <trkpt lat="49.3711" lon="1.14616">
        <ele>133.83675</ele>
        <time>2016-01-05T15:56:50Z</time>
      </trkpt>
      <trkpt lat="49.37106" lon="1.1461">
        <ele>133.83675</ele>
        <time>2016-01-05T15:56:55Z</time>
      </trkpt>
      <trkpt lat="49.37098" lon="1.14597">
        <ele>133.87614</ele>
        <time>2016-01-05T15:57:05Z</time>
      </trkpt>
      <trkpt lat="49.37094" lon="1.14592">
        <ele>133.87614</ele>
        <time>2016-01-05T15:57:10Z</time>
      </trkpt>
      <trkpt lat="49.37088" lon="1.1458">
        <ele>133.69914</ele>
        <time>2016-01-05T15:57:20Z</time>
      </trkpt>
      <trkpt lat="49.37084" lon="1.14573">
        <ele>133.69914</ele>
        <time>2016-01-05T15:57:25Z</time>
      </trkpt>
      <trkpt lat="49.37076" lon="1.14558">
        <ele>133.33667</ele>
        <time>2016-01-05T15:57:35Z</time>
      </trkpt>
      <trkpt lat="49.37073" lon="1.14549">
        <ele>133.33667</ele>
        <time>2016-01-05T15:57:40Z</time>
      </trkpt>
      <trkpt lat="49.37066" lon="1.14535">
        <ele>132.7603</ele>
        <time>2016-01-05T15:57:50Z</time>
      </trkpt>
      <trkpt lat="49.37062" lon="1.14527">
        <ele>132.7603</ele>
        <time>2016-01-05T15:57:55Z</time>
      </trkpt>
      <trkpt lat="49.37051" lon="1.14503">
        <ele>132.01634</ele>
        <time>2016-01-05T15:58:10Z</time>
      </trkpt>
      <trkpt lat="49.37047" lon="1.14496">
        <ele>132.01634</ele>
        <time>2016-01-05T15:58:15Z</time>
      </trkpt>
      <trkpt lat="49.37039" lon="1.14478">
        <ele>131.30673</ele>
        <time>2016-01-05T15:58:25Z</time>
      </trkpt>
      <trkpt lat="49.37036" lon="1.14471">
        <ele>131.30673</ele>
        <time>2016-01-05T15:58:30Z</time>
      </trkpt>
      <trkpt lat="49.3703" lon="1.14452">
        <ele>130.68877</ele>
        <time>2016-01-05T15:58:40Z</time>
      </trkpt>
      <trkpt lat="49.37027" lon="1.14448">
        <ele>130.68877</ele>
        <time>2016-01-05T15:58:45Z</time>
      </trkpt>
      <trkpt lat="49.37019" lon="1.14431">
        <ele>130.04234</ele>
        <time>2016-01-05T15:58:55Z</time>
      </trkpt>
      <trkpt lat="49.37015" lon="1.14423">
        <ele>130.04234</ele>
        <time>2016-01-05T15:59:00Z</time>
      </trkpt>
      <trkpt lat="49.37007" lon="1.14406">
        <ele>129.37152</ele>
        <time>2016-01-05T15:59:10Z</time>
      </trkpt>
      <trkpt lat="49.37004" lon="1.14399">
        <ele>129.37152</ele>
        <time>2016-01-05T15:59:15Z</time>
      </trkpt>
      <trkpt lat="49.36997" lon="1.14384">
        <ele>128.7234</ele>
        <time>2016-01-05T15:59:25Z</time>
      </trkpt>
      <trkpt lat="49.36993" lon="1.14376">
        <ele>128.7234</ele>
        <time>2016-01-05T15:59:30Z</time>
      </trkpt>
      <trkpt lat="49.36985" lon="1.14362">
        <ele>128.1703</ele>
        <time>2016-01-05T15:59:40Z</time>
      </trkpt>
      <trkpt lat="49.36981" lon="1.14355">
        <ele>128.1703</ele>
        <time>2016-01-05T15:59:45Z</time>
      </trkpt>
      <trkpt lat="49.36978" lon="1.14357">
        <ele>127.75017</ele>
        <time>2016-01-05T15:59:55Z</time>
      </trkpt>
      <trkpt lat="49.36973" lon="1.14356">
        <ele>127.75017</ele>
        <time>2016-01-05T16:00:00Z</time>
      </trkpt>
      <trkpt lat="49.36957" lon="1.14353">
        <ele>127.411255</ele>
        <time>2016-01-05T16:00:10Z</time>
      </trkpt>
      <trkpt lat="49.36949" lon="1.14354">
        <ele>127.411255</ele>
        <time>2016-01-05T16:00:15Z</time>
      </trkpt>
      <trkpt lat="49.36937" lon="1.14355">
        <ele>127.20626</ele>
        <time>2016-01-05T16:00:25Z</time>
      </trkpt>
      <trkpt lat="49.3693" lon="1.14356">
        <ele>127.20626</ele>
        <time>2016-01-05T16:00:30Z</time>
      </trkpt>
      <trkpt lat="49.36918" lon="1.14359">
        <ele>126.99626</ele>
        <time>2016-01-05T16:00:40Z</time>
      </trkpt>
      <trkpt lat="49.36911" lon="1.1436">
        <ele>126.99626</ele>
        <time>2016-01-05T16:00:45Z</time>
      </trkpt>
      <trkpt lat="49.36891" lon="1.14357">
        <ele>126.825455</ele>
        <time>2016-01-05T16:01:00Z</time>
      </trkpt>
      <trkpt lat="49.36886" lon="1.14355">
        <ele>126.825455</ele>
        <time>2016-01-05T16:01:05Z</time>
      </trkpt>
      <trkpt lat="49.36875" lon="1.14352">
        <ele>126.763466</ele>
        <time>2016-01-05T16:01:15Z</time>
      </trkpt>
      <trkpt lat="49.36868" lon="1.14352">
        <ele>126.763466</ele>
        <time>2016-01-05T16:01:20Z</time>
      </trkpt>
      <trkpt lat="49.36855" lon="1.14353">
        <ele>126.62951</ele>
        <time>2016-01-05T16:01:30Z</time>
      </trkpt>
      <trkpt lat="49.36849" lon="1.14353">
        <ele>126.62951</ele>
        <time>2016-01-05T16:01:35Z</time>
      </trkpt>
      <trkpt lat="49.36836" lon="1.14353">
        <ele>126.4868</ele>
        <time>2016-01-05T16:01:45Z</time>
      </trkpt>
      <trkpt lat="49.36831" lon="1.14354">
        <ele>126.4868</ele>
        <time>2016-01-05T16:01:50Z</time>
      </trkpt>
      <trkpt lat="49.36818" lon="1.14354">
        <ele>126.33629</ele>
        <time>2016-01-05T16:02:00Z</time>
      </trkpt>
      <trkpt lat="49.36813" lon="1.14354">
        <ele>126.33629</ele>
        <time>2016-01-05T16:02:05Z</time>
      </trkpt>
      <trkpt lat="49.36799" lon="1.14353">
        <ele>126.1212</ele>
        <time>2016-01-05T16:02:15Z</time>
      </trkpt>
      <trkpt lat="49.36792" lon="1.14352">
        <ele>126.1212</ele>
        <time>2016-01-05T16:02:20Z</time>
      </trkpt>
      <trkpt lat="49.36779" lon="1.14352">
        <ele>125.81791</ele>
        <time>2016-01-05T16:02:30Z</time>
      </trkpt>
      <trkpt lat="49.36772" lon="1.14352">
        <ele>125.81791</ele>
        <time>2016-01-05T16:02:35Z</time>
      </trkpt>
      <trkpt lat="49.3676" lon="1.14354">
        <ele>125.49122</ele>
        <time>2016-01-05T16:02:45Z</time>
      </trkpt>
      <trkpt lat="49.36753" lon="1.14355">
        <ele>125.49122</ele>
        <time>2016-01-05T16:02:50Z</time>
      </trkpt>
      <trkpt lat="49.36734" lon="1.14356">
        <ele>125.17239</ele>
        <time>2016-01-05T16:03:05Z</time>
      </trkpt>
      <trkpt lat="49.36727" lon="1.14358">
        <ele>125.17239</ele>
        <time>2016-01-05T16:03:10Z</time>
      </trkpt>
      <trkpt lat="49.36715" lon="1.14362">
        <ele>124.8327</ele>
        <time>2016-01-05T16:03:20Z</time>
      </trkpt>
      <trkpt lat="49.36708" lon="1.14363">
        <ele>124.8327</ele>
        <time>2016-01-05T16:03:25Z</time>
      </trkpt>
      <trkpt lat="49.36695" lon="1.14368">
        <ele>124.47439</ele>
        <time>2016-01-05T16:03:35Z</time>
      </trkpt>
      <trkpt lat="49.36689" lon="1.14371">
        <ele>124.47439</ele>
        <time>2016-01-05T16:03:40Z</time>
      </trkpt>
      <trkpt lat="49.36678" lon="1.14374">
        <ele>124.08515</ele>
        <time>2016-01-05T16:03:50Z</time>
      </trkpt>
      <trkpt lat="49.36671" lon="1.14376">
        <ele>124.08515</ele>
        <time>2016-01-05T16:03:55Z</time>
      </trkpt>
      <trkpt lat="49.36659" lon="1.14381">
        <ele>123.66806</ele>
        <time>2016-01-05T16:04:05Z</time>
      </trkpt>
      <trkpt lat="49.36654" lon="1.14384">
        <ele>123.66806</ele>
        <time>2016-01-05T16:04:10Z</time>
      </trkpt>
      <trkpt lat="49.36641" lon="1.14388">
        <ele>123.168365</ele>
        <time>2016-01-05T16:04:20Z</time>
      </trkpt>
      <trkpt lat="49.36635" lon="1.1439">
        <ele>123.168365</ele>
        <time>2016-01-05T16:04:25Z</time>
      </trkpt>
      <trkpt lat="49.36624" lon="1.14395">
        <ele>122.53555</ele>
        <time>2016-01-05T16:04:35Z</time>
      </trkpt>
      <trkpt lat="49.36618" lon="1.14397">
        <ele>122.53555</ele>
        <time>2016-01-05T16:04:40Z</time>
      </trkpt>
      <trkpt lat="49.36597" lon="1.14404">
        <ele>121.824036</ele>
        <time>2016-01-05T16:04:55Z</time>
      </trkpt>
      <trkpt lat="49.3659" lon="1.14407">
        <ele>121.824036</ele>
        <time>2016-01-05T16:05:00Z</time>
      </trkpt>
      <trkpt lat="49.36579" lon="1.14408">
        <ele>121.12766</ele>
        <time>2016-01-05T16:05:10Z</time>
      </trkpt>
      <trkpt lat="49.36573" lon="1.14411">
        <ele>121.12766</ele>
        <time>2016-01-05T16:05:15Z</time>
      </trkpt>
      <trkpt lat="49.36561" lon="1.14414">
        <ele>120.44684</ele>
        <time>2016-01-05T16:05:25Z</time>
      </trkpt>
      <trkpt lat="49.36555" lon="1.14412">
        <ele>120.44684</ele>
        <time>2016-01-05T16:05:30Z</time>
      </trkpt>
      <trkpt lat="49.36545" lon="1.14405">
        <ele>119.72422</ele>
        <time>2016-01-05T16:05:40Z</time>
      </trkpt>
      <trkpt lat="49.36539" lon="1.14396">
        <ele>119.72422</ele>
        <time>2016-01-05T16:05:45Z</time>
      </trkpt>
      <trkpt lat="49.36529" lon="1.14378">
        <ele>118.92117</ele>
        <time>2016-01-05T16:05:55Z</time>
      </trkpt>
      <trkpt lat="49.36525" lon="1.14371">
        <ele>118.92117</ele>
        <time>2016-01-05T16:06:00Z</time>
      </trkpt>
      <trkpt lat="49.36512" lon="1.14351">
        <ele>118.002075</ele>
        <time>2016-01-05T16:06:15Z</time>
      </trkpt>
      <trkpt lat="49.36508" lon="1.14342">
        <ele>118.002075</ele>
        <time>2016-01-05T16:06:20Z</time>
      </trkpt>
      <trkpt lat="49.365" lon="1.14329">
        <ele>117.121574</ele>
        <time>2016-01-05T16:06:30Z</time>
      </trkpt>
      <trkpt lat="49.36494" lon="1.1432">
        <ele>117.121574</ele>
        <time>2016-01-05T16:06:35Z</time>
      </trkpt>
      <trkpt lat="49.36486" lon="1.14306">
        <ele>116.20661</ele>
        <time>2016-01-05T16:06:45Z</time>
      </trkpt>
      <trkpt lat="49.3648" lon="1.14298">
        <ele>116.20661</ele>
        <time>2016-01-05T16:06:50Z</time>
      </trkpt>
      <trkpt lat="49.36471" lon="1.14283">
        <ele>115.26162</ele>
        <time>2016-01-05T16:07:00Z</time>
      </trkpt>
      <trkpt lat="49.36466" lon="1.14278">
        <ele>115.26162</ele>
        <time>2016-01-05T16:07:05Z</time>
      </trkpt>
      <trkpt lat="49.36456" lon="1.14266">
        <ele>114.18987</ele>
        <time>2016-01-05T16:07:15Z</time>
      </trkpt>
      <trkpt lat="49.36453" lon="1.14259">
        <ele>114.18987</ele>
        <time>2016-01-05T16:07:20Z</time>
      </trkpt>
      <trkpt lat="49.36443" lon="1.14241">
        <ele>113.27672</ele>
        <time>2016-01-05T16:07:30Z</time>
      </trkpt>
      <trkpt lat="49.36441" lon="1.14236">
        <ele>113.27672</ele>
        <time>2016-01-05T16:07:35Z</time>
      </trkpt>
      <trkpt lat="49.36434" lon="1.14217">
        <ele>112.613144</ele>
        <time>2016-01-05T16:07:45Z</time>
      </trkpt>
      <trkpt lat="49.36429" lon="1.14211">
        <ele>112.613144</ele>
        <time>2016-01-05T16:07:50Z</time>
      </trkpt>
      <trkpt lat="49.3642" lon="1.14201">
        <ele>111.87916</ele>
        <time>2016-01-05T16:08:00Z</time>
      </trkpt>
      <trkpt lat="49.36415" lon="1.14197">
        <ele>111.87916</ele>
        <time>2016-01-05T16:08:05Z</time>
      </trkpt>
      <trkpt lat="49.36405" lon="1.14182">
        <ele>110.922554</ele>
        <time>2016-01-05T16:08:15Z</time>
      </trkpt>
      <trkpt lat="49.364" lon="1.1418">
        <ele>110.922554</ele>
        <time>2016-01-05T16:08:20Z</time>
      </trkpt>
      <trkpt lat="49.36398" lon="1.14179">
        <ele>110.922554</ele>
        <time>2016-01-05T16:08:35Z</time>
      </trkpt>
      <trkpt lat="49.36402" lon="1.14178">
        <ele>109.94873</ele>
        <time>2016-01-05T16:08:40Z</time>
      </trkpt>
      <trkpt lat="49.36403" lon="1.14182">
        <ele>109.94873</ele>
        <time>2016-01-05T16:08:50Z</time>
      </trkpt>
      <trkpt lat="49.36402" lon="1.1418">
        <ele>109.94873</ele>
        <time>2016-01-05T16:08:55Z</time>
      </trkpt>
      <trkpt lat="49.36402" lon="1.1418">
        <ele>109.94873</ele>
        <time>2016-01-05T16:09:05Z</time>
      </trkpt>
      <trkpt lat="49.36406" lon="1.14183">
        <ele>109.94873</ele>
        <time>2016-01-05T16:09:10Z</time>
      </trkpt>
      <trkpt lat="49.36388" lon="1.14185">
        <ele>108.74449</ele>
        <time>2016-01-05T16:09:20Z</time>
      </trkpt>
      <trkpt lat="49.36382" lon="1.14188">
        <ele>108.74449</ele>
        <time>2016-01-05T16:09:25Z</time>
      </trkpt>
      <trkpt lat="49.36369" lon="1.1419">
        <ele>107.50199</ele>
        <time>2016-01-05T16:09:35Z</time>
      </trkpt>
      <trkpt lat="49.36363" lon="1.14191">
        <ele>107.50199</ele>
        <time>2016-01-05T16:09:40Z</time>
      </trkpt>
      <trkpt lat="49.36347" lon="1.1419">
        <ele>106.18314</ele>
        <time>2016-01-05T16:09:50Z</time>
      </trkpt>
      <trkpt lat="49.36341" lon="1.1419">
        <ele>106.18314</ele>
        <time>2016-01-05T16:09:55Z</time>
      </trkpt>
      <trkpt lat="49.36329" lon="1.14186">
        <ele>104.7384</ele>
        <time>2016-01-05T16:10:05Z</time>
      </trkpt>
      <trkpt lat="49.36323" lon="1.14184">
        <ele>104.7384</ele>
        <time>2016-01-05T16:10:10Z</time>
      </trkpt>
      <trkpt lat="49.36308" lon="1.14171">
        <ele>103.352745</ele>
        <time>2016-01-05T16:10:25Z</time>
      </trkpt>
      <trkpt lat="49.36303" lon="1.1417">
        <ele>103.352745</ele>
        <time>2016-01-05T16:10:30Z</time>
      </trkpt>
      <trkpt lat="49.36289" lon="1.1416">
        <ele>102.42789</ele>
        <time>2016-01-05T16:10:40Z</time>
      </trkpt>
      <trkpt lat="49.36284" lon="1.14158">
        <ele>102.42789</ele>
        <time>2016-01-05T16:10:45Z</time>
      </trkpt>
      <trkpt lat="49.36275" lon="1.14155">
        <ele>101.527664</ele>
        <time>2016-01-05T16:10:55Z</time>
      </trkpt>
      <trkpt lat="49.36271" lon="1.14152">
        <ele>101.527664</ele>
        <time>2016-01-05T16:11:00Z</time>
      </trkpt>
      <trkpt lat="49.3626" lon="1.14146">
        <ele>100.50721</ele>
        <time>2016-01-05T16:11:10Z</time>
      </trkpt>
      <trkpt lat="49.36253" lon="1.14143">
        <ele>100.50721</ele>
        <time>2016-01-05T16:11:15Z</time>
      </trkpt>
      <trkpt lat="49.3624" lon="1.14143">
        <ele>99.319046</ele>
        <time>2016-01-05T16:11:25Z</time>
      </trkpt>
      <trkpt lat="49.36235" lon="1.1414">
        <ele>99.319046</ele>
        <time>2016-01-05T16:11:30Z</time>
      </trkpt>
      <trkpt lat="49.36222" lon="1.14139">
        <ele>97.67459</ele>
        <time>2016-01-05T16:11:40Z</time>
      </trkpt>
      <trkpt lat="49.36213" lon="1.14135">
        <ele>96.1147</ele>
        <time>2016-01-05T16:11:45Z</time>
      </trkpt>
      <trkpt lat="49.362" lon="1.14129">
        <ele>94.361984</ele>
        <time>2016-01-05T16:11:55Z</time>
      </trkpt>
      <trkpt lat="49.36193" lon="1.14127">
        <ele>94.361984</ele>
        <time>2016-01-05T16:12:00Z</time>
      </trkpt>
      <trkpt lat="49.3618" lon="1.14124">
        <ele>92.26079</ele>
        <time>2016-01-05T16:12:10Z</time>
      </trkpt>
      <trkpt lat="49.36172" lon="1.14122">
        <ele>92.26079</ele>
        <time>2016-01-05T16:12:15Z</time>
      </trkpt>
      <trkpt lat="49.36152" lon="1.14116">
        <ele>89.86954</ele>
        <time>2016-01-05T16:12:30Z</time>
      </trkpt>
      <trkpt lat="49.36145" lon="1.14113">
        <ele>89.86954</ele>
        <time>2016-01-05T16:12:35Z</time>
      </trkpt>
      <trkpt lat="49.36136" lon="1.14105">
        <ele>87.41603</ele>
        <time>2016-01-05T16:12:45Z</time>
      </trkpt>
      <trkpt lat="49.36128" lon="1.14101">
        <ele>87.41603</ele>
        <time>2016-01-05T16:12:50Z</time>
      </trkpt>
      <trkpt lat="49.36116" lon="1.14095">
        <ele>84.98172</ele>
        <time>2016-01-05T16:13:00Z</time>
      </trkpt>
      <trkpt lat="49.36112" lon="1.14089">
        <ele>84.98172</ele>
        <time>2016-01-05T16:13:05Z</time>
      </trkpt>
      <trkpt lat="49.36104" lon="1.14076">
        <ele>82.45458</ele>
        <time>2016-01-05T16:13:15Z</time>
      </trkpt>
      <trkpt lat="49.36098" lon="1.1407">
        <ele>82.45458</ele>
        <time>2016-01-05T16:13:20Z</time>
      </trkpt>
      <trkpt lat="49.36087" lon="1.14059">
        <ele>79.86067</ele>
        <time>2016-01-05T16:13:30Z</time>
      </trkpt>
      <trkpt lat="49.36081" lon="1.14057">
        <ele>79.86067</ele>
        <time>2016-01-05T16:13:35Z</time>
      </trkpt>
      <trkpt lat="49.36068" lon="1.14053">
        <ele>77.26743</ele>
        <time>2016-01-05T16:13:45Z</time>
      </trkpt>
      <trkpt lat="49.36062" lon="1.14054">
        <ele>77.26743</ele>
        <time>2016-01-05T16:13:50Z</time>
      </trkpt>
      <trkpt lat="49.3605" lon="1.14047">
        <ele>74.69403</ele>
        <time>2016-01-05T16:14:00Z</time>
      </trkpt>
      <trkpt lat="49.36049" lon="1.14049">
        <ele>74.69403</ele>
        <time>2016-01-05T16:14:05Z</time>
      </trkpt>
      <trkpt lat="49.36056" lon="1.14054">
        <ele>72.31653</ele>
        <time>2016-01-05T16:14:15Z</time>
      </trkpt>
      <trkpt lat="49.3606" lon="1.14056">
        <ele>72.31653</ele>
        <time>2016-01-05T16:14:20Z</time>
      </trkpt>
      <trkpt lat="49.36058" lon="1.14062">
        <ele>72.31653</ele>
        <time>2016-01-05T16:14:35Z</time>
      </trkpt>
      <trkpt lat="49.36056" lon="1.14062">
        <ele>70.26859</ele>
        <time>2016-01-05T16:14:40Z</time>
      </trkpt>
      <trkpt lat="49.36047" lon="1.14067">
        <ele>68.341545</ele>
        <time>2016-01-05T16:14:50Z</time>
      </trkpt>
      <trkpt lat="49.36045" lon="1.14068">
        <ele>68.341545</ele>
        <time>2016-01-05T16:14:55Z</time>
      </trkpt>
      <trkpt lat="49.36037" lon="1.14072">
        <ele>66.57214</ele>
        <time>2016-01-05T16:15:05Z</time>
      </trkpt>
      <trkpt lat="49.36032" lon="1.14073">
        <ele>66.57214</ele>
        <time>2016-01-05T16:15:10Z</time>
      </trkpt>
      <trkpt lat="49.36021" lon="1.14072">
        <ele>64.95067</ele>
        <time>2016-01-05T16:15:20Z</time>
      </trkpt>
      <trkpt lat="49.36015" lon="1.14071">
        <ele>64.95067</ele>
        <time>2016-01-05T16:15:25Z</time>
      </trkpt>
      <trkpt lat="49.36005" lon="1.14069">
        <ele>63.323437</ele>
        <time>2016-01-05T16:15:35Z</time>
      </trkpt>
      <trkpt lat="49.36002" lon="1.14069">
        <ele>63.323437</ele>
        <time>2016-01-05T16:15:40Z</time>
      </trkpt>
      <trkpt lat="49.35993" lon="1.14065">
        <ele>61.836205</ele>
        <time>2016-01-05T16:15:50Z</time>
      </trkpt>
      <trkpt lat="49.35988" lon="1.14063">
        <ele>61.836205</ele>
        <time>2016-01-05T16:15:55Z</time>
      </trkpt>
      <trkpt lat="49.35979" lon="1.14053">
        <ele>60.191166</ele>
        <time>2016-01-05T16:16:05Z</time>
      </trkpt>
      <trkpt lat="49.35972" lon="1.14053">
        <ele>60.191166</ele>
        <time>2016-01-05T16:16:10Z</time>
      </trkpt>
      <trkpt lat="49.35959" lon="1.14056">
        <ele>58.4586</ele>
        <time>2016-01-05T16:16:20Z</time>
      </trkpt>
      <trkpt lat="49.35953" lon="1.14055">
        <ele>58.4586</ele>
        <time>2016-01-05T16:16:25Z</time>
      </trkpt>
      <trkpt lat="49.35938" lon="1.14063">
        <ele>56.54525</ele>
        <time>2016-01-05T16:16:40Z</time>
      </trkpt>
      <trkpt lat="49.35933" lon="1.14068">
        <ele>56.54525</ele>
        <time>2016-01-05T16:16:45Z</time>
      </trkpt>
      <trkpt lat="49.35928" lon="1.14073">
        <ele>54.71098</ele>
        <time>2016-01-05T16:16:55Z</time>
      </trkpt>
      <trkpt lat="49.3592" lon="1.14072">
        <ele>54.71098</ele>
        <time>2016-01-05T16:17:00Z</time>
      </trkpt>
      <trkpt lat="49.35912" lon="1.14072">
        <ele>52.93685</ele>
        <time>2016-01-05T16:17:10Z</time>
      </trkpt>
      <trkpt lat="49.35908" lon="1.14066">
        <ele>52.93685</ele>
        <time>2016-01-05T16:17:15Z</time>
      </trkpt>
      <trkpt lat="49.35899" lon="1.14056">
        <ele>51.43564</ele>
        <time>2016-01-05T16:17:25Z</time>
      </trkpt>
      <trkpt lat="49.35894" lon="1.14052">
        <ele>51.43564</ele>
        <time>2016-01-05T16:17:30Z</time>
      </trkpt>
      <trkpt lat="49.35879" lon="1.14041">
        <ele>49.98571</ele>
        <time>2016-01-05T16:17:40Z</time>
      </trkpt>
      <trkpt lat="49.35875" lon="1.14034">
        <ele>49.98571</ele>
        <time>2016-01-05T16:17:45Z</time>
      </trkpt>
      <trkpt lat="49.3587" lon="1.14021">
        <ele>48.82824</ele>
        <time>2016-01-05T16:17:55Z</time>
      </trkpt>
      <trkpt lat="49.35867" lon="1.14016">
        <ele>48.82824</ele>
        <time>2016-01-05T16:18:00Z</time>
      </trkpt>
      <trkpt lat="49.35855" lon="1.14006">
        <ele>48.01285</ele>
        <time>2016-01-05T16:18:10Z</time>
      </trkpt>
      <trkpt lat="49.35849" lon="1.14004">
        <ele>48.01285</ele>
        <time>2016-01-05T16:18:15Z</time>
      </trkpt>
      <trkpt lat="49.35835" lon="1.14014">
        <ele>47.685387</ele>
        <time>2016-01-05T16:18:30Z</time>
      </trkpt>
      <trkpt lat="49.35828" lon="1.14018">
        <ele>47.685387</ele>
        <time>2016-01-05T16:18:35Z</time>
      </trkpt>
      <trkpt lat="49.35821" lon="1.14025">
        <ele>47.676914</ele>
        <time>2016-01-05T16:18:45Z</time>
      </trkpt>
      <trkpt lat="49.35817" lon="1.14025">
        <ele>47.676914</ele>
        <time>2016-01-05T16:18:50Z</time>
      </trkpt>
      <trkpt lat="49.35809" lon="1.14026">
        <ele>47.90204</ele>
        <time>2016-01-05T16:19:00Z</time>
      </trkpt>
      <trkpt lat="49.35802" lon="1.14027">
        <ele>47.90204</ele>
        <time>2016-01-05T16:19:05Z</time>
      </trkpt>
      <trkpt lat="49.35796" lon="1.14031">
        <ele>48.381836</ele>
        <time>2016-01-05T16:19:15Z</time>
      </trkpt>
      <trkpt lat="49.35788" lon="1.14033">
        <ele>48.381836</ele>
        <time>2016-01-05T16:19:20Z</time>
      </trkpt>
      <trkpt lat="49.35777" lon="1.14042">
        <ele>48.97659</ele>
        <time>2016-01-05T16:19:30Z</time>
      </trkpt>
      <trkpt lat="49.35772" lon="1.14047">
        <ele>48.97659</ele>
        <time>2016-01-05T16:19:35Z</time>
      </trkpt>
      <trkpt lat="49.35763" lon="1.14054">
        <ele>49.556538</ele>
        <time>2016-01-05T16:19:45Z</time>
      </trkpt>
      <trkpt lat="49.35753" lon="1.1406">
        <ele>50.131214</ele>
        <time>2016-01-05T16:19:50Z</time>
      </trkpt>
      <trkpt lat="49.35741" lon="1.14061">
        <ele>50.666283</ele>
        <time>2016-01-05T16:20:00Z</time>
      </trkpt>
      <trkpt lat="49.35734" lon="1.14064">
        <ele>50.666283</ele>
        <time>2016-01-05T16:20:05Z</time>
      </trkpt>
      <trkpt lat="49.35722" lon="1.14077">
        <ele>51.043625</ele>
        <time>2016-01-05T16:20:15Z</time>
      </trkpt>
      <trkpt lat="49.35716" lon="1.14082">
        <ele>51.043625</ele>
        <time>2016-01-05T16:20:20Z</time>
      </trkpt>
      <trkpt lat="49.35708" lon="1.14105">
        <ele>51.039032</ele>
        <time>2016-01-05T16:20:35Z</time>
      </trkpt>
      <trkpt lat="49.35708" lon="1.14111">
        <ele>51.039032</ele>
        <time>2016-01-05T16:20:40Z</time>
      </trkpt>
      <trkpt lat="49.35704" lon="1.14128">
        <ele>50.90706</ele>
        <time>2016-01-05T16:20:50Z</time>
      </trkpt>
      <trkpt lat="49.35701" lon="1.14141">
        <ele>50.90706</ele>
        <time>2016-01-05T16:20:55Z</time>
      </trkpt>
      <trkpt lat="49.357" lon="1.14153">
        <ele>50.855194</ele>
        <time>2016-01-05T16:21:05Z</time>
      </trkpt>
      <trkpt lat="49.35698" lon="1.14167">
        <ele>50.855194</ele>
        <time>2016-01-05T16:21:10Z</time>
      </trkpt>
      <trkpt lat="49.35691" lon="1.14185">
        <ele>50.873787</ele>
        <time>2016-01-05T16:21:20Z</time>
      </trkpt>
      <trkpt lat="49.35689" lon="1.14191">
        <ele>50.873787</ele>
        <time>2016-01-05T16:21:25Z</time>
      </trkpt>
      <trkpt lat="49.35682" lon="1.14206">
        <ele>51.141148</ele>
        <time>2016-01-05T16:21:35Z</time>
      </trkpt>
      <trkpt lat="49.35676" lon="1.14214">
        <ele>51.141148</ele>
        <time>2016-01-05T16:21:40Z</time>
      </trkpt>
      <trkpt lat="49.35667" lon="1.14219">
        <ele>51.548073</ele>
        <time>2016-01-05T16:21:50Z</time>
      </trkpt>
      <trkpt lat="49.35661" lon="1.14223">
        <ele>51.548073</ele>
        <time>2016-01-05T16:21:55Z</time>
      </trkpt>
      <trkpt lat="49.35654" lon="1.14232">
        <ele>52.079575</ele>
        <time>2016-01-05T16:22:05Z</time>
      </trkpt>
      <trkpt lat="49.35649" lon="1.14237">
        <ele>52.079575</ele>
        <time>2016-01-05T16:22:10Z</time>
      </trkpt>
      <trkpt lat="49.35644" lon="1.14242">
        <ele>52.807983</ele>
        <time>2016-01-05T16:22:20Z</time>
      </trkpt>
      <trkpt lat="49.35641" lon="1.14242">
        <ele>52.807983</ele>
        <time>2016-01-05T16:22:25Z</time>
      </trkpt>
      <trkpt lat="49.35635" lon="1.1425">
        <ele>53.64137</ele>
        <time>2016-01-05T16:22:35Z</time>
      </trkpt>
      <trkpt lat="49.35632" lon="1.14253">
        <ele>53.64137</ele>
        <time>2016-01-05T16:22:40Z</time>
      </trkpt>
      <trkpt lat="49.35626" lon="1.14257">
        <ele>54.73938</ele>
        <time>2016-01-05T16:22:50Z</time>
      </trkpt>
      <trkpt lat="49.35623" lon="1.1426">
        <ele>54.73938</ele>
        <time>2016-01-05T16:22:55Z</time>
      </trkpt>
      <trkpt lat="49.35618" lon="1.14265">
        <ele>55.9611</ele>
        <time>2016-01-05T16:23:05Z</time>
      </trkpt>
      <trkpt lat="49.35616" lon="1.14267">
        <ele>55.9611</ele>
        <time>2016-01-05T16:23:10Z</time>
      </trkpt>
      <trkpt lat="49.35607" lon="1.14274">
        <ele>57.233414</ele>
        <time>2016-01-05T16:23:25Z</time>
      </trkpt>
      <trkpt lat="49.35605" lon="1.14277">
        <ele>57.233414</ele>
        <time>2016-01-05T16:23:30Z</time>
      </trkpt>
      <trkpt lat="49.35598" lon="1.14281">
        <ele>58.531807</ele>
        <time>2016-01-05T16:23:40Z</time>
      </trkpt>
      <trkpt lat="49.35593" lon="1.14284">
        <ele>58.531807</ele>
        <time>2016-01-05T16:23:45Z</time>
      </trkpt>
      <trkpt lat="49.35586" lon="1.14288">
        <ele>60.03541</ele>
        <time>2016-01-05T16:23:55Z</time>
      </trkpt>
      <trkpt lat="49.35583" lon="1.14288">
        <ele>60.03541</ele>
        <time>2016-01-05T16:24:00Z</time>
      </trkpt>
      <trkpt lat="49.35576" lon="1.1429">
        <ele>61.62158</ele>
        <time>2016-01-05T16:24:10Z</time>
      </trkpt>
      <trkpt lat="49.35572" lon="1.14292">
        <ele>61.62158</ele>
        <time>2016-01-05T16:24:15Z</time>
      </trkpt>
      <trkpt lat="49.3556" lon="1.14292">
        <ele>63.335117</ele>
        <time>2016-01-05T16:24:25Z</time>
      </trkpt>
      <trkpt lat="49.35555" lon="1.14294">
        <ele>63.335117</ele>
        <time>2016-01-05T16:24:30Z</time>
      </trkpt>
      <trkpt lat="49.35556" lon="1.14297">
        <ele>63.335117</ele>
        <time>2016-01-05T16:24:40Z</time>
      </trkpt>
      <trkpt lat="49.35557" lon="1.143">
        <ele>63.335117</ele>
        <time>2016-01-05T16:24:45Z</time>
      </trkpt>
      <trkpt lat="49.35556" lon="1.14299">
        <ele>65.26061</ele>
        <time>2016-01-05T16:24:55Z</time>
      </trkpt>
      <trkpt lat="49.35556" lon="1.143">
        <ele>65.26061</ele>
        <time>2016-01-05T16:25:00Z</time>
      </trkpt>
      <trkpt lat="49.35559" lon="1.14296">
        <ele>65.26061</ele>
        <time>2016-01-05T16:25:15Z</time>
      </trkpt>
      <trkpt lat="49.35559" lon="1.14294">
        <ele>65.26061</ele>
        <time>2016-01-05T16:25:20Z</time>
      </trkpt>
      <trkpt lat="49.3556" lon="1.14296">
        <ele>65.26061</ele>
        <time>2016-01-05T16:25:30Z</time>
      </trkpt>
      <trkpt lat="49.35559" lon="1.143">
        <ele>67.375145</ele>
        <time>2016-01-05T16:25:35Z</time>
      </trkpt>
      <trkpt lat="49.35559" lon="1.143">
        <ele>67.375145</ele>
        <time>2016-01-05T16:25:45Z</time>
      </trkpt>
      <trkpt lat="49.35557" lon="1.14299">
        <ele>67.375145</ele>
        <time>2016-01-05T16:25:50Z</time>
      </trkpt>
      <trkpt lat="49.35555" lon="1.14304">
        <ele>67.375145</ele>
        <time>2016-01-05T16:26:00Z</time>
      </trkpt>
      <trkpt lat="49.35554" lon="1.14303">
        <ele>67.375145</ele>
        <time>2016-01-05T16:26:05Z</time>
      </trkpt>
      <trkpt lat="49.35542" lon="1.14294">
        <ele>69.368935</ele>
        <time>2016-01-05T16:26:15Z</time>
      </trkpt>
      <trkpt lat="49.35535" lon="1.14294">
        <ele>69.368935</ele>
        <time>2016-01-05T16:26:20Z</time>
      </trkpt>
      <trkpt lat="49.35523" lon="1.14293">
        <ele>71.37341</ele>
        <time>2016-01-05T16:26:30Z</time>
      </trkpt>
      <trkpt lat="49.35517" lon="1.14292">
        <ele>71.37341</ele>
        <time>2016-01-05T16:26:35Z</time>
      </trkpt>
      <trkpt lat="49.35504" lon="1.14292">
        <ele>73.222305</ele>
        <time>2016-01-05T16:26:45Z</time>
      </trkpt>
      <trkpt lat="49.35498" lon="1.14291">
        <ele>73.222305</ele>
        <time>2016-01-05T16:26:50Z</time>
      </trkpt>
      <trkpt lat="49.35481" lon="1.14282">
        <ele>74.8775</ele>
        <time>2016-01-05T16:27:05Z</time>
      </trkpt>
      <trkpt lat="49.3548" lon="1.14271">
        <ele>74.8775</ele>
        <time>2016-01-05T16:27:10Z</time>
      </trkpt>
      <trkpt lat="49.3548" lon="1.14249">
        <ele>76.43415</ele>
        <time>2016-01-05T16:27:20Z</time>
      </trkpt>
      <trkpt lat="49.3548" lon="1.1424">
        <ele>76.43415</ele>
        <time>2016-01-05T16:27:25Z</time>
      </trkpt>
      <trkpt lat="49.35483" lon="1.14221">
        <ele>77.937675</ele>
        <time>2016-01-05T16:27:35Z</time>
      </trkpt>
      <trkpt lat="49.35484" lon="1.14211">
        <ele>77.937675</ele>
        <time>2016-01-05T16:27:40Z</time>
      </trkpt>
      <trkpt lat="49.35487" lon="1.1419">
        <ele>79.40168</ele>
        <time>2016-01-05T16:27:50Z</time>
      </trkpt>
      <trkpt lat="49.35488" lon="1.14182">
        <ele>79.40168</ele>
        <time>2016-01-05T16:27:55Z</time>
      </trkpt>
      <trkpt lat="49.35489" lon="1.14162">
        <ele>80.767075</ele>
        <time>2016-01-05T16:28:05Z</time>
      </trkpt>
      <trkpt lat="49.3549" lon="1.14153">
        <ele>80.767075</ele>
        <time>2016-01-05T16:28:10Z</time>
      </trkpt>
      <trkpt lat="49.35488" lon="1.14131">
        <ele>82.080444</ele>
        <time>2016-01-05T16:28:20Z</time>
      </trkpt>
      <trkpt lat="49.35483" lon="1.14119">
        <ele>83.270035</ele>
        <time>2016-01-05T16:28:25Z</time>
      </trkpt>
      <trkpt lat="49.35472" lon="1.14116">
        <ele>84.31313</ele>
        <time>2016-01-05T16:28:35Z</time>
      </trkpt>
      <trkpt lat="49.35464" lon="1.14117">
        <ele>84.31313</ele>
        <time>2016-01-05T16:28:40Z</time>
      </trkpt>
      <trkpt lat="49.35444" lon="1.14122">
        <ele>85.01637</ele>
        <time>2016-01-05T16:28:55Z</time>
      </trkpt>
      <trkpt lat="49.35438" lon="1.14121">
        <ele>85.01637</ele>
        <time>2016-01-05T16:29:00Z</time>
      </trkpt>
      <trkpt lat="49.35421" lon="1.1412">
        <ele>85.706116</ele>
        <time>2016-01-05T16:29:10Z</time>
      </trkpt>
      <trkpt lat="49.35416" lon="1.14119">
        <ele>85.706116</ele>
        <time>2016-01-05T16:29:15Z</time>
      </trkpt>
      <trkpt lat="49.35408" lon="1.14113">
        <ele>86.43998</ele>
        <time>2016-01-05T16:29:25Z</time>
      </trkpt>
      <trkpt lat="49.35405" lon="1.14108">
        <ele>86.43998</ele>
        <time>2016-01-05T16:29:30Z</time>
      </trkpt>
      <trkpt lat="49.35401" lon="1.14097">
        <ele>87.14168</ele>
        <time>2016-01-05T16:29:40Z</time>
      </trkpt>
      <trkpt lat="49.354" lon="1.14088">
        <ele>87.14168</ele>
        <time>2016-01-05T16:29:45Z</time>
      </trkpt>
      <trkpt lat="49.35397" lon="1.14076">
        <ele>87.63993</ele>
        <time>2016-01-05T16:29:55Z</time>
      </trkpt>
      <trkpt lat="49.35397" lon="1.14075">
        <ele>87.63993</ele>
        <time>2016-01-05T16:30:00Z</time>
      </trkpt>
      <trkpt lat="49.35394" lon="1.14069">
        <ele>87.63993</ele>
        <time>2016-01-05T16:30:10Z</time>
      </trkpt>
      <trkpt lat="49.35395" lon="1.14068">
        <ele>87.63993</ele>
        <time>2016-01-05T16:30:15Z</time>
      </trkpt>
      <trkpt lat="49.35392" lon="1.1406">
        <ele>87.60378</ele>
        <time>2016-01-05T16:30:25Z</time>
      </trkpt>
      <trkpt lat="49.35392" lon="1.14054">
        <ele>87.60378</ele>
        <time>2016-01-05T16:30:30Z</time>
      </trkpt>
      <trkpt lat="49.35391" lon="1.1404">
        <ele>87.102936</ele>
        <time>2016-01-05T16:30:40Z</time>
      </trkpt>
      <trkpt lat="49.3539" lon="1.14034">
        <ele>87.102936</ele>
        <time>2016-01-05T16:30:45Z</time>
      </trkpt>
      <trkpt lat="49.35391" lon="1.14041">
        <ele>87.102936</ele>
        <time>2016-01-05T16:31:00Z</time>
      </trkpt>
      <trkpt lat="49.35391" lon="1.14039">
        <ele>86.50602</ele>
        <time>2016-01-05T16:31:05Z</time>
      </trkpt>
      <trkpt lat="49.35394" lon="1.14033">
        <ele>86.50602</ele>
        <time>2016-01-05T16:31:15Z</time>
      </trkpt>
      <trkpt lat="49.35394" lon="1.14028">
        <ele>86.50602</ele>
        <time>2016-01-05T16:31:20Z</time>
      </trkpt>
      <trkpt lat="49.35395" lon="1.14016">
        <ele>85.72263</ele>
        <time>2016-01-05T16:31:30Z</time>
      </trkpt>
      <trkpt lat="49.35397" lon="1.14007">
        <ele>85.72263</ele>
        <time>2016-01-05T16:31:35Z</time>
      </trkpt>
      <trkpt lat="49.35398" lon="1.13995">
        <ele>84.756065</ele>
        <time>2016-01-05T16:31:45Z</time>
      </trkpt>
      <trkpt lat="49.354" lon="1.13989">
        <ele>84.756065</ele>
        <time>2016-01-05T16:31:50Z</time>
      </trkpt>
      <trkpt lat="49.35401" lon="1.13977">
        <ele>83.45145</ele>
        <time>2016-01-05T16:32:00Z</time>
      </trkpt>
      <trkpt lat="49.35401" lon="1.1397">
        <ele>83.45145</ele>
        <time>2016-01-05T16:32:05Z</time>
      </trkpt>
      <trkpt lat="49.35406" lon="1.13952">
        <ele>82.026535</ele>
        <time>2016-01-05T16:32:15Z</time>
      </trkpt>
      <trkpt lat="49.35408" lon="1.13944">
        <ele>82.026535</ele>
        <time>2016-01-05T16:32:20Z</time>
      </trkpt>
      <trkpt lat="49.35415" lon="1.13932">
        <ele>80.3376</ele>
        <time>2016-01-05T16:32:30Z</time>
      </trkpt>
      <trkpt lat="49.35415" lon="1.13925">
        <ele>80.3376</ele>
        <time>2016-01-05T16:32:35Z</time>
      </trkpt>
      <trkpt lat="49.35419" lon="1.13915">
        <ele>78.33868</ele>
        <time>2016-01-05T16:32:45Z</time>
      </trkpt>
      <trkpt lat="49.35419" lon="1.13911">
        <ele>78.33868</ele>
        <time>2016-01-05T16:32:50Z</time>
      </trkpt>
      <trkpt lat="49.35418" lon="1.13911">
        <ele>78.33868</ele>
        <time>2016-01-05T16:33:00Z</time>
      </trkpt>
      <trkpt lat="49.35418" lon="1.13907">
        <ele>78.33868</ele>
        <time>2016-01-05T16:33:05Z</time>
      </trkpt>
      <trkpt lat="49.35424" lon="1.13895">
        <ele>76.233025</ele>
        <time>2016-01-05T16:33:15Z</time>
      </trkpt>
      <trkpt lat="49.35423" lon="1.13898">
        <ele>76.233025</ele>
        <time>2016-01-05T16:33:20Z</time>
      </trkpt>
      <trkpt lat="49.35419" lon="1.13887">
        <ele>74.252464</ele>
        <time>2016-01-05T16:33:35Z</time>
      </trkpt>
      <trkpt lat="49.35422" lon="1.13885">
        <ele>74.252464</ele>
        <time>2016-01-05T16:33:40Z</time>
      </trkpt>
      <trkpt lat="49.35423" lon="1.13884">
        <ele>74.252464</ele>
        <time>2016-01-05T16:33:50Z</time>
      </trkpt>
      <trkpt lat="49.35434" lon="1.1388">
        <ele>72.49609</ele>
        <time>2016-01-05T16:34:35Z</time>
      </trkpt>
      <trkpt lat="49.35438" lon="1.13873">
        <ele>72.49609</ele>
        <time>2016-01-05T16:34:40Z</time>
      </trkpt>
      <trkpt lat="49.35443" lon="1.13861">
        <ele>71.09827</ele>
        <time>2016-01-05T16:34:50Z</time>
      </trkpt>
      <trkpt lat="49.35445" lon="1.13852">
        <ele>71.09827</ele>
        <time>2016-01-05T16:34:55Z</time>
      </trkpt>
      <trkpt lat="49.35444" lon="1.13842">
        <ele>70.00942</ele>
        <time>2016-01-05T16:35:05Z</time>
      </trkpt>
      <trkpt lat="49.35444" lon="1.13838">
        <ele>70.00942</ele>
        <time>2016-01-05T16:35:10Z</time>
      </trkpt>
      <trkpt lat="49.35444" lon="1.13813">
        <ele>69.05301</ele>
        <time>2016-01-05T16:35:20Z</time>
      </trkpt>
      <trkpt lat="49.35444" lon="1.13801">
        <ele>69.05301</ele>
        <time>2016-01-05T16:35:25Z</time>
      </trkpt>
      <trkpt lat="49.35445" lon="1.13781">
        <ele>68.137</ele>
        <time>2016-01-05T16:35:35Z</time>
      </trkpt>
      <trkpt lat="49.35445" lon="1.13774">
        <ele>68.137</ele>
        <time>2016-01-05T16:35:40Z</time>
      </trkpt>
      <trkpt lat="49.35445" lon="1.13759">
        <ele>66.97415</ele>
        <time>2016-01-05T16:35:50Z</time>
      </trkpt>
      <trkpt lat="49.35443" lon="1.13754">
        <ele>66.97415</ele>
        <time>2016-01-05T16:35:55Z</time>
      </trkpt>
      <trkpt lat="49.35443" lon="1.13732">
        <ele>65.31332</ele>
        <time>2016-01-05T16:36:05Z</time>
      </trkpt>
      <trkpt lat="49.35443" lon="1.13725">
        <ele>65.31332</ele>
        <time>2016-01-05T16:36:10Z</time>
      </trkpt>
      <trkpt lat="49.35445" lon="1.13706">
        <ele>63.441864</ele>
        <time>2016-01-05T16:36:20Z</time>
      </trkpt>
      <trkpt lat="49.35446" lon="1.13695">
        <ele>63.441864</ele>
        <time>2016-01-05T16:36:25Z</time>
      </trkpt>
      <trkpt lat="49.35446" lon="1.13675">
        <ele>61.136543</ele>
        <time>2016-01-05T16:36:35Z</time>
      </trkpt>
      <trkpt lat="49.35448" lon="1.13665">
        <ele>61.136543</ele>
        <time>2016-01-05T16:36:40Z</time>
      </trkpt>
      <trkpt lat="49.3545" lon="1.13633">
        <ele>58.508617</ele>
        <time>2016-01-05T16:36:55Z</time>
      </trkpt>
      <trkpt lat="49.35451" lon="1.13627">
        <ele>58.508617</ele>
        <time>2016-01-05T16:37:00Z</time>
      </trkpt>
      <trkpt lat="49.35459" lon="1.13612">
        <ele>55.863693</ele>
        <time>2016-01-05T16:37:10Z</time>
      </trkpt>
      <trkpt lat="49.35461" lon="1.13605">
        <ele>55.863693</ele>
        <time>2016-01-05T16:37:15Z</time>
      </trkpt>
      <trkpt lat="49.35463" lon="1.13591">
        <ele>53.455986</ele>
        <time>2016-01-05T16:37:25Z</time>
      </trkpt>
      <trkpt lat="49.35463" lon="1.1358">
        <ele>53.455986</ele>
        <time>2016-01-05T16:37:30Z</time>
      </trkpt>
      <trkpt lat="49.35462" lon="1.13561">
        <ele>51.448154</ele>
        <time>2016-01-05T16:37:40Z</time>
      </trkpt>
      <trkpt lat="49.35457" lon="1.13554">
        <ele>51.448154</ele>
        <time>2016-01-05T16:37:45Z</time>
      </trkpt>
      <trkpt lat="49.35439" lon="1.13548">
        <ele>49.48521</ele>
        <time>2016-01-05T16:37:55Z</time>
      </trkpt>
      <trkpt lat="49.35434" lon="1.13547">
        <ele>49.48521</ele>
        <time>2016-01-05T16:38:00Z</time>
      </trkpt>
      <trkpt lat="49.3542" lon="1.13548">
        <ele>47.36763</ele>
        <time>2016-01-05T16:38:10Z</time>
      </trkpt>
      <trkpt lat="49.35413" lon="1.13548">
        <ele>47.36763</ele>
        <time>2016-01-05T16:38:15Z</time>
      </trkpt>
      <trkpt lat="49.35403" lon="1.1355">
        <ele>45.21343</ele>
        <time>2016-01-05T16:38:25Z</time>
      </trkpt>
      <trkpt lat="49.35397" lon="1.13547">
        <ele>45.21343</ele>
        <time>2016-01-05T16:38:30Z</time>
      </trkpt>
      <trkpt lat="49.35375" lon="1.13542">
        <ele>43.39127</ele>
        <time>2016-01-05T16:38:45Z</time>
      </trkpt>
      <trkpt lat="49.35369" lon="1.13543">
        <ele>43.39127</ele>
        <time>2016-01-05T16:38:50Z</time>
      </trkpt>
      <trkpt lat="49.35359" lon="1.13538">
        <ele>41.621918</ele>
        <time>2016-01-05T16:39:00Z</time>
      </trkpt>
      <trkpt lat="49.35353" lon="1.13532">
        <ele>41.621918</ele>
        <time>2016-01-05T16:39:05Z</time>
      </trkpt>
      <trkpt lat="49.35348" lon="1.13521">
        <ele>40.20836</ele>
        <time>2016-01-05T16:39:15Z</time>
      </trkpt>
      <trkpt lat="49.35344" lon="1.13517">
        <ele>40.20836</ele>
        <time>2016-01-05T16:39:20Z</time>
      </trkpt>
      <trkpt lat="49.35337" lon="1.13503">
        <ele>39.17073</ele>
        <time>2016-01-05T16:39:30Z</time>
      </trkpt>
      <trkpt lat="49.35331" lon="1.13489">
        <ele>38.32469</ele>
        <time>2016-01-05T16:39:35Z</time>
      </trkpt>
      <trkpt lat="49.35322" lon="1.13477">
        <ele>37.541965</ele>
        <time>2016-01-05T16:39:45Z</time>
      </trkpt>
      <trkpt lat="49.35319" lon="1.13472">
        <ele>37.541965</ele>
        <time>2016-01-05T16:39:50Z</time>
      </trkpt>
      <trkpt lat="49.35311" lon="1.13457">
        <ele>36.761005</ele>
        <time>2016-01-05T16:40:00Z</time>
      </trkpt>
      <trkpt lat="49.3531" lon="1.13446">
        <ele>36.761005</ele>
        <time>2016-01-05T16:40:05Z</time>
      </trkpt>
      <trkpt lat="49.35305" lon="1.13429">
        <ele>36.126373</ele>
        <time>2016-01-05T16:40:15Z</time>
      </trkpt>
      <trkpt lat="49.35304" lon="1.13419">
        <ele>36.126373</ele>
        <time>2016-01-05T16:40:20Z</time>
      </trkpt>
      <trkpt lat="49.353" lon="1.13392">
        <ele>35.58411</ele>
        <time>2016-01-05T16:40:35Z</time>
      </trkpt>
      <trkpt lat="49.35299" lon="1.13384">
        <ele>35.58411</ele>
        <time>2016-01-05T16:40:40Z</time>
      </trkpt>
      <trkpt lat="49.35296" lon="1.13356">
        <ele>35.127064</ele>
        <time>2016-01-05T16:40:50Z</time>
      </trkpt>
      <trkpt lat="49.35293" lon="1.13349">
        <ele>35.127064</ele>
        <time>2016-01-05T16:40:55Z</time>
      </trkpt>
      <trkpt lat="49.3529" lon="1.13332">
        <ele>34.532074</ele>
        <time>2016-01-05T16:41:05Z</time>
      </trkpt>
      <trkpt lat="49.35286" lon="1.13321">
        <ele>34.532074</ele>
        <time>2016-01-05T16:41:10Z</time>
      </trkpt>
      <trkpt lat="49.35281" lon="1.13304">
        <ele>33.63589</ele>
        <time>2016-01-05T16:41:20Z</time>
      </trkpt>
      <trkpt lat="49.35276" lon="1.13297">
        <ele>33.63589</ele>
        <time>2016-01-05T16:41:25Z</time>
      </trkpt>
      <trkpt lat="49.35267" lon="1.13281">
        <ele>32.56179</ele>
        <time>2016-01-05T16:41:35Z</time>
      </trkpt>
      <trkpt lat="49.35263" lon="1.13275">
        <ele>32.56179</ele>
        <time>2016-01-05T16:41:40Z</time>
      </trkpt>
      <trkpt lat="49.35254" lon="1.1326">
        <ele>31.265888</ele>
        <time>2016-01-05T16:41:50Z</time>
      </trkpt>
      <trkpt lat="49.3525" lon="1.13253">
        <ele>31.265888</ele>
        <time>2016-01-05T16:41:55Z</time>
      </trkpt>
      <trkpt lat="49.35244" lon="1.13238">
        <ele>29.83775</ele>
        <time>2016-01-05T16:42:05Z</time>
      </trkpt>
      <trkpt lat="49.35241" lon="1.13229">
        <ele>29.83775</ele>
        <time>2016-01-05T16:42:10Z</time>
      </trkpt>
      <trkpt lat="49.35229" lon="1.13204">
        <ele>28.34623</ele>
        <time>2016-01-05T16:42:25Z</time>
      </trkpt>
      <trkpt lat="49.35226" lon="1.13202">
        <ele>28.34623</ele>
        <time>2016-01-05T16:42:30Z</time>
      </trkpt>
      <trkpt lat="49.35215" lon="1.13207">
        <ele>26.884043</ele>
        <time>2016-01-05T16:42:40Z</time>
      </trkpt>
      <trkpt lat="49.35211" lon="1.13201">
        <ele>26.884043</ele>
        <time>2016-01-05T16:42:45Z</time>
      </trkpt>
      <trkpt lat="49.35207" lon="1.13189">
        <ele>25.335173</ele>
        <time>2016-01-05T16:42:55Z</time>
      </trkpt>
      <trkpt lat="49.35204" lon="1.13183">
        <ele>25.335173</ele>
        <time>2016-01-05T16:43:00Z</time>
      </trkpt>
      <trkpt lat="49.35202" lon="1.13171">
        <ele>23.894917</ele>
        <time>2016-01-05T16:43:10Z</time>
      </trkpt>
      <trkpt lat="49.35201" lon="1.13163">
        <ele>23.894917</ele>
        <time>2016-01-05T16:43:15Z</time>
      </trkpt>
      <trkpt lat="49.35203" lon="1.13149">
        <ele>22.599737</ele>
        <time>2016-01-05T16:43:25Z</time>
      </trkpt>
      <trkpt lat="49.35203" lon="1.13141">
        <ele>22.599737</ele>
        <time>2016-01-05T16:43:30Z</time>
      </trkpt>
      <trkpt lat="49.35196" lon="1.13125">
        <ele>21.252352</ele>
        <time>2016-01-05T16:43:40Z</time>
      </trkpt>
      <trkpt lat="49.35192" lon="1.13118">
        <ele>21.252352</ele>
        <time>2016-01-05T16:43:45Z</time>
      </trkpt>
      <trkpt lat="49.35186" lon="1.13102">
        <ele>19.8718</ele>
        <time>2016-01-05T16:43:55Z</time>
      </trkpt>
      <trkpt lat="49.35182" lon="1.13101">
        <ele>19.8718</ele>
        <time>2016-01-05T16:44:00Z</time>
      </trkpt>
      <trkpt lat="49.35176" lon="1.13112">
        <ele>18.706324</ele>
        <time>2016-01-05T16:44:10Z</time>
      </trkpt>
      <trkpt lat="49.35177" lon="1.13117">
        <ele>18.706324</ele>
        <time>2016-01-05T16:44:15Z</time>
      </trkpt>
      <trkpt lat="49.35179" lon="1.13131">
        <ele>17.956438</ele>
        <time>2016-01-05T16:44:25Z</time>
      </trkpt>
      <trkpt lat="49.3518" lon="1.13142">
        <ele>17.956438</ele>
        <time>2016-01-05T16:44:30Z</time>
      </trkpt>
      <trkpt lat="49.35185" lon="1.13166">
        <ele>17.86435</ele>
        <time>2016-01-05T16:44:45Z</time>
      </trkpt>
      <trkpt lat="49.35185" lon="1.1317">
        <ele>17.86435</ele>
        <time>2016-01-05T16:44:50Z</time>
      </trkpt>
      <trkpt lat="49.35184" lon="1.1318">
        <ele>18.249062</ele>
        <time>2016-01-05T16:45:00Z</time>
      </trkpt>
      <trkpt lat="49.35184" lon="1.13187">
        <ele>18.249062</ele>
        <time>2016-01-05T16:45:05Z</time>
      </trkpt>
      <trkpt lat="49.35187" lon="1.13199">
        <ele>19.013554</ele>
        <time>2016-01-05T16:45:15Z</time>
      </trkpt>
      <trkpt lat="49.35187" lon="1.13205">
        <ele>19.013554</ele>
        <time>2016-01-05T16:45:20Z</time>
      </trkpt>
      <trkpt lat="49.35189" lon="1.13218">
        <ele>20.297426</ele>
        <time>2016-01-05T16:45:30Z</time>
      </trkpt>
      <trkpt lat="49.35191" lon="1.13226">
        <ele>20.297426</ele>
        <time>2016-01-05T16:45:35Z</time>
      </trkpt>
      <trkpt lat="49.35192" lon="1.13244">
        <ele>21.911514</ele>
        <time>2016-01-05T16:45:45Z</time>
      </trkpt>
      <trkpt lat="49.35192" lon="1.13249">
        <ele>21.911514</ele>
        <time>2016-01-05T16:45:50Z</time>
      </trkpt>
      <trkpt lat="49.35191" lon="1.13269">
        <ele>23.823751</ele>
        <time>2016-01-05T16:46:00Z</time>
      </trkpt>
      <trkpt lat="49.35191" lon="1.13274">
        <ele>23.823751</ele>
        <time>2016-01-05T16:46:05Z</time>
      </trkpt>
      <trkpt lat="49.35191" lon="1.13287">
        <ele>26.032454</ele>
        <time>2016-01-05T16:46:15Z</time>
      </trkpt>
      <trkpt lat="49.35191" lon="1.13295">
        <ele>26.032454</ele>
        <time>2016-01-05T16:46:20Z</time>
      </trkpt>
      <trkpt lat="49.35184" lon="1.13316">
        <ele>28.33353</ele>
        <time>2016-01-05T16:46:35Z</time>
      </trkpt>
      <trkpt lat="49.3518" lon="1.13326">
        <ele>28.33353</ele>
        <time>2016-01-05T16:46:40Z</time>
      </trkpt>
      <trkpt lat="49.35179" lon="1.13341">
        <ele>30.206255</ele>
        <time>2016-01-05T16:46:50Z</time>
      </trkpt>
      <trkpt lat="49.35177" lon="1.13345">
        <ele>30.206255</ele>
        <time>2016-01-05T16:46:55Z</time>
      </trkpt>
      <trkpt lat="49.35175" lon="1.13357">
        <ele>31.962065</ele>
        <time>2016-01-05T16:47:05Z</time>
      </trkpt>
      <trkpt lat="49.35174" lon="1.13365">
        <ele>31.962065</ele>
        <time>2016-01-05T16:47:10Z</time>
      </trkpt>
      <trkpt lat="49.3517" lon="1.1338">
        <ele>33.94762</ele>
        <time>2016-01-05T16:47:20Z</time>
      </trkpt>
      <trkpt lat="49.35168" lon="1.13385">
        <ele>33.94762</ele>
        <time>2016-01-05T16:47:25Z</time>
      </trkpt>
      <trkpt lat="49.35162" lon="1.13402">
        <ele>36.036858</ele>
        <time>2016-01-05T16:47:35Z</time>
      </trkpt>
      <trkpt lat="49.35159" lon="1.13407">
        <ele>36.036858</ele>
        <time>2016-01-05T16:47:40Z</time>
      </trkpt>
      <trkpt lat="49.35154" lon="1.1342">
        <ele>37.968727</ele>
        <time>2016-01-05T16:47:50Z</time>
      </trkpt>
      <trkpt lat="49.35151" lon="1.13425">
        <ele>37.968727</ele>
        <time>2016-01-05T16:47:55Z</time>
      </trkpt>
      <trkpt lat="49.35146" lon="1.13438">
        <ele>39.84783</ele>
        <time>2016-01-05T16:48:05Z</time>
      </trkpt>
      <trkpt lat="49.35143" lon="1.13443">
        <ele>39.84783</ele>
        <time>2016-01-05T16:48:10Z</time>
      </trkpt>
      <trkpt lat="49.35135" lon="1.1346">
        <ele>41.699352</ele>
        <time>2016-01-05T16:48:25Z</time>
      </trkpt>
      <trkpt lat="49.35132" lon="1.13466">
        <ele>41.699352</ele>
        <time>2016-01-05T16:48:30Z</time>
      </trkpt>
      <trkpt lat="49.35127" lon="1.13473">
        <ele>43.53248</ele>
        <time>2016-01-05T16:48:40Z</time>
      </trkpt>
      <trkpt lat="49.35124" lon="1.13478">
        <ele>43.53248</ele>
        <time>2016-01-05T16:48:45Z</time>
      </trkpt>
      <trkpt lat="49.35118" lon="1.13484">
        <ele>45.370377</ele>
        <time>2016-01-05T16:48:55Z</time>
      </trkpt>
      <trkpt lat="49.35114" lon="1.13487">
        <ele>45.370377</ele>
        <time>2016-01-05T16:49:00Z</time>
      </trkpt>
      <trkpt lat="49.35112" lon="1.13496">
        <ele>47.436455</ele>
        <time>2016-01-05T16:49:10Z</time>
      </trkpt>
      <trkpt lat="49.35113" lon="1.13498">
        <ele>47.436455</ele>
        <time>2016-01-05T16:49:15Z</time>
      </trkpt>
      <trkpt lat="49.35113" lon="1.13505">
        <ele>47.436455</ele>
        <time>2016-01-05T16:49:25Z</time>
      </trkpt>
      <trkpt lat="49.35113" lon="1.13503">
        <ele>47.436455</ele>
        <time>2016-01-05T16:49:30Z</time>
      </trkpt>
      <trkpt lat="49.35112" lon="1.13502">
        <ele>47.436455</ele>
        <time>2016-01-05T16:49:40Z</time>
      </trkpt>
      <trkpt lat="49.35111" lon="1.135">
        <ele>49.072605</ele>
        <time>2016-01-05T16:49:45Z</time>
      </trkpt>
      <trkpt lat="49.35111" lon="1.13495">
        <ele>49.072605</ele>
        <time>2016-01-05T16:49:55Z</time>
      </trkpt>
      <trkpt lat="49.35109" lon="1.13502">
        <ele>49.072605</ele>
        <time>2016-01-05T16:50:00Z</time>
      </trkpt>
      <trkpt lat="49.3511" lon="1.13512">
        <ele>50.290165</ele>
        <time>2016-01-05T16:50:10Z</time>
      </trkpt>
      <trkpt lat="49.35111" lon="1.13519">
        <ele>50.290165</ele>
        <time>2016-01-05T16:50:15Z</time>
      </trkpt>
      <trkpt lat="49.35111" lon="1.1353">
        <ele>51.79275</ele>
        <time>2016-01-05T16:50:25Z</time>
      </trkpt>
      <trkpt lat="49.35113" lon="1.13536">
        <ele>51.79275</ele>
        <time>2016-01-05T16:50:30Z</time>
      </trkpt>
      <trkpt lat="49.35118" lon="1.13546">
        <ele>53.352634</ele>
        <time>2016-01-05T16:50:40Z</time>
      </trkpt>
      <trkpt lat="49.3512" lon="1.13549">
        <ele>53.352634</ele>
        <time>2016-01-05T16:50:45Z</time>
      </trkpt>
      <trkpt lat="49.35125" lon="1.13563">
        <ele>55.2056</ele>
        <time>2016-01-05T16:51:00Z</time>
      </trkpt>
      <trkpt lat="49.35128" lon="1.13569">
        <ele>55.2056</ele>
        <time>2016-01-05T16:51:05Z</time>
      </trkpt>
      <trkpt lat="49.35134" lon="1.13579">
        <ele>57.07953</ele>
        <time>2016-01-05T16:51:15Z</time>
      </trkpt>
      <trkpt lat="49.35137" lon="1.13585">
        <ele>57.07953</ele>
        <time>2016-01-05T16:51:20Z</time>
      </trkpt>
      <trkpt lat="49.35137" lon="1.136">
        <ele>59.11154</ele>
        <time>2016-01-05T16:51:30Z</time>
      </trkpt>
      <trkpt lat="49.35133" lon="1.13605">
        <ele>59.11154</ele>
        <time>2016-01-05T16:51:35Z</time>
      </trkpt>
      <trkpt lat="49.35124" lon="1.13608">
        <ele>61.212288</ele>
        <time>2016-01-05T16:51:45Z</time>
      </trkpt>
      <trkpt lat="49.3512" lon="1.1361">
        <ele>61.212288</ele>
        <time>2016-01-05T16:51:50Z</time>
      </trkpt>
      <trkpt lat="49.35112" lon="1.13613">
        <ele>63.299</ele>
        <time>2016-01-05T16:52:00Z</time>
      </trkpt>
      <trkpt lat="49.35108" lon="1.13618">
        <ele>63.299</ele>
        <time>2016-01-05T16:52:05Z</time>
      </trkpt>
      <trkpt lat="49.35103" lon="1.1363">
        <ele>65.43935</ele>
        <time>2016-01-05T16:52:15Z</time>
      </trkpt>
      <trkpt lat="49.35101" lon="1.13633">
        <ele>65.43935</ele>
        <time>2016-01-05T16:52:20Z</time>
      </trkpt>
      <trkpt lat="49.35093" lon="1.13641">
        <ele>67.58082</ele>
        <time>2016-01-05T16:52:30Z</time>
      </trkpt>
      <trkpt lat="49.3509" lon="1.13647">
        <ele>67.58082</ele>
        <time>2016-01-05T16:52:35Z</time>
      </trkpt>
      <trkpt lat="49.35081" lon="1.13659">
        <ele>69.68936</ele>
        <time>2016-01-05T16:52:45Z</time>
      </trkpt>
      <trkpt lat="49.35079" lon="1.13668">
        <ele>69.68936</ele>
        <time>2016-01-05T16:52:50Z</time>
      </trkpt>
      <trkpt lat="49.35069" lon="1.13689">
        <ele>71.863434</ele>
        <time>2016-01-05T16:53:05Z</time>
      </trkpt>
      <trkpt lat="49.35067" lon="1.13699">
        <ele>71.863434</ele>
        <time>2016-01-05T16:53:10Z</time>
      </trkpt>
      <trkpt lat="49.3506" lon="1.13713">
        <ele>73.86284</ele>
        <time>2016-01-05T16:53:20Z</time>
      </trkpt>
      <trkpt lat="49.35057" lon="1.13719">
        <ele>73.86284</ele>
        <time>2016-01-05T16:53:25Z</time>
      </trkpt>
      <trkpt lat="49.35051" lon="1.13733">
        <ele>75.681885</ele>
        <time>2016-01-05T16:53:35Z</time>
      </trkpt>
      <trkpt lat="49.35047" lon="1.13742">
        <ele>75.681885</ele>
        <time>2016-01-05T16:53:40Z</time>
      </trkpt>
      <trkpt lat="49.3504" lon="1.13757">
        <ele>77.359245</ele>
        <time>2016-01-05T16:53:50Z</time>
      </trkpt>
      <trkpt lat="49.35036" lon="1.13765">
        <ele>77.359245</ele>
        <time>2016-01-05T16:53:55Z</time>
      </trkpt>
      <trkpt lat="49.35031" lon="1.1378">
        <ele>78.80164</ele>
        <time>2016-01-05T16:54:05Z</time>
      </trkpt>
      <trkpt lat="49.35027" lon="1.13788">
        <ele>78.80164</ele>
        <time>2016-01-05T16:54:10Z</time>
      </trkpt>
      <trkpt lat="49.35016" lon="1.13809">
        <ele>80.03879</ele>
        <time>2016-01-05T16:54:25Z</time>
      </trkpt>
      <trkpt lat="49.35013" lon="1.13817">
        <ele>80.03879</ele>
        <time>2016-01-05T16:54:30Z</time>
      </trkpt>
      <trkpt lat="49.35006" lon="1.13832">
        <ele>81.098976</ele>
        <time>2016-01-05T16:54:40Z</time>
      </trkpt>
      <trkpt lat="49.35002" lon="1.13839">
        <ele>81.098976</ele>
        <time>2016-01-05T16:54:45Z</time>
      </trkpt>
      <trkpt lat="49.34997" lon="1.13853">
        <ele>82.21085</ele>
        <time>2016-01-05T16:54:55Z</time>
      </trkpt>
      <trkpt lat="49.34994" lon="1.1386">
        <ele>82.21085</ele>
        <time>2016-01-05T16:55:00Z</time>
      </trkpt>
      <trkpt lat="49.34986" lon="1.13877">
        <ele>83.283646</ele>
        <time>2016-01-05T16:55:10Z</time>
      </trkpt>
      <trkpt lat="49.34983" lon="1.13883">
        <ele>83.283646</ele>
        <time>2016-01-05T16:55:15Z</time>
      </trkpt>
      <trkpt lat="49.34976" lon="1.13899">
        <ele>84.23351</ele>
        <time>2016-01-05T16:55:25Z</time>
      </trkpt>
      <trkpt lat="49.34973" lon="1.13905">
        <ele>84.23351</ele>
        <time>2016-01-05T16:55:30Z</time>
      </trkpt>
      <trkpt lat="49.34966" lon="1.13921">
        <ele>84.925606</ele>
        <time>2016-01-05T16:55:40Z</time>
      </trkpt>
      <trkpt lat="49.34962" lon="1.13928">
        <ele>84.925606</ele>
        <time>2016-01-05T16:55:45Z</time>
      </trkpt>
      <trkpt lat="49.34954" lon="1.13943">
        <ele>85.408775</ele>
        <time>2016-01-05T16:55:55Z</time>
      </trkpt>
      <trkpt lat="49.34951" lon="1.13949">
        <ele>85.408775</ele>
        <time>2016-01-05T16:56:00Z</time>
      </trkpt>
      <trkpt lat="49.34943" lon="1.1396">
        <ele>85.7578</ele>
        <time>2016-01-05T16:56:10Z</time>
      </trkpt>
      <trkpt lat="49.34938" lon="1.13967">
        <ele>85.7578</ele>
        <time>2016-01-05T16:56:15Z</time>
      </trkpt>
      <trkpt lat="49.3493" lon="1.13978">
        <ele>85.999214</ele>
        <time>2016-01-05T16:56:25Z</time>
      </trkpt>
      <trkpt lat="49.34923" lon="1.13984">
        <ele>85.999214</ele>
        <time>2016-01-05T16:56:30Z</time>
      </trkpt>
      <trkpt lat="49.34907" lon="1.14003">
        <ele>86.01388</ele>
        <time>2016-01-05T16:56:45Z</time>
      </trkpt>
      <trkpt lat="49.34902" lon="1.14005">
        <ele>86.01388</ele>
        <time>2016-01-05T16:56:50Z</time>
      </trkpt>
      <trkpt lat="49.34893" lon="1.14015">
        <ele>86.05239</ele>
        <time>2016-01-05T16:57:00Z</time>
      </trkpt>
      <trkpt lat="49.34888" lon="1.14019">
        <ele>86.05239</ele>
        <time>2016-01-05T16:57:05Z</time>
      </trkpt>
      <trkpt lat="49.34877" lon="1.14028">
        <ele>86.07313</ele>
        <time>2016-01-05T16:57:15Z</time>
      </trkpt>
      <trkpt lat="49.34873" lon="1.14033">
        <ele>86.07313</ele>
        <time>2016-01-05T16:57:20Z</time>
      </trkpt>
      <trkpt lat="49.34862" lon="1.14044">
        <ele>86.00877</ele>
        <time>2016-01-05T16:57:30Z</time>
      </trkpt>
      <trkpt lat="49.34858" lon="1.14048">
        <ele>86.00877</ele>
        <time>2016-01-05T16:57:35Z</time>
      </trkpt>
      <trkpt lat="49.34847" lon="1.14059">
        <ele>85.898125</ele>
        <time>2016-01-05T16:57:45Z</time>
      </trkpt>
      <trkpt lat="49.34842" lon="1.14064">
        <ele>85.898125</ele>
        <time>2016-01-05T16:57:50Z</time>
      </trkpt>
      <trkpt lat="49.34831" lon="1.14071">
        <ele>85.79167</ele>
        <time>2016-01-05T16:58:00Z</time>
      </trkpt>
      <trkpt lat="49.34825" lon="1.14076">
        <ele>85.79167</ele>
        <time>2016-01-05T16:58:05Z</time>
      </trkpt>
      <trkpt lat="49.34815" lon="1.14086">
        <ele>85.6209</ele>
        <time>2016-01-05T16:58:15Z</time>
      </trkpt>
      <trkpt lat="49.34811" lon="1.1409">
        <ele>85.6209</ele>
        <time>2016-01-05T16:58:20Z</time>
      </trkpt>
      <trkpt lat="49.34798" lon="1.14104">
        <ele>85.495445</ele>
        <time>2016-01-05T16:58:35Z</time>
      </trkpt>
      <trkpt lat="49.34792" lon="1.14108">
        <ele>85.495445</ele>
        <time>2016-01-05T16:58:40Z</time>
      </trkpt>
      <trkpt lat="49.34782" lon="1.14117">
        <ele>85.32937</ele>
        <time>2016-01-05T16:58:50Z</time>
      </trkpt>
      <trkpt lat="49.34777" lon="1.14122">
        <ele>85.32937</ele>
        <time>2016-01-05T16:58:55Z</time>
      </trkpt>
      <trkpt lat="49.34769" lon="1.14132">
        <ele>85.15845</ele>
        <time>2016-01-05T16:59:05Z</time>
      </trkpt>
      <trkpt lat="49.34763" lon="1.14138">
        <ele>85.15845</ele>
        <time>2016-01-05T16:59:10Z</time>
      </trkpt>
      <trkpt lat="49.34754" lon="1.14147">
        <ele>84.943726</ele>
        <time>2016-01-05T16:59:20Z</time>
      </trkpt>
      <trkpt lat="49.34747" lon="1.14152">
        <ele>84.943726</ele>
        <time>2016-01-05T16:59:25Z</time>
      </trkpt>
      <trkpt lat="49.34737" lon="1.14162">
        <ele>84.605965</ele>
        <time>2016-01-05T16:59:35Z</time>
      </trkpt>
      <trkpt lat="49.34731" lon="1.14165">
        <ele>84.605965</ele>
        <time>2016-01-05T16:59:40Z</time>
      </trkpt>
      <trkpt lat="49.34722" lon="1.14172">
        <ele>84.230545</ele>
        <time>2016-01-05T16:59:50Z</time>
      </trkpt>
      <trkpt lat="49.34715" lon="1.14178">
        <ele>84.230545</ele>
        <time>2016-01-05T16:59:55Z</time>
      </trkpt>
      <trkpt lat="49.34706" lon="1.14186">
        <ele>83.781334</ele>
        <time>2016-01-05T17:00:05Z</time>
      </trkpt>
      <trkpt lat="49.347" lon="1.14189">
        <ele>83.781334</ele>
        <time>2016-01-05T17:00:10Z</time>
      </trkpt>
      <trkpt lat="49.34689" lon="1.14196">
        <ele>83.39791</ele>
        <time>2016-01-05T17:00:20Z</time>
      </trkpt>
      <trkpt lat="49.34683" lon="1.142">
        <ele>83.39791</ele>
        <time>2016-01-05T17:00:25Z</time>
      </trkpt>
      <trkpt lat="49.34667" lon="1.14212">
        <ele>83.022</ele>
        <time>2016-01-05T17:00:40Z</time>
      </trkpt>
      <trkpt lat="49.34662" lon="1.14217">
        <ele>83.022</ele>
        <time>2016-01-05T17:00:45Z</time>
      </trkpt>
      <trkpt lat="49.34652" lon="1.14227">
        <ele>82.71478</ele>
        <time>2016-01-05T17:00:55Z</time>
      </trkpt>
      <trkpt lat="49.34646" lon="1.1423">
        <ele>82.71478</ele>
        <time>2016-01-05T17:01:00Z</time>
      </trkpt>
      <trkpt lat="49.34636" lon="1.14239">
        <ele>82.44618</ele>
        <time>2016-01-05T17:01:10Z</time>
      </trkpt>
      <trkpt lat="49.34631" lon="1.14243">
        <ele>82.44618</ele>
        <time>2016-01-05T17:01:15Z</time>
      </trkpt>
      <trkpt lat="49.34621" lon="1.14248">
        <ele>82.14491</ele>
        <time>2016-01-05T17:01:25Z</time>
      </trkpt>
      <trkpt lat="49.34615" lon="1.14247">
        <ele>82.14491</ele>
        <time>2016-01-05T17:01:30Z</time>
      </trkpt>
      <trkpt lat="49.34613" lon="1.14247">
        <ele>82.14491</ele>
        <time>2016-01-05T17:01:40Z</time>
      </trkpt>
      <trkpt lat="49.3461" lon="1.14243">
        <ele>81.80254</ele>
        <time>2016-01-05T17:01:45Z</time>
      </trkpt>
      <trkpt lat="49.34598" lon="1.1423">
        <ele>81.28158</ele>
        <time>2016-01-05T17:01:55Z</time>
      </trkpt>
      <trkpt lat="49.34595" lon="1.14223">
        <ele>81.28158</ele>
        <time>2016-01-05T17:02:00Z</time>
      </trkpt>
      <trkpt lat="49.34587" lon="1.1421">
        <ele>80.52707</ele>
        <time>2016-01-05T17:02:10Z</time>
      </trkpt>
      <trkpt lat="49.34584" lon="1.14206">
        <ele>80.52707</ele>
        <time>2016-01-05T17:02:15Z</time>
      </trkpt>
      <trkpt lat="49.34575" lon="1.14191">
        <ele>79.56069</ele>
        <time>2016-01-05T17:02:25Z</time>
      </trkpt>
      <trkpt lat="49.34571" lon="1.14185">
        <ele>79.56069</ele>
        <time>2016-01-05T17:02:30Z</time>
      </trkpt>
      <trkpt lat="49.34563" lon="1.1417">
        <ele>78.51832</ele>
        <time>2016-01-05T17:02:40Z</time>
      </trkpt>
      <trkpt lat="49.34561" lon="1.14163">
        <ele>78.51832</ele>
        <time>2016-01-05T17:02:45Z</time>
      </trkpt>
      <trkpt lat="49.34554" lon="1.14146">
        <ele>77.56913</ele>
        <time>2016-01-05T17:02:55Z</time>
      </trkpt>
      <trkpt lat="49.34552" lon="1.14139">
        <ele>77.56913</ele>
        <time>2016-01-05T17:03:00Z</time>
      </trkpt>
      <trkpt lat="49.34544" lon="1.14125">
        <ele>76.768654</ele>
        <time>2016-01-05T17:03:10Z</time>
      </trkpt>
      <trkpt lat="49.34539" lon="1.14115">
        <ele>76.768654</ele>
        <time>2016-01-05T17:03:15Z</time>
      </trkpt>
      <trkpt lat="49.34528" lon="1.14097">
        <ele>76.03805</ele>
        <time>2016-01-05T17:03:30Z</time>
      </trkpt>
      <trkpt lat="49.34525" lon="1.1409">
        <ele>76.03805</ele>
        <time>2016-01-05T17:03:35Z</time>
      </trkpt>
      <trkpt lat="49.34517" lon="1.14076">
        <ele>75.31837</ele>
        <time>2016-01-05T17:03:45Z</time>
      </trkpt>
      <trkpt lat="49.34513" lon="1.14069">
        <ele>75.31837</ele>
        <time>2016-01-05T17:03:50Z</time>
      </trkpt>
      <trkpt lat="49.34505" lon="1.14057">
        <ele>74.6557</ele>
        <time>2016-01-05T17:04:00Z</time>
      </trkpt>
      <trkpt lat="49.345" lon="1.14051">
        <ele>74.6557</ele>
        <time>2016-01-05T17:04:05Z</time>
      </trkpt>
      <trkpt lat="49.34493" lon="1.14036">
        <ele>73.93393</ele>
        <time>2016-01-05T17:04:15Z</time>
      </trkpt>
      <trkpt lat="49.34489" lon="1.1403">
        <ele>73.93393</ele>
        <time>2016-01-05T17:04:20Z</time>
      </trkpt>
      <trkpt lat="49.34481" lon="1.14015">
        <ele>73.261665</ele>
        <time>2016-01-05T17:04:30Z</time>
      </trkpt>
      <trkpt lat="49.34478" lon="1.14009">
        <ele>73.261665</ele>
        <time>2016-01-05T17:04:35Z</time>
      </trkpt>
      <trkpt lat="49.34468" lon="1.13996">
        <ele>72.667206</ele>
        <time>2016-01-05T17:04:45Z</time>
      </trkpt>
      <trkpt lat="49.34464" lon="1.1399">
        <ele>72.667206</ele>
        <time>2016-01-05T17:04:50Z</time>
      </trkpt>
      <trkpt lat="49.34456" lon="1.13979">
        <ele>72.07553</ele>
        <time>2016-01-05T17:05:00Z</time>
      </trkpt>
      <trkpt lat="49.34452" lon="1.13972">
        <ele>72.07553</ele>
        <time>2016-01-05T17:05:05Z</time>
      </trkpt>
      <trkpt lat="49.34443" lon="1.13959">
        <ele>71.41701</ele>
        <time>2016-01-05T17:05:15Z</time>
      </trkpt>
      <trkpt lat="49.3444" lon="1.13953">
        <ele>71.41701</ele>
        <time>2016-01-05T17:05:20Z</time>
      </trkpt>
      <trkpt lat="49.34431" lon="1.1394">
        <ele>70.82892</ele>
        <time>2016-01-05T17:05:30Z</time>
      </trkpt>
      <trkpt lat="49.34426" lon="1.13932">
        <ele>70.82892</ele>
        <time>2016-01-05T17:05:35Z</time>
      </trkpt>
      <trkpt lat="49.34414" lon="1.13912">
        <ele>70.380486</ele>
        <time>2016-01-05T17:05:50Z</time>
      </trkpt>
      <trkpt lat="49.34412" lon="1.13907">
        <ele>70.380486</ele>
        <time>2016-01-05T17:05:55Z</time>
      </trkpt>
      <trkpt lat="49.34405" lon="1.13892">
        <ele>69.90476</ele>
        <time>2016-01-05T17:06:05Z</time>
      </trkpt>
      <trkpt lat="49.34401" lon="1.13886">
        <ele>69.90476</ele>
        <time>2016-01-05T17:06:10Z</time>
      </trkpt>
      <trkpt lat="49.34396" lon="1.13872">
        <ele>69.43436</ele>
        <time>2016-01-05T17:06:20Z</time>
      </trkpt>
      <trkpt lat="49.34392" lon="1.13863">
        <ele>69.43436</ele>
        <time>2016-01-05T17:06:25Z</time>
      </trkpt>
      <trkpt lat="49.34385" lon="1.13848">
        <ele>69.17228</ele>
        <time>2016-01-05T17:06:35Z</time>
      </trkpt>
      <trkpt lat="49.34382" lon="1.13841">
        <ele>69.17228</ele>
        <time>2016-01-05T17:06:40Z</time>
      </trkpt>
      <trkpt lat="49.34376" lon="1.13826">
        <ele>68.96006</ele>
        <time>2016-01-05T17:06:50Z</time>
      </trkpt>
      <trkpt lat="49.34373" lon="1.13821">
        <ele>68.96006</ele>
        <time>2016-01-05T17:06:55Z</time>
      </trkpt>
      <trkpt lat="49.34368" lon="1.13805">
        <ele>68.852394</ele>
        <time>2016-01-05T17:07:05Z</time>
      </trkpt>
      <trkpt lat="49.34367" lon="1.13799">
        <ele>68.852394</ele>
        <time>2016-01-05T17:07:10Z</time>
      </trkpt>
      <trkpt lat="49.3436" lon="1.13783">
        <ele>68.88513</ele>
        <time>2016-01-05T17:07:20Z</time>
      </trkpt>
      <trkpt lat="49.34358" lon="1.13776">
        <ele>68.88513</ele>
        <time>2016-01-05T17:07:25Z</time>
      </trkpt>
      <trkpt lat="49.34352" lon="1.1376">
        <ele>69.00455</ele>
        <time>2016-01-05T17:07:35Z</time>
      </trkpt>
      <trkpt lat="49.34349" lon="1.13752">
        <ele>69.00455</ele>
        <time>2016-01-05T17:07:40Z</time>
      </trkpt>
      <trkpt lat="49.34344" lon="1.13736">
        <ele>69.16053</ele>
        <time>2016-01-05T17:07:50Z</time>
      </trkpt>
      <trkpt lat="49.34342" lon="1.13728">
        <ele>69.16053</ele>
        <time>2016-01-05T17:07:55Z</time>
      </trkpt>
      <trkpt lat="49.34335" lon="1.13713">
        <ele>69.33527</ele>
        <time>2016-01-05T17:08:05Z</time>
      </trkpt>
      <trkpt lat="49.34332" lon="1.13705">
        <ele>69.33527</ele>
        <time>2016-01-05T17:08:10Z</time>
      </trkpt>
      <trkpt lat="49.34326" lon="1.13689">
        <ele>69.55542</ele>
        <time>2016-01-05T17:08:20Z</time>
      </trkpt>
      <trkpt lat="49.34323" lon="1.13679">
        <ele>69.55542</ele>
        <time>2016-01-05T17:08:25Z</time>
      </trkpt>
      <trkpt lat="49.34314" lon="1.13659">
        <ele>69.90308</ele>
        <time>2016-01-05T17:08:40Z</time>
      </trkpt>
      <trkpt lat="49.34311" lon="1.13652">
        <ele>69.90308</ele>
        <time>2016-01-05T17:08:45Z</time>
      </trkpt>
      <trkpt lat="49.34304" lon="1.13636">
        <ele>70.23777</ele>
        <time>2016-01-05T17:08:55Z</time>
      </trkpt>
      <trkpt lat="49.34303" lon="1.13629">
        <ele>70.23777</ele>
        <time>2016-01-05T17:09:00Z</time>
      </trkpt>
      <trkpt lat="49.34299" lon="1.13613">
        <ele>70.76075</ele>
        <time>2016-01-05T17:09:10Z</time>
      </trkpt>
      <trkpt lat="49.34298" lon="1.13606">
        <ele>70.76075</ele>
        <time>2016-01-05T17:09:15Z</time>
      </trkpt>
      <trkpt lat="49.34292" lon="1.13591">
        <ele>71.34092</ele>
        <time>2016-01-05T17:09:25Z</time>
      </trkpt>
      <trkpt lat="49.34288" lon="1.13584">
        <ele>71.34092</ele>
        <time>2016-01-05T17:09:30Z</time>
      </trkpt>
      <trkpt lat="49.34282" lon="1.1357">
        <ele>71.87099</ele>
        <time>2016-01-05T17:09:40Z</time>
      </trkpt>
      <trkpt lat="49.3428" lon="1.13563">
        <ele>71.87099</ele>
        <time>2016-01-05T17:09:45Z</time>
      </trkpt>
      <trkpt lat="49.34275" lon="1.13547">
        <ele>72.36699</ele>
        <time>2016-01-05T17:09:55Z</time>
      </trkpt>
      <trkpt lat="49.34272" lon="1.13539">
        <ele>72.36699</ele>
        <time>2016-01-05T17:10:00Z</time>
      </trkpt>
      <trkpt lat="49.34267" lon="1.13523">
        <ele>72.742966</ele>
        <time>2016-01-05T17:10:10Z</time>
      </trkpt>
      <trkpt lat="49.34265" lon="1.13514">
        <ele>72.742966</ele>
        <time>2016-01-05T17:10:15Z</time>
      </trkpt>
      <trkpt lat="49.34259" lon="1.13491">
        <ele>73.03488</ele>
        <time>2016-01-05T17:10:30Z</time>
      </trkpt>
      <trkpt lat="49.34255" lon="1.13484">
        <ele>73.03488</ele>
        <time>2016-01-05T17:10:35Z</time>
      </trkpt>
      <trkpt lat="49.34248" lon="1.13468">
        <ele>73.247505</ele>
        <time>2016-01-05T17:10:45Z</time>
      </trkpt>
      <trkpt lat="49.34243" lon="1.1346">
        <ele>73.247505</ele>
        <time>2016-01-05T17:10:50Z</time>
      </trkpt>
      <trkpt lat="49.3424" lon="1.13442">
        <ele>73.385445</ele>
        <time>2016-01-05T17:11:00Z</time>
      </trkpt>
      <trkpt lat="49.34237" lon="1.13433">
        <ele>73.385445</ele>
        <time>2016-01-05T17:11:05Z</time>
      </trkpt>
      <trkpt lat="49.34232" lon="1.13417">
        <ele>73.56849</ele>
        <time>2016-01-05T17:11:15Z</time>
      </trkpt>
      <trkpt lat="49.3423" lon="1.1341">
        <ele>73.56849</ele>
        <time>2016-01-05T17:11:20Z</time>
      </trkpt>
      <trkpt lat="49.34225" lon="1.13393">
        <ele>73.8787</ele>
        <time>2016-01-05T17:11:30Z</time>
      </trkpt>
      <trkpt lat="49.34222" lon="1.13384">
        <ele>73.8787</ele>
        <time>2016-01-05T17:11:35Z</time>
      </trkpt>
      <trkpt lat="49.34214" lon="1.13374">
        <ele>74.30528</ele>
        <time>2016-01-05T17:11:45Z</time>
      </trkpt>
      <trkpt lat="49.34207" lon="1.13375">
        <ele>74.30528</ele>
        <time>2016-01-05T17:11:50Z</time>
      </trkpt>
      <trkpt lat="49.34195" lon="1.13377">
        <ele>74.737045</ele>
        <time>2016-01-05T17:12:00Z</time>
      </trkpt>
      <trkpt lat="49.34191" lon="1.13378">
        <ele>74.737045</ele>
        <time>2016-01-05T17:12:05Z</time>
      </trkpt>
      <trkpt lat="49.34179" lon="1.13377">
        <ele>75.18628</ele>
        <time>2016-01-05T17:12:15Z</time>
      </trkpt>
      <trkpt lat="49.34172" lon="1.13374">
        <ele>75.18628</ele>
        <time>2016-01-05T17:12:20Z</time>
      </trkpt>
      <trkpt lat="49.34166" lon="1.1338">
        <ele>75.707565</ele>
        <time>2016-01-05T17:12:30Z</time>
      </trkpt>
      <trkpt lat="49.34162" lon="1.13382">
        <ele>75.707565</ele>
        <time>2016-01-05T17:12:35Z</time>
      </trkpt>
      <trkpt lat="49.34158" lon="1.13381">
        <ele>75.707565</ele>
        <time>2016-01-05T17:12:40Z</time>
      </trkpt>
      <trkpt lat="49.34156" lon="1.13384">
        <ele>76.264824</ele>
        <time>2016-01-05T17:12:45Z</time>
      </trkpt>
      <trkpt lat="49.34151" lon="1.13386">
        <ele>76.264824</ele>
        <time>2016-01-05T17:12:50Z</time>
      </trkpt>
      <trkpt lat="49.34147" lon="1.13388">
        <ele>76.98311</ele>
        <time>2016-01-05T17:12:55Z</time>
      </trkpt>
      <trkpt lat="49.34144" lon="1.13387">
        <ele>76.98311</ele>
        <time>2016-01-05T17:13:00Z</time>
      </trkpt>
      <trkpt lat="49.34142" lon="1.13384">
        <ele>76.98311</ele>
        <time>2016-01-05T17:13:05Z</time>
      </trkpt>
      <trkpt lat="49.34139" lon="1.13385">
        <ele>76.98311</ele>
        <time>2016-01-05T17:13:10Z</time>
      </trkpt>
      <trkpt lat="49.34137" lon="1.13385">
        <ele>77.704025</ele>
        <time>2016-01-05T17:13:15Z</time>
      </trkpt>
      <trkpt lat="49.34136" lon="1.13384">
        <ele>77.704025</ele>
        <time>2016-01-05T17:13:20Z</time>
      </trkpt>
      <trkpt lat="49.34135" lon="1.13384">
        <ele>77.704025</ele>
        <time>2016-01-05T17:13:25Z</time>
      </trkpt>
      <trkpt lat="49.34135" lon="1.13384">
        <ele>77.704025</ele>
        <time>2016-01-05T17:13:30Z</time>
      </trkpt>
      <trkpt lat="49.34136" lon="1.13383">
        <ele>77.704025</ele>
        <time>2016-01-05T17:13:35Z</time>
      </trkpt>
      <trkpt lat="49.34136" lon="1.13384">
        <ele>77.704025</ele>
        <time>2016-01-05T17:13:40Z</time>
      </trkpt>
      <trkpt lat="49.34135" lon="1.13388">
        <ele>77.704025</ele>
        <time>2016-01-05T17:13:45Z</time>
      </trkpt>
      <trkpt lat="49.34131" lon="1.13389">
        <ele>78.85732</ele>
        <time>2016-01-05T17:13:50Z</time>
      </trkpt>
      <trkpt lat="49.34129" lon="1.1339">
        <ele>78.85732</ele>
        <time>2016-01-05T17:13:55Z</time>
      </trkpt>
      <trkpt lat="49.34129" lon="1.13389">
        <ele>78.85732</ele>
        <time>2016-01-05T17:14:00Z</time>
      </trkpt>
      <trkpt lat="49.3413" lon="1.13389">
        <ele>78.85732</ele>
        <time>2016-01-05T17:14:05Z</time>
      </trkpt>
      <trkpt lat="49.3413" lon="1.13389">
        <ele>78.85732</ele>
        <time>2016-01-05T17:14:10Z</time>
      </trkpt>
    </trkseg>
  </trk>
</gpx>